<?xml version="1.0" encoding="UTF-8" standalone="no" ?>
<gpx xmlns="http://www.topografix.com/GPX/1/1" xmlns:xsi="http://www.w3.org/2001/XMLSchema-instance" xsi:schemaLocation="http://www.topografix.com/GPX/1/1 http://www.topografix.com/GPX/1/1/gpx.xsd" version="1.1" creator="VisuGPX - https://www.visugpx.com">
  <metadata>
    <name>20240504 MGCF IDF 78</name>
    <desc><![CDATA[Ballade Montigny Feucherolles]]></desc>
  </metadata>
  <trk>
    <name><![CDATA[visugpx_klq808vf6m_1]]></name>
    <extensions>
      <line xmlns="http://www.topografix.com/GPX/gpx_style/0/2">
        <color>0000FF</color>
        <width>4</width>
      </line>
    </extensions>
    <trkseg>
      <trkpt lat="48.777" lon="2.01827">
        <ele>170.6</ele>
        <time>2024-04-15T08:06:52Z</time>
      </trkpt>
      <trkpt lat="48.77701" lon="2.01828">
        <ele>170.2</ele>
        <time>2024-04-15T08:06:58Z</time>
      </trkpt>
      <trkpt lat="48.77701" lon="2.01832">
        <ele>169</ele>
        <time>2024-04-15T08:07:13Z</time>
      </trkpt>
      <trkpt lat="48.77707" lon="2.01828">
        <ele>169.6</ele>
        <time>2024-04-15T08:07:19Z</time>
      </trkpt>
      <trkpt lat="48.77719" lon="2.01836">
        <ele>169.4</ele>
        <time>2024-04-15T08:07:24Z</time>
      </trkpt>
      <trkpt lat="48.77753" lon="2.01839">
        <ele>168</ele>
        <time>2024-04-15T08:07:31Z</time>
      </trkpt>
      <trkpt lat="48.7777" lon="2.0187">
        <ele>168.2</ele>
        <time>2024-04-15T08:07:39Z</time>
      </trkpt>
      <trkpt lat="48.77779" lon="2.0189">
        <ele>168.2</ele>
        <time>2024-04-15T08:07:44Z</time>
      </trkpt>
      <trkpt lat="48.77781" lon="2.01895">
        <ele>168.2</ele>
        <time>2024-04-15T08:07:45Z</time>
      </trkpt>
      <trkpt lat="48.77795" lon="2.01936">
        <ele>168.2</ele>
        <time>2024-04-15T08:07:51Z</time>
      </trkpt>
      <trkpt lat="48.77807" lon="2.01978">
        <ele>168.2</ele>
        <time>2024-04-15T08:07:55Z</time>
      </trkpt>
      <trkpt lat="48.77828" lon="2.02055">
        <ele>167.8</ele>
        <time>2024-04-15T08:08:02Z</time>
      </trkpt>
      <trkpt lat="48.7783" lon="2.02064">
        <ele>167.8</ele>
        <time>2024-04-15T08:08:03Z</time>
      </trkpt>
      <trkpt lat="48.77836" lon="2.02093">
        <ele>167.6</ele>
        <time>2024-04-15T08:08:07Z</time>
      </trkpt>
      <trkpt lat="48.77822" lon="2.02086">
        <ele>167.4</ele>
        <time>2024-04-15T08:08:10Z</time>
      </trkpt>
      <trkpt lat="48.77819" lon="2.0209">
        <ele>167.2</ele>
        <time>2024-04-15T08:08:11Z</time>
      </trkpt>
      <trkpt lat="48.77799" lon="2.02106">
        <ele>166.8</ele>
        <time>2024-04-15T08:08:14Z</time>
      </trkpt>
      <trkpt lat="48.77744" lon="2.02146">
        <ele>167.2</ele>
        <time>2024-04-15T08:08:21Z</time>
      </trkpt>
      <trkpt lat="48.77738" lon="2.02151">
        <ele>167.2</ele>
        <time>2024-04-15T08:08:22Z</time>
      </trkpt>
      <trkpt lat="48.77722" lon="2.02163">
        <ele>167.2</ele>
        <time>2024-04-15T08:08:25Z</time>
      </trkpt>
      <trkpt lat="48.77717" lon="2.02167">
        <ele>167.2</ele>
        <time>2024-04-15T08:08:26Z</time>
      </trkpt>
      <trkpt lat="48.777" lon="2.02166">
        <ele>167</ele>
        <time>2024-04-15T08:08:31Z</time>
      </trkpt>
      <trkpt lat="48.77699" lon="2.02163">
        <ele>167</ele>
        <time>2024-04-15T08:08:32Z</time>
      </trkpt>
      <trkpt lat="48.77694" lon="2.02152">
        <ele>166.8</ele>
        <time>2024-04-15T08:08:34Z</time>
      </trkpt>
      <trkpt lat="48.77682" lon="2.02121">
        <ele>167</ele>
        <time>2024-04-15T08:08:39Z</time>
      </trkpt>
      <trkpt lat="48.77669" lon="2.0209">
        <ele>166.8</ele>
        <time>2024-04-15T08:08:44Z</time>
      </trkpt>
      <trkpt lat="48.7765" lon="2.02046">
        <ele>167.2</ele>
        <time>2024-04-15T08:08:49Z</time>
      </trkpt>
      <trkpt lat="48.77621" lon="2.01983">
        <ele>167.2</ele>
        <time>2024-04-15T08:08:55Z</time>
      </trkpt>
      <trkpt lat="48.776" lon="2.01941">
        <ele>167.4</ele>
        <time>2024-04-15T08:09:00Z</time>
      </trkpt>
      <trkpt lat="48.77575" lon="2.01903">
        <ele>167.4</ele>
        <time>2024-04-15T08:09:06Z</time>
      </trkpt>
      <trkpt lat="48.7755" lon="2.01865">
        <ele>167.4</ele>
        <time>2024-04-15T08:09:11Z</time>
      </trkpt>
      <trkpt lat="48.77519" lon="2.01819">
        <ele>167.4</ele>
        <time>2024-04-15T08:09:17Z</time>
      </trkpt>
      <trkpt lat="48.7748" lon="2.01759">
        <ele>167.6</ele>
        <time>2024-04-15T08:09:24Z</time>
      </trkpt>
      <trkpt lat="48.77475" lon="2.01753">
        <ele>167.6</ele>
        <time>2024-04-15T08:09:25Z</time>
      </trkpt>
      <trkpt lat="48.77471" lon="2.01747">
        <ele>167.6</ele>
        <time>2024-04-15T08:09:26Z</time>
      </trkpt>
      <trkpt lat="48.77469" lon="2.01732">
        <ele>167.6</ele>
        <time>2024-04-15T08:09:28Z</time>
      </trkpt>
      <trkpt lat="48.77478" lon="2.01712">
        <ele>167.8</ele>
        <time>2024-04-15T08:09:31Z</time>
      </trkpt>
      <trkpt lat="48.77493" lon="2.01678">
        <ele>168</ele>
        <time>2024-04-15T08:09:35Z</time>
      </trkpt>
      <trkpt lat="48.77512" lon="2.01633">
        <ele>168.2</ele>
        <time>2024-04-15T08:09:41Z</time>
      </trkpt>
      <trkpt lat="48.77518" lon="2.01621">
        <ele>168.4</ele>
        <time>2024-04-15T08:09:45Z</time>
      </trkpt>
      <trkpt lat="48.77518" lon="2.0162">
        <ele>168.4</ele>
        <time>2024-04-15T08:09:51Z</time>
      </trkpt>
      <trkpt lat="48.77518" lon="2.0162">
        <ele>168.8</ele>
        <time>2024-04-15T08:10:05Z</time>
      </trkpt>
      <trkpt lat="48.77521" lon="2.01614">
        <ele>169.2</ele>
        <time>2024-04-15T08:10:19Z</time>
      </trkpt>
      <trkpt lat="48.77525" lon="2.01605">
        <ele>169.2</ele>
        <time>2024-04-15T08:10:21Z</time>
      </trkpt>
      <trkpt lat="48.7753" lon="2.01592">
        <ele>169.2</ele>
        <time>2024-04-15T08:10:23Z</time>
      </trkpt>
      <trkpt lat="48.7752" lon="2.01572">
        <ele>169.2</ele>
        <time>2024-04-15T08:10:25Z</time>
      </trkpt>
      <trkpt lat="48.77514" lon="2.01566">
        <ele>169.2</ele>
        <time>2024-04-15T08:10:26Z</time>
      </trkpt>
      <trkpt lat="48.77483" lon="2.01536">
        <ele>169</ele>
        <time>2024-04-15T08:10:30Z</time>
      </trkpt>
      <trkpt lat="48.77435" lon="2.0149">
        <ele>168.6</ele>
        <time>2024-04-15T08:10:35Z</time>
      </trkpt>
      <trkpt lat="48.77426" lon="2.01481">
        <ele>168.6</ele>
        <time>2024-04-15T08:10:36Z</time>
      </trkpt>
      <trkpt lat="48.77377" lon="2.01434">
        <ele>168.4</ele>
        <time>2024-04-15T08:10:41Z</time>
      </trkpt>
      <trkpt lat="48.77337" lon="2.01396">
        <ele>168.2</ele>
        <time>2024-04-15T08:10:45Z</time>
      </trkpt>
      <trkpt lat="48.77291" lon="2.01351">
        <ele>168</ele>
        <time>2024-04-15T08:10:50Z</time>
      </trkpt>
      <trkpt lat="48.77283" lon="2.01342">
        <ele>168</ele>
        <time>2024-04-15T08:10:51Z</time>
      </trkpt>
      <trkpt lat="48.77252" lon="2.01298">
        <ele>167.6</ele>
        <time>2024-04-15T08:10:56Z</time>
      </trkpt>
      <trkpt lat="48.77236" lon="2.01275">
        <ele>167.4</ele>
        <time>2024-04-15T08:11:00Z</time>
      </trkpt>
      <trkpt lat="48.77233" lon="2.01271">
        <ele>167.2</ele>
        <time>2024-04-15T08:11:03Z</time>
      </trkpt>
      <trkpt lat="48.77233" lon="2.01271">
        <ele>167</ele>
        <time>2024-04-15T08:11:12Z</time>
      </trkpt>
      <trkpt lat="48.77233" lon="2.01271">
        <ele>166.2</ele>
        <time>2024-04-15T08:11:37Z</time>
      </trkpt>
      <trkpt lat="48.77233" lon="2.01271">
        <ele>165.8</ele>
        <time>2024-04-15T08:11:55Z</time>
      </trkpt>
      <trkpt lat="48.77233" lon="2.0127">
        <ele>165.4</ele>
        <time>2024-04-15T08:12:13Z</time>
      </trkpt>
      <trkpt lat="48.77227" lon="2.0126">
        <ele>165.2</ele>
        <time>2024-04-15T08:12:16Z</time>
      </trkpt>
      <trkpt lat="48.77229" lon="2.01244">
        <ele>165</ele>
        <time>2024-04-15T08:12:18Z</time>
      </trkpt>
      <trkpt lat="48.77229" lon="2.01225">
        <ele>165</ele>
        <time>2024-04-15T08:12:20Z</time>
      </trkpt>
      <trkpt lat="48.77232" lon="2.01195">
        <ele>164.6</ele>
        <time>2024-04-15T08:12:23Z</time>
      </trkpt>
      <trkpt lat="48.77243" lon="2.01151">
        <ele>164.6</ele>
        <time>2024-04-15T08:12:28Z</time>
      </trkpt>
      <trkpt lat="48.77259" lon="2.01095">
        <ele>164.2</ele>
        <time>2024-04-15T08:12:34Z</time>
      </trkpt>
      <trkpt lat="48.77274" lon="2.01045">
        <ele>164</ele>
        <time>2024-04-15T08:12:39Z</time>
      </trkpt>
      <trkpt lat="48.77296" lon="2.00966">
        <ele>163.6</ele>
        <time>2024-04-15T08:12:45Z</time>
      </trkpt>
      <trkpt lat="48.77319" lon="2.00894">
        <ele>163.6</ele>
        <time>2024-04-15T08:12:50Z</time>
      </trkpt>
      <trkpt lat="48.77423" lon="2.0059">
        <ele>163.6</ele>
        <time>2024-04-15T08:13:17Z</time>
      </trkpt>
      <trkpt lat="48.77294" lon="2.00178">
        <ele>163.8</ele>
        <time>2024-04-15T08:13:47Z</time>
      </trkpt>
      <trkpt lat="48.7719" lon="1.99917">
        <ele>164.4</ele>
        <time>2024-04-15T08:14:17Z</time>
      </trkpt>
      <trkpt lat="48.77008" lon="1.9952">
        <ele>165.2</ele>
        <time>2024-04-15T08:14:43Z</time>
      </trkpt>
      <trkpt lat="48.76995" lon="1.99488">
        <ele>165.2</ele>
        <time>2024-04-15T08:14:45Z</time>
      </trkpt>
      <trkpt lat="48.76963" lon="1.99409">
        <ele>165.6</ele>
        <time>2024-04-15T08:14:50Z</time>
      </trkpt>
      <trkpt lat="48.76956" lon="1.99392">
        <ele>165.8</ele>
        <time>2024-04-15T08:14:51Z</time>
      </trkpt>
      <trkpt lat="48.76928" lon="1.99323">
        <ele>166</ele>
        <time>2024-04-15T08:14:55Z</time>
      </trkpt>
      <trkpt lat="48.76905" lon="1.99268">
        <ele>166</ele>
        <time>2024-04-15T08:14:58Z</time>
      </trkpt>
      <trkpt lat="48.76877" lon="1.99195">
        <ele>166.2</ele>
        <time>2024-04-15T08:15:02Z</time>
      </trkpt>
      <trkpt lat="48.76849" lon="1.99121">
        <ele>166.4</ele>
        <time>2024-04-15T08:15:06Z</time>
      </trkpt>
      <trkpt lat="48.76842" lon="1.99102">
        <ele>166.4</ele>
        <time>2024-04-15T08:15:07Z</time>
      </trkpt>
      <trkpt lat="48.76813" lon="1.99026">
        <ele>166.4</ele>
        <time>2024-04-15T08:15:11Z</time>
      </trkpt>
      <trkpt lat="48.76783" lon="1.9895">
        <ele>166.6</ele>
        <time>2024-04-15T08:15:15Z</time>
      </trkpt>
      <trkpt lat="48.76753" lon="1.98873">
        <ele>166.6</ele>
        <time>2024-04-15T08:15:19Z</time>
      </trkpt>
      <trkpt lat="48.76723" lon="1.98798">
        <ele>166.6</ele>
        <time>2024-04-15T08:15:23Z</time>
      </trkpt>
      <trkpt lat="48.76716" lon="1.9878">
        <ele>166.6</ele>
        <time>2024-04-15T08:15:24Z</time>
      </trkpt>
      <trkpt lat="48.76688" lon="1.98707">
        <ele>166.4</ele>
        <time>2024-04-15T08:15:28Z</time>
      </trkpt>
      <trkpt lat="48.76659" lon="1.98634">
        <ele>166.2</ele>
        <time>2024-04-15T08:15:32Z</time>
      </trkpt>
      <trkpt lat="48.76652" lon="1.98615">
        <ele>166.2</ele>
        <time>2024-04-15T08:15:33Z</time>
      </trkpt>
      <trkpt lat="48.76624" lon="1.98544">
        <ele>166</ele>
        <time>2024-04-15T08:15:37Z</time>
      </trkpt>
      <trkpt lat="48.76603" lon="1.98492">
        <ele>165.8</ele>
        <time>2024-04-15T08:15:40Z</time>
      </trkpt>
      <trkpt lat="48.7657" lon="1.98408">
        <ele>165.4</ele>
        <time>2024-04-15T08:15:45Z</time>
      </trkpt>
      <trkpt lat="48.76557" lon="1.98374">
        <ele>165.4</ele>
        <time>2024-04-15T08:15:47Z</time>
      </trkpt>
      <trkpt lat="48.76522" lon="1.98286">
        <ele>165</ele>
        <time>2024-04-15T08:15:52Z</time>
      </trkpt>
      <trkpt lat="48.76494" lon="1.98215">
        <ele>164.8</ele>
        <time>2024-04-15T08:15:56Z</time>
      </trkpt>
      <trkpt lat="48.76466" lon="1.98145">
        <ele>164.6</ele>
        <time>2024-04-15T08:16:00Z</time>
      </trkpt>
      <trkpt lat="48.76438" lon="1.98074">
        <ele>164.2</ele>
        <time>2024-04-15T08:16:04Z</time>
      </trkpt>
      <trkpt lat="48.7641" lon="1.98003">
        <ele>163.8</ele>
        <time>2024-04-15T08:16:08Z</time>
      </trkpt>
      <trkpt lat="48.76382" lon="1.97932">
        <ele>163.6</ele>
        <time>2024-04-15T08:16:12Z</time>
      </trkpt>
      <trkpt lat="48.76375" lon="1.97914">
        <ele>163.4</ele>
        <time>2024-04-15T08:16:13Z</time>
      </trkpt>
      <trkpt lat="48.7634" lon="1.97828">
        <ele>163</ele>
        <time>2024-04-15T08:16:18Z</time>
      </trkpt>
      <trkpt lat="48.76319" lon="1.97774">
        <ele>162.8</ele>
        <time>2024-04-15T08:16:21Z</time>
      </trkpt>
      <trkpt lat="48.76292" lon="1.97703">
        <ele>162.4</ele>
        <time>2024-04-15T08:16:25Z</time>
      </trkpt>
      <trkpt lat="48.76264" lon="1.97632">
        <ele>162.6</ele>
        <time>2024-04-15T08:16:29Z</time>
      </trkpt>
      <trkpt lat="48.76258" lon="1.97615">
        <ele>162.6</ele>
        <time>2024-04-15T08:16:30Z</time>
      </trkpt>
      <trkpt lat="48.76226" lon="1.97532">
        <ele>162.8</ele>
        <time>2024-04-15T08:16:35Z</time>
      </trkpt>
      <trkpt lat="48.76206" lon="1.97481">
        <ele>162</ele>
        <time>2024-04-15T08:16:38Z</time>
      </trkpt>
      <trkpt lat="48.76178" lon="1.9741">
        <ele>163</ele>
        <time>2024-04-15T08:16:42Z</time>
      </trkpt>
      <trkpt lat="48.76157" lon="1.97356">
        <ele>163.2</ele>
        <time>2024-04-15T08:16:45Z</time>
      </trkpt>
      <trkpt lat="48.76124" lon="1.9727">
        <ele>163</ele>
        <time>2024-04-15T08:16:50Z</time>
      </trkpt>
      <trkpt lat="48.76104" lon="1.9722">
        <ele>163.2</ele>
        <time>2024-04-15T08:16:53Z</time>
      </trkpt>
      <trkpt lat="48.76071" lon="1.97133">
        <ele>163.4</ele>
        <time>2024-04-15T08:16:58Z</time>
      </trkpt>
      <trkpt lat="48.76045" lon="1.97063">
        <ele>163.4</ele>
        <time>2024-04-15T08:17:02Z</time>
      </trkpt>
      <trkpt lat="48.76007" lon="1.96984">
        <ele>163.6</ele>
        <time>2024-04-15T08:17:07Z</time>
      </trkpt>
      <trkpt lat="48.7597" lon="1.96916">
        <ele>164</ele>
        <time>2024-04-15T08:17:12Z</time>
      </trkpt>
      <trkpt lat="48.75946" lon="1.96873">
        <ele>164</ele>
        <time>2024-04-15T08:17:17Z</time>
      </trkpt>
      <trkpt lat="48.75939" lon="1.96856">
        <ele>164</ele>
        <time>2024-04-15T08:17:18Z</time>
      </trkpt>
      <trkpt lat="48.75936" lon="1.96842">
        <ele>164.2</ele>
        <time>2024-04-15T08:17:20Z</time>
      </trkpt>
      <trkpt lat="48.75937" lon="1.96829">
        <ele>164.4</ele>
        <time>2024-04-15T08:17:23Z</time>
      </trkpt>
      <trkpt lat="48.75938" lon="1.96821">
        <ele>164.6</ele>
        <time>2024-04-15T08:17:27Z</time>
      </trkpt>
      <trkpt lat="48.75938" lon="1.96821">
        <ele>165</ele>
        <time>2024-04-15T08:17:40Z</time>
      </trkpt>
      <trkpt lat="48.75938" lon="1.96811">
        <ele>165.2</ele>
        <time>2024-04-15T08:17:46Z</time>
      </trkpt>
      <trkpt lat="48.75946" lon="1.96786">
        <ele>165.4</ele>
        <time>2024-04-15T08:17:50Z</time>
      </trkpt>
      <trkpt lat="48.75948" lon="1.96763">
        <ele>165.4</ele>
        <time>2024-04-15T08:17:54Z</time>
      </trkpt>
      <trkpt lat="48.75948" lon="1.96763">
        <ele>165.6</ele>
        <time>2024-04-15T08:17:58Z</time>
      </trkpt>
      <trkpt lat="48.75948" lon="1.96763">
        <ele>166</ele>
        <time>2024-04-15T08:18:18Z</time>
      </trkpt>
      <trkpt lat="48.75945" lon="1.96759">
        <ele>166.2</ele>
        <time>2024-04-15T08:18:21Z</time>
      </trkpt>
      <trkpt lat="48.7594" lon="1.96752">
        <ele>166.2</ele>
        <time>2024-04-15T08:18:22Z</time>
      </trkpt>
      <trkpt lat="48.75929" lon="1.96742">
        <ele>166.2</ele>
        <time>2024-04-15T08:18:24Z</time>
      </trkpt>
      <trkpt lat="48.75915" lon="1.96745">
        <ele>166.2</ele>
        <time>2024-04-15T08:18:26Z</time>
      </trkpt>
      <trkpt lat="48.75907" lon="1.96747">
        <ele>166.2</ele>
        <time>2024-04-15T08:18:27Z</time>
      </trkpt>
      <trkpt lat="48.75876" lon="1.96752">
        <ele>166.2</ele>
        <time>2024-04-15T08:18:30Z</time>
      </trkpt>
      <trkpt lat="48.75823" lon="1.96762">
        <ele>166.2</ele>
        <time>2024-04-15T08:18:35Z</time>
      </trkpt>
      <trkpt lat="48.75768" lon="1.96772">
        <ele>165.8</ele>
        <time>2024-04-15T08:18:40Z</time>
      </trkpt>
      <trkpt lat="48.75737" lon="1.96778">
        <ele>166</ele>
        <time>2024-04-15T08:18:43Z</time>
      </trkpt>
      <trkpt lat="48.75702" lon="1.96784">
        <ele>165.8</ele>
        <time>2024-04-15T08:18:47Z</time>
      </trkpt>
      <trkpt lat="48.75662" lon="1.96791">
        <ele>165.4</ele>
        <time>2024-04-15T08:18:53Z</time>
      </trkpt>
      <trkpt lat="48.75621" lon="1.96798">
        <ele>165</ele>
        <time>2024-04-15T08:19:00Z</time>
      </trkpt>
      <trkpt lat="48.75595" lon="1.96803">
        <ele>164.8</ele>
        <time>2024-04-15T08:19:04Z</time>
      </trkpt>
      <trkpt lat="48.75551" lon="1.9681">
        <ele>164.6</ele>
        <time>2024-04-15T08:19:08Z</time>
      </trkpt>
      <trkpt lat="48.75496" lon="1.96819">
        <ele>164.2</ele>
        <time>2024-04-15T08:19:12Z</time>
      </trkpt>
      <trkpt lat="48.75436" lon="1.96829">
        <ele>164</ele>
        <time>2024-04-15T08:19:16Z</time>
      </trkpt>
      <trkpt lat="48.7539" lon="1.96837">
        <ele>163.6</ele>
        <time>2024-04-15T08:19:19Z</time>
      </trkpt>
      <trkpt lat="48.75331" lon="1.96849">
        <ele>163.2</ele>
        <time>2024-04-15T08:19:23Z</time>
      </trkpt>
      <trkpt lat="48.75318" lon="1.96851">
        <ele>163.2</ele>
        <time>2024-04-15T08:19:24Z</time>
      </trkpt>
      <trkpt lat="48.75276" lon="1.96858">
        <ele>162.6</ele>
        <time>2024-04-15T08:19:28Z</time>
      </trkpt>
      <trkpt lat="48.75225" lon="1.96866">
        <ele>162.4</ele>
        <time>2024-04-15T08:19:33Z</time>
      </trkpt>
      <trkpt lat="48.75159" lon="1.96872">
        <ele>162.4</ele>
        <time>2024-04-15T08:19:38Z</time>
      </trkpt>
      <trkpt lat="48.75104" lon="1.96865">
        <ele>162.2</ele>
        <time>2024-04-15T08:19:42Z</time>
      </trkpt>
      <trkpt lat="48.75091" lon="1.96864">
        <ele>162.2</ele>
        <time>2024-04-15T08:19:43Z</time>
      </trkpt>
      <trkpt lat="48.75041" lon="1.96836">
        <ele>162.4</ele>
        <time>2024-04-15T08:19:47Z</time>
      </trkpt>
      <trkpt lat="48.75019" lon="1.96818">
        <ele>162.4</ele>
        <time>2024-04-15T08:19:49Z</time>
      </trkpt>
      <trkpt lat="48.75009" lon="1.9681">
        <ele>162.4</ele>
        <time>2024-04-15T08:19:50Z</time>
      </trkpt>
      <trkpt lat="48.74967" lon="1.96767">
        <ele>162.2</ele>
        <time>2024-04-15T08:19:55Z</time>
      </trkpt>
      <trkpt lat="48.74942" lon="1.96742">
        <ele>162</ele>
        <time>2024-04-15T08:19:59Z</time>
      </trkpt>
      <trkpt lat="48.74908" lon="1.96708">
        <ele>162.2</ele>
        <time>2024-04-15T08:20:03Z</time>
      </trkpt>
      <trkpt lat="48.74856" lon="1.96658">
        <ele>162.4</ele>
        <time>2024-04-15T08:20:08Z</time>
      </trkpt>
      <trkpt lat="48.74846" lon="1.96648">
        <ele>162.4</ele>
        <time>2024-04-15T08:20:09Z</time>
      </trkpt>
      <trkpt lat="48.74793" lon="1.96596">
        <ele>162.4</ele>
        <time>2024-04-15T08:20:14Z</time>
      </trkpt>
      <trkpt lat="48.74764" lon="1.96568">
        <ele>162.6</ele>
        <time>2024-04-15T08:20:17Z</time>
      </trkpt>
      <trkpt lat="48.74723" lon="1.96528">
        <ele>162.6</ele>
        <time>2024-04-15T08:20:22Z</time>
      </trkpt>
      <trkpt lat="48.74671" lon="1.96476">
        <ele>162.8</ele>
        <time>2024-04-15T08:20:29Z</time>
      </trkpt>
      <trkpt lat="48.74641" lon="1.96445">
        <ele>162.8</ele>
        <time>2024-04-15T08:20:33Z</time>
      </trkpt>
      <trkpt lat="48.746" lon="1.96404">
        <ele>163.2</ele>
        <time>2024-04-15T08:20:39Z</time>
      </trkpt>
      <trkpt lat="48.74559" lon="1.96364">
        <ele>163.6</ele>
        <time>2024-04-15T08:20:46Z</time>
      </trkpt>
      <trkpt lat="48.74509" lon="1.96318">
        <ele>164</ele>
        <time>2024-04-15T08:20:54Z</time>
      </trkpt>
      <trkpt lat="48.74495" lon="1.96305">
        <ele>164</ele>
        <time>2024-04-15T08:20:56Z</time>
      </trkpt>
      <trkpt lat="48.74468" lon="1.9628">
        <ele>164.2</ele>
        <time>2024-04-15T08:21:00Z</time>
      </trkpt>
      <trkpt lat="48.74462" lon="1.96279">
        <ele>164.2</ele>
        <time>2024-04-15T08:21:01Z</time>
      </trkpt>
      <trkpt lat="48.74454" lon="1.9628">
        <ele>164.2</ele>
        <time>2024-04-15T08:21:02Z</time>
      </trkpt>
      <trkpt lat="48.7444" lon="1.96288">
        <ele>164.4</ele>
        <time>2024-04-15T08:21:04Z</time>
      </trkpt>
      <trkpt lat="48.74388" lon="1.9633">
        <ele>164.8</ele>
        <time>2024-04-15T08:21:11Z</time>
      </trkpt>
      <trkpt lat="48.74338" lon="1.96367">
        <ele>165</ele>
        <time>2024-04-15T08:21:18Z</time>
      </trkpt>
      <trkpt lat="48.74325" lon="1.9637">
        <ele>165.2</ele>
        <time>2024-04-15T08:21:20Z</time>
      </trkpt>
      <trkpt lat="48.74311" lon="1.96366">
        <ele>165.2</ele>
        <time>2024-04-15T08:21:22Z</time>
      </trkpt>
      <trkpt lat="48.74289" lon="1.9636">
        <ele>165.4</ele>
        <time>2024-04-15T08:21:26Z</time>
      </trkpt>
      <trkpt lat="48.74283" lon="1.96358">
        <ele>165.4</ele>
        <time>2024-04-15T08:21:29Z</time>
      </trkpt>
      <trkpt lat="48.74283" lon="1.96358">
        <ele>165.6</ele>
        <time>2024-04-15T08:21:35Z</time>
      </trkpt>
      <trkpt lat="48.74281" lon="1.96352">
        <ele>165.8</ele>
        <time>2024-04-15T08:21:36Z</time>
      </trkpt>
      <trkpt lat="48.74283" lon="1.96344">
        <ele>165.8</ele>
        <time>2024-04-15T08:21:38Z</time>
      </trkpt>
      <trkpt lat="48.74285" lon="1.96338">
        <ele>165.8</ele>
        <time>2024-04-15T08:21:39Z</time>
      </trkpt>
      <trkpt lat="48.74292" lon="1.96314">
        <ele>166</ele>
        <time>2024-04-15T08:21:42Z</time>
      </trkpt>
      <trkpt lat="48.74299" lon="1.96288">
        <ele>166</ele>
        <time>2024-04-15T08:21:45Z</time>
      </trkpt>
      <trkpt lat="48.74299" lon="1.9627">
        <ele>166.2</ele>
        <time>2024-04-15T08:21:47Z</time>
      </trkpt>
      <trkpt lat="48.74296" lon="1.96251">
        <ele>166.2</ele>
        <time>2024-04-15T08:21:49Z</time>
      </trkpt>
      <trkpt lat="48.74295" lon="1.9624">
        <ele>166.2</ele>
        <time>2024-04-15T08:21:50Z</time>
      </trkpt>
      <trkpt lat="48.74289" lon="1.96198">
        <ele>166.4</ele>
        <time>2024-04-15T08:21:55Z</time>
      </trkpt>
      <trkpt lat="48.74284" lon="1.96183">
        <ele>166.6</ele>
        <time>2024-04-15T08:21:59Z</time>
      </trkpt>
      <trkpt lat="48.74272" lon="1.96169">
        <ele>166.6</ele>
        <time>2024-04-15T08:22:04Z</time>
      </trkpt>
      <trkpt lat="48.74262" lon="1.96161">
        <ele>166.6</ele>
        <time>2024-04-15T08:22:10Z</time>
      </trkpt>
      <trkpt lat="48.74252" lon="1.96153">
        <ele>166.8</ele>
        <time>2024-04-15T08:22:16Z</time>
      </trkpt>
      <trkpt lat="48.7425" lon="1.96152">
        <ele>166.6</ele>
        <time>2024-04-15T08:22:22Z</time>
      </trkpt>
      <trkpt lat="48.74238" lon="1.96164">
        <ele>166.8</ele>
        <time>2024-04-15T08:22:26Z</time>
      </trkpt>
      <trkpt lat="48.74235" lon="1.96177">
        <ele>166.8</ele>
        <time>2024-04-15T08:22:31Z</time>
      </trkpt>
      <trkpt lat="48.74233" lon="1.96182">
        <ele>166.8</ele>
        <time>2024-04-15T08:22:38Z</time>
      </trkpt>
      <trkpt lat="48.74229" lon="1.96197">
        <ele>166.8</ele>
        <time>2024-04-15T08:22:41Z</time>
      </trkpt>
      <trkpt lat="48.74218" lon="1.96232">
        <ele>166.8</ele>
        <time>2024-04-15T08:22:45Z</time>
      </trkpt>
      <trkpt lat="48.74196" lon="1.9631">
        <ele>166.6</ele>
        <time>2024-04-15T08:22:52Z</time>
      </trkpt>
      <trkpt lat="48.74178" lon="1.9637">
        <ele>166.8</ele>
        <time>2024-04-15T08:22:58Z</time>
      </trkpt>
      <trkpt lat="48.74169" lon="1.96388">
        <ele>166.8</ele>
        <time>2024-04-15T08:23:01Z</time>
      </trkpt>
      <trkpt lat="48.74158" lon="1.96385">
        <ele>166.8</ele>
        <time>2024-04-15T08:23:04Z</time>
      </trkpt>
      <trkpt lat="48.74152" lon="1.96384">
        <ele>166.8</ele>
        <time>2024-04-15T08:23:05Z</time>
      </trkpt>
      <trkpt lat="48.74131" lon="1.96376">
        <ele>166.6</ele>
        <time>2024-04-15T08:23:08Z</time>
      </trkpt>
      <trkpt lat="48.74109" lon="1.96355">
        <ele>166.2</ele>
        <time>2024-04-15T08:23:11Z</time>
      </trkpt>
      <trkpt lat="48.7407" lon="1.96306">
        <ele>166</ele>
        <time>2024-04-15T08:23:16Z</time>
      </trkpt>
      <trkpt lat="48.74032" lon="1.96246">
        <ele>165.8</ele>
        <time>2024-04-15T08:23:21Z</time>
      </trkpt>
      <trkpt lat="48.74" lon="1.96197">
        <ele>165.6</ele>
        <time>2024-04-15T08:23:25Z</time>
      </trkpt>
      <trkpt lat="48.73962" lon="1.96146">
        <ele>165.8</ele>
        <time>2024-04-15T08:23:30Z</time>
      </trkpt>
      <trkpt lat="48.73926" lon="1.96106">
        <ele>165.8</ele>
        <time>2024-04-15T08:23:35Z</time>
      </trkpt>
      <trkpt lat="48.73882" lon="1.96058">
        <ele>166.2</ele>
        <time>2024-04-15T08:23:40Z</time>
      </trkpt>
      <trkpt lat="48.73836" lon="1.95999">
        <ele>166.4</ele>
        <time>2024-04-15T08:23:46Z</time>
      </trkpt>
      <trkpt lat="48.7382" lon="1.95979">
        <ele>166.6</ele>
        <time>2024-04-15T08:23:48Z</time>
      </trkpt>
      <trkpt lat="48.73777" lon="1.95926">
        <ele>166.8</ele>
        <time>2024-04-15T08:23:53Z</time>
      </trkpt>
      <trkpt lat="48.7375" lon="1.95892">
        <ele>167</ele>
        <time>2024-04-15T08:23:56Z</time>
      </trkpt>
      <trkpt lat="48.73703" lon="1.95837">
        <ele>167.4</ele>
        <time>2024-04-15T08:24:01Z</time>
      </trkpt>
      <trkpt lat="48.73692" lon="1.95827">
        <ele>167.4</ele>
        <time>2024-04-15T08:24:02Z</time>
      </trkpt>
      <trkpt lat="48.73635" lon="1.95779">
        <ele>167.4</ele>
        <time>2024-04-15T08:24:07Z</time>
      </trkpt>
      <trkpt lat="48.73623" lon="1.9577">
        <ele>167.4</ele>
        <time>2024-04-15T08:24:08Z</time>
      </trkpt>
      <trkpt lat="48.73566" lon="1.95724">
        <ele>167.6</ele>
        <time>2024-04-15T08:24:13Z</time>
      </trkpt>
      <trkpt lat="48.73534" lon="1.95698">
        <ele>167.8</ele>
        <time>2024-04-15T08:24:16Z</time>
      </trkpt>
      <trkpt lat="48.73523" lon="1.95693">
        <ele>167.8</ele>
        <time>2024-04-15T08:24:17Z</time>
      </trkpt>
      <trkpt lat="48.73502" lon="1.95692">
        <ele>167.8</ele>
        <time>2024-04-15T08:24:19Z</time>
      </trkpt>
      <trkpt lat="48.73479" lon="1.95697">
        <ele>167.8</ele>
        <time>2024-04-15T08:24:21Z</time>
      </trkpt>
      <trkpt lat="48.73469" lon="1.95705">
        <ele>167.8</ele>
        <time>2024-04-15T08:24:22Z</time>
      </trkpt>
      <trkpt lat="48.73408" lon="1.95746">
        <ele>168</ele>
        <time>2024-04-15T08:24:27Z</time>
      </trkpt>
      <trkpt lat="48.73345" lon="1.95783">
        <ele>168</ele>
        <time>2024-04-15T08:24:32Z</time>
      </trkpt>
      <trkpt lat="48.73332" lon="1.95789">
        <ele>168</ele>
        <time>2024-04-15T08:24:33Z</time>
      </trkpt>
      <trkpt lat="48.73304" lon="1.95793">
        <ele>168.2</ele>
        <time>2024-04-15T08:24:35Z</time>
      </trkpt>
      <trkpt lat="48.73289" lon="1.95795">
        <ele>168.2</ele>
        <time>2024-04-15T08:24:36Z</time>
      </trkpt>
      <trkpt lat="48.73229" lon="1.95802">
        <ele>168</ele>
        <time>2024-04-15T08:24:40Z</time>
      </trkpt>
      <trkpt lat="48.73168" lon="1.95809">
        <ele>168.2</ele>
        <time>2024-04-15T08:24:44Z</time>
      </trkpt>
      <trkpt lat="48.73108" lon="1.95815">
        <ele>167.8</ele>
        <time>2024-04-15T08:24:48Z</time>
      </trkpt>
      <trkpt lat="48.7308" lon="1.95819">
        <ele>167.6</ele>
        <time>2024-04-15T08:24:50Z</time>
      </trkpt>
      <trkpt lat="48.73014" lon="1.95826">
        <ele>167.4</ele>
        <time>2024-04-15T08:24:55Z</time>
      </trkpt>
      <trkpt lat="48.73001" lon="1.95827">
        <ele>167.4</ele>
        <time>2024-04-15T08:24:56Z</time>
      </trkpt>
      <trkpt lat="48.72954" lon="1.95824">
        <ele>167</ele>
        <time>2024-04-15T08:25:00Z</time>
      </trkpt>
      <trkpt lat="48.7292" lon="1.95808">
        <ele>166.6</ele>
        <time>2024-04-15T08:25:03Z</time>
      </trkpt>
      <trkpt lat="48.72909" lon="1.958">
        <ele>166.4</ele>
        <time>2024-04-15T08:25:04Z</time>
      </trkpt>
      <trkpt lat="48.72851" lon="1.95773">
        <ele>165.2</ele>
        <time>2024-04-15T08:25:09Z</time>
      </trkpt>
      <trkpt lat="48.72819" lon="1.95765">
        <ele>164.4</ele>
        <time>2024-04-15T08:25:12Z</time>
      </trkpt>
      <trkpt lat="48.72805" lon="1.95746">
        <ele>163.6</ele>
        <time>2024-04-15T08:25:14Z</time>
      </trkpt>
      <trkpt lat="48.72801" lon="1.95736">
        <ele>163.2</ele>
        <time>2024-04-15T08:25:15Z</time>
      </trkpt>
      <trkpt lat="48.72801" lon="1.95736">
        <ele>163</ele>
        <time>2024-04-15T08:25:16Z</time>
      </trkpt>
      <trkpt lat="48.72797" lon="1.95691">
        <ele>162.2</ele>
        <time>2024-04-15T08:25:18Z</time>
      </trkpt>
      <trkpt lat="48.72797" lon="1.95691">
        <ele>161.8</ele>
        <time>2024-04-15T08:25:19Z</time>
      </trkpt>
      <trkpt lat="48.72783" lon="1.9567">
        <ele>161</ele>
        <time>2024-04-15T08:25:21Z</time>
      </trkpt>
      <trkpt lat="48.72766" lon="1.95669">
        <ele>160.4</ele>
        <time>2024-04-15T08:25:23Z</time>
      </trkpt>
      <trkpt lat="48.72761" lon="1.95668">
        <ele>159.2</ele>
        <time>2024-04-15T08:25:26Z</time>
      </trkpt>
      <trkpt lat="48.72722" lon="1.95705">
        <ele>158.6</ele>
        <time>2024-04-15T08:25:28Z</time>
      </trkpt>
      <trkpt lat="48.72722" lon="1.95705">
        <ele>158.2</ele>
        <time>2024-04-15T08:25:29Z</time>
      </trkpt>
      <trkpt lat="48.72722" lon="1.95705">
        <ele>157.6</ele>
        <time>2024-04-15T08:25:30Z</time>
      </trkpt>
      <trkpt lat="48.72722" lon="1.95705">
        <ele>157.2</ele>
        <time>2024-04-15T08:25:31Z</time>
      </trkpt>
      <trkpt lat="48.72688" lon="1.95667">
        <ele>156.2</ele>
        <time>2024-04-15T08:25:33Z</time>
      </trkpt>
      <trkpt lat="48.72685" lon="1.95653">
        <ele>155.6</ele>
        <time>2024-04-15T08:25:34Z</time>
      </trkpt>
      <trkpt lat="48.72677" lon="1.95624">
        <ele>154.4</ele>
        <time>2024-04-15T08:25:36Z</time>
      </trkpt>
      <trkpt lat="48.72664" lon="1.95617">
        <ele>153.2</ele>
        <time>2024-04-15T08:25:38Z</time>
      </trkpt>
      <trkpt lat="48.72657" lon="1.9562">
        <ele>152.6</ele>
        <time>2024-04-15T08:25:39Z</time>
      </trkpt>
      <trkpt lat="48.72638" lon="1.95627">
        <ele>151.8</ele>
        <time>2024-04-15T08:25:41Z</time>
      </trkpt>
      <trkpt lat="48.72616" lon="1.95629">
        <ele>151</ele>
        <time>2024-04-15T08:25:43Z</time>
      </trkpt>
      <trkpt lat="48.72606" lon="1.95626">
        <ele>150.6</ele>
        <time>2024-04-15T08:25:44Z</time>
      </trkpt>
      <trkpt lat="48.72595" lon="1.95614">
        <ele>150</ele>
        <time>2024-04-15T08:25:46Z</time>
      </trkpt>
      <trkpt lat="48.72585" lon="1.956">
        <ele>149.4</ele>
        <time>2024-04-15T08:25:48Z</time>
      </trkpt>
      <trkpt lat="48.72578" lon="1.95574">
        <ele>148.6</ele>
        <time>2024-04-15T08:25:50Z</time>
      </trkpt>
      <trkpt lat="48.7257" lon="1.95545">
        <ele>148</ele>
        <time>2024-04-15T08:25:52Z</time>
      </trkpt>
      <trkpt lat="48.72546" lon="1.95532">
        <ele>147</ele>
        <time>2024-04-15T08:25:55Z</time>
      </trkpt>
      <trkpt lat="48.72527" lon="1.9554">
        <ele>146.2</ele>
        <time>2024-04-15T08:25:57Z</time>
      </trkpt>
      <trkpt lat="48.72515" lon="1.95548">
        <ele>146</ele>
        <time>2024-04-15T08:25:58Z</time>
      </trkpt>
      <trkpt lat="48.72454" lon="1.95588">
        <ele>144</ele>
        <time>2024-04-15T08:26:03Z</time>
      </trkpt>
      <trkpt lat="48.72422" lon="1.95609">
        <ele>143.2</ele>
        <time>2024-04-15T08:26:06Z</time>
      </trkpt>
      <trkpt lat="48.724" lon="1.95624">
        <ele>142.2</ele>
        <time>2024-04-15T08:26:09Z</time>
      </trkpt>
      <trkpt lat="48.72391" lon="1.95632">
        <ele>141.6</ele>
        <time>2024-04-15T08:26:11Z</time>
      </trkpt>
      <trkpt lat="48.7238" lon="1.95642">
        <ele>140.8</ele>
        <time>2024-04-15T08:26:14Z</time>
      </trkpt>
      <trkpt lat="48.72361" lon="1.95673">
        <ele>139.2</ele>
        <time>2024-04-15T08:26:19Z</time>
      </trkpt>
      <trkpt lat="48.72326" lon="1.95728">
        <ele>137</ele>
        <time>2024-04-15T08:26:26Z</time>
      </trkpt>
      <trkpt lat="48.72321" lon="1.95735">
        <ele>136.8</ele>
        <time>2024-04-15T08:26:27Z</time>
      </trkpt>
      <trkpt lat="48.72306" lon="1.95742">
        <ele>136.2</ele>
        <time>2024-04-15T08:26:29Z</time>
      </trkpt>
      <trkpt lat="48.72266" lon="1.95752">
        <ele>134.8</ele>
        <time>2024-04-15T08:26:34Z</time>
      </trkpt>
      <trkpt lat="48.72207" lon="1.95766">
        <ele>132.4</ele>
        <time>2024-04-15T08:26:41Z</time>
      </trkpt>
      <trkpt lat="48.72198" lon="1.95768">
        <ele>132.2</ele>
        <time>2024-04-15T08:26:42Z</time>
      </trkpt>
      <trkpt lat="48.72144" lon="1.95781">
        <ele>130.4</ele>
        <time>2024-04-15T08:26:49Z</time>
      </trkpt>
      <trkpt lat="48.72116" lon="1.9579">
        <ele>129.2</ele>
        <time>2024-04-15T08:26:54Z</time>
      </trkpt>
      <trkpt lat="48.72104" lon="1.95794">
        <ele>128.8</ele>
        <time>2024-04-15T08:26:56Z</time>
      </trkpt>
      <trkpt lat="48.7209" lon="1.95798">
        <ele>128.4</ele>
        <time>2024-04-15T08:26:58Z</time>
      </trkpt>
      <trkpt lat="48.72053" lon="1.95832">
        <ele>127.4</ele>
        <time>2024-04-15T08:27:03Z</time>
      </trkpt>
      <trkpt lat="48.72016" lon="1.95868">
        <ele>126.6</ele>
        <time>2024-04-15T08:27:08Z</time>
      </trkpt>
      <trkpt lat="48.72007" lon="1.95874">
        <ele>126.6</ele>
        <time>2024-04-15T08:27:09Z</time>
      </trkpt>
      <trkpt lat="48.7199" lon="1.95887">
        <ele>126.2</ele>
        <time>2024-04-15T08:27:11Z</time>
      </trkpt>
      <trkpt lat="48.71971" lon="1.95884">
        <ele>126</ele>
        <time>2024-04-15T08:27:13Z</time>
      </trkpt>
      <trkpt lat="48.71961" lon="1.95878">
        <ele>125.8</ele>
        <time>2024-04-15T08:27:14Z</time>
      </trkpt>
      <trkpt lat="48.7195" lon="1.95872">
        <ele>125.6</ele>
        <time>2024-04-15T08:27:15Z</time>
      </trkpt>
      <trkpt lat="48.71928" lon="1.95858">
        <ele>125</ele>
        <time>2024-04-15T08:27:17Z</time>
      </trkpt>
      <trkpt lat="48.71863" lon="1.95819">
        <ele>123.8</ele>
        <time>2024-04-15T08:27:23Z</time>
      </trkpt>
      <trkpt lat="48.71787" lon="1.95864">
        <ele>122.8</ele>
        <time>2024-04-15T08:27:33Z</time>
      </trkpt>
      <trkpt lat="48.71637" lon="1.96246">
        <ele>122.2</ele>
        <time>2024-04-15T08:27:59Z</time>
      </trkpt>
      <trkpt lat="48.71502" lon="1.96701">
        <ele>121.6</ele>
        <time>2024-04-15T08:28:36Z</time>
      </trkpt>
      <trkpt lat="48.71477" lon="1.96784">
        <ele>120.8</ele>
        <time>2024-04-15T08:28:59Z</time>
      </trkpt>
      <trkpt lat="48.71452" lon="1.96896">
        <ele>120.8</ele>
        <time>2024-04-15T08:29:12Z</time>
      </trkpt>
      <trkpt lat="48.71426" lon="1.96978">
        <ele>120.6</ele>
        <time>2024-04-15T08:29:20Z</time>
      </trkpt>
      <trkpt lat="48.71409" lon="1.97023">
        <ele>120.2</ele>
        <time>2024-04-15T08:29:23Z</time>
      </trkpt>
      <trkpt lat="48.71381" lon="1.97094">
        <ele>120</ele>
        <time>2024-04-15T08:29:27Z</time>
      </trkpt>
      <trkpt lat="48.71375" lon="1.97112">
        <ele>119.8</ele>
        <time>2024-04-15T08:29:28Z</time>
      </trkpt>
      <trkpt lat="48.7135" lon="1.97188">
        <ele>119.4</ele>
        <time>2024-04-15T08:29:32Z</time>
      </trkpt>
      <trkpt lat="48.71332" lon="1.97243">
        <ele>119.2</ele>
        <time>2024-04-15T08:29:35Z</time>
      </trkpt>
      <trkpt lat="48.713" lon="1.97311">
        <ele>118.4</ele>
        <time>2024-04-15T08:29:39Z</time>
      </trkpt>
      <trkpt lat="48.71263" lon="1.97379">
        <ele>118</ele>
        <time>2024-04-15T08:29:43Z</time>
      </trkpt>
      <trkpt lat="48.71232" lon="1.97446">
        <ele>117.6</ele>
        <time>2024-04-15T08:29:47Z</time>
      </trkpt>
      <trkpt lat="48.71206" lon="1.97519">
        <ele>117.2</ele>
        <time>2024-04-15T08:29:51Z</time>
      </trkpt>
      <trkpt lat="48.71192" lon="1.97552">
        <ele>117</ele>
        <time>2024-04-15T08:29:53Z</time>
      </trkpt>
      <trkpt lat="48.71182" lon="1.97565">
        <ele>117</ele>
        <time>2024-04-15T08:29:54Z</time>
      </trkpt>
      <trkpt lat="48.71141" lon="1.97617">
        <ele>116.4</ele>
        <time>2024-04-15T08:29:58Z</time>
      </trkpt>
      <trkpt lat="48.7109" lon="1.97681">
        <ele>116</ele>
        <time>2024-04-15T08:30:03Z</time>
      </trkpt>
      <trkpt lat="48.71073" lon="1.97712">
        <ele>115.8</ele>
        <time>2024-04-15T08:30:05Z</time>
      </trkpt>
      <trkpt lat="48.71037" lon="1.97775">
        <ele>115.2</ele>
        <time>2024-04-15T08:30:09Z</time>
      </trkpt>
      <trkpt lat="48.7103" lon="1.97794">
        <ele>115</ele>
        <time>2024-04-15T08:30:10Z</time>
      </trkpt>
      <trkpt lat="48.71018" lon="1.97854">
        <ele>114.6</ele>
        <time>2024-04-15T08:30:13Z</time>
      </trkpt>
      <trkpt lat="48.71019" lon="1.97872">
        <ele>114.4</ele>
        <time>2024-04-15T08:30:14Z</time>
      </trkpt>
      <trkpt lat="48.7102" lon="1.97892">
        <ele>114.4</ele>
        <time>2024-04-15T08:30:15Z</time>
      </trkpt>
      <trkpt lat="48.71022" lon="1.97931">
        <ele>114.2</ele>
        <time>2024-04-15T08:30:17Z</time>
      </trkpt>
      <trkpt lat="48.71019" lon="1.97985">
        <ele>113.8</ele>
        <time>2024-04-15T08:30:20Z</time>
      </trkpt>
      <trkpt lat="48.71017" lon="1.98002">
        <ele>113.8</ele>
        <time>2024-04-15T08:30:21Z</time>
      </trkpt>
      <trkpt lat="48.71011" lon="1.98016">
        <ele>113.6</ele>
        <time>2024-04-15T08:30:22Z</time>
      </trkpt>
      <trkpt lat="48.71" lon="1.98045">
        <ele>113.4</ele>
        <time>2024-04-15T08:30:24Z</time>
      </trkpt>
      <trkpt lat="48.70969" lon="1.98124">
        <ele>113</ele>
        <time>2024-04-15T08:30:29Z</time>
      </trkpt>
      <trkpt lat="48.70942" lon="1.98195">
        <ele>112.6</ele>
        <time>2024-04-15T08:30:33Z</time>
      </trkpt>
      <trkpt lat="48.70928" lon="1.9823">
        <ele>112.6</ele>
        <time>2024-04-15T08:30:35Z</time>
      </trkpt>
      <trkpt lat="48.70897" lon="1.98307">
        <ele>112.2</ele>
        <time>2024-04-15T08:30:40Z</time>
      </trkpt>
      <trkpt lat="48.70884" lon="1.98343">
        <ele>112</ele>
        <time>2024-04-15T08:30:43Z</time>
      </trkpt>
      <trkpt lat="48.70877" lon="1.98359">
        <ele>112</ele>
        <time>2024-04-15T08:30:45Z</time>
      </trkpt>
      <trkpt lat="48.70876" lon="1.98364">
        <ele>112</ele>
        <time>2024-04-15T08:30:46Z</time>
      </trkpt>
      <trkpt lat="48.70871" lon="1.98369">
        <ele>111.8</ele>
        <time>2024-04-15T08:30:47Z</time>
      </trkpt>
      <trkpt lat="48.70869" lon="1.98366">
        <ele>111.8</ele>
        <time>2024-04-15T08:30:49Z</time>
      </trkpt>
      <trkpt lat="48.70869" lon="1.98358">
        <ele>111.6</ele>
        <time>2024-04-15T08:30:52Z</time>
      </trkpt>
      <trkpt lat="48.70869" lon="1.98354">
        <ele>111.6</ele>
        <time>2024-04-15T08:30:53Z</time>
      </trkpt>
      <trkpt lat="48.70875" lon="1.98326">
        <ele>111.4</ele>
        <time>2024-04-15T08:30:58Z</time>
      </trkpt>
      <trkpt lat="48.70877" lon="1.98317">
        <ele>111.4</ele>
        <time>2024-04-15T08:31:01Z</time>
      </trkpt>
      <trkpt lat="48.70877" lon="1.98315">
        <ele>111.2</ele>
        <time>2024-04-15T08:31:03Z</time>
      </trkpt>
      <trkpt lat="48.70877" lon="1.98315">
        <ele>111</ele>
        <time>2024-04-15T08:31:11Z</time>
      </trkpt>
      <trkpt lat="48.70879" lon="1.98308">
        <ele>111</ele>
        <time>2024-04-15T08:31:15Z</time>
      </trkpt>
      <trkpt lat="48.7088" lon="1.98304">
        <ele>111</ele>
        <time>2024-04-15T08:31:16Z</time>
      </trkpt>
      <trkpt lat="48.70884" lon="1.98286">
        <ele>111</ele>
        <time>2024-04-15T08:31:19Z</time>
      </trkpt>
      <trkpt lat="48.70886" lon="1.98277">
        <ele>111</ele>
        <time>2024-04-15T08:31:20Z</time>
      </trkpt>
      <trkpt lat="48.70895" lon="1.98241">
        <ele>111.2</ele>
        <time>2024-04-15T08:31:23Z</time>
      </trkpt>
      <trkpt lat="48.7091" lon="1.98179">
        <ele>111.4</ele>
        <time>2024-04-15T08:31:27Z</time>
      </trkpt>
      <trkpt lat="48.70926" lon="1.98106">
        <ele>111.4</ele>
        <time>2024-04-15T08:31:31Z</time>
      </trkpt>
      <trkpt lat="48.70937" lon="1.98033">
        <ele>111.6</ele>
        <time>2024-04-15T08:31:35Z</time>
      </trkpt>
      <trkpt lat="48.70937" lon="1.97997">
        <ele>111.6</ele>
        <time>2024-04-15T08:31:37Z</time>
      </trkpt>
      <trkpt lat="48.70937" lon="1.9798">
        <ele>111.8</ele>
        <time>2024-04-15T08:31:38Z</time>
      </trkpt>
      <trkpt lat="48.70932" lon="1.97967">
        <ele>112</ele>
        <time>2024-04-15T08:31:39Z</time>
      </trkpt>
      <trkpt lat="48.70921" lon="1.97937">
        <ele>112.2</ele>
        <time>2024-04-15T08:31:41Z</time>
      </trkpt>
      <trkpt lat="48.70895" lon="1.97897">
        <ele>112.4</ele>
        <time>2024-04-15T08:31:44Z</time>
      </trkpt>
      <trkpt lat="48.70854" lon="1.9784">
        <ele>112.8</ele>
        <time>2024-04-15T08:31:48Z</time>
      </trkpt>
      <trkpt lat="48.70828" lon="1.97793">
        <ele>113.4</ele>
        <time>2024-04-15T08:31:51Z</time>
      </trkpt>
      <trkpt lat="48.70813" lon="1.97761">
        <ele>113.8</ele>
        <time>2024-04-15T08:31:53Z</time>
      </trkpt>
      <trkpt lat="48.70798" lon="1.97726">
        <ele>114.4</ele>
        <time>2024-04-15T08:31:55Z</time>
      </trkpt>
      <trkpt lat="48.70766" lon="1.97651">
        <ele>115.6</ele>
        <time>2024-04-15T08:31:59Z</time>
      </trkpt>
      <trkpt lat="48.70757" lon="1.97632">
        <ele>116</ele>
        <time>2024-04-15T08:32:00Z</time>
      </trkpt>
      <trkpt lat="48.70726" lon="1.97557">
        <ele>117.2</ele>
        <time>2024-04-15T08:32:04Z</time>
      </trkpt>
      <trkpt lat="48.70718" lon="1.9754">
        <ele>117.6</ele>
        <time>2024-04-15T08:32:05Z</time>
      </trkpt>
      <trkpt lat="48.70692" lon="1.97478">
        <ele>118.8</ele>
        <time>2024-04-15T08:32:09Z</time>
      </trkpt>
      <trkpt lat="48.70677" lon="1.97443">
        <ele>120</ele>
        <time>2024-04-15T08:32:12Z</time>
      </trkpt>
      <trkpt lat="48.70664" lon="1.97411">
        <ele>121.6</ele>
        <time>2024-04-15T08:32:16Z</time>
      </trkpt>
      <trkpt lat="48.70647" lon="1.97369">
        <ele>123</ele>
        <time>2024-04-15T08:32:20Z</time>
      </trkpt>
      <trkpt lat="48.70624" lon="1.97312">
        <ele>124.8</ele>
        <time>2024-04-15T08:32:24Z</time>
      </trkpt>
      <trkpt lat="48.70591" lon="1.97231">
        <ele>127</ele>
        <time>2024-04-15T08:32:29Z</time>
      </trkpt>
      <trkpt lat="48.70584" lon="1.97214">
        <ele>127.4</ele>
        <time>2024-04-15T08:32:30Z</time>
      </trkpt>
      <trkpt lat="48.70556" lon="1.97144">
        <ele>129.2</ele>
        <time>2024-04-15T08:32:34Z</time>
      </trkpt>
      <trkpt lat="48.70541" lon="1.97107">
        <ele>130</ele>
        <time>2024-04-15T08:32:36Z</time>
      </trkpt>
      <trkpt lat="48.70519" lon="1.97025">
        <ele>131.8</ele>
        <time>2024-04-15T08:32:40Z</time>
      </trkpt>
      <trkpt lat="48.70501" lon="1.96936">
        <ele>133.4</ele>
        <time>2024-04-15T08:32:44Z</time>
      </trkpt>
      <trkpt lat="48.70486" lon="1.96846">
        <ele>135</ele>
        <time>2024-04-15T08:32:48Z</time>
      </trkpt>
      <trkpt lat="48.70484" lon="1.96821">
        <ele>135.4</ele>
        <time>2024-04-15T08:32:49Z</time>
      </trkpt>
      <trkpt lat="48.70477" lon="1.96723">
        <ele>137</ele>
        <time>2024-04-15T08:32:53Z</time>
      </trkpt>
      <trkpt lat="48.7047" lon="1.96625">
        <ele>138.6</ele>
        <time>2024-04-15T08:32:57Z</time>
      </trkpt>
      <trkpt lat="48.70463" lon="1.96533">
        <ele>140</ele>
        <time>2024-04-15T08:33:01Z</time>
      </trkpt>
      <trkpt lat="48.70461" lon="1.9651">
        <ele>140.4</ele>
        <time>2024-04-15T08:33:02Z</time>
      </trkpt>
      <trkpt lat="48.70459" lon="1.96424">
        <ele>142</ele>
        <time>2024-04-15T08:33:06Z</time>
      </trkpt>
      <trkpt lat="48.70459" lon="1.96379">
        <ele>142.8</ele>
        <time>2024-04-15T08:33:08Z</time>
      </trkpt>
      <trkpt lat="48.70469" lon="1.96291">
        <ele>144.2</ele>
        <time>2024-04-15T08:33:12Z</time>
      </trkpt>
      <trkpt lat="48.70483" lon="1.96197">
        <ele>145.6</ele>
        <time>2024-04-15T08:33:16Z</time>
      </trkpt>
      <trkpt lat="48.70491" lon="1.9615">
        <ele>146.2</ele>
        <time>2024-04-15T08:33:18Z</time>
      </trkpt>
      <trkpt lat="48.70507" lon="1.96056">
        <ele>147.6</ele>
        <time>2024-04-15T08:33:22Z</time>
      </trkpt>
      <trkpt lat="48.70514" lon="1.96012">
        <ele>148.2</ele>
        <time>2024-04-15T08:33:24Z</time>
      </trkpt>
      <trkpt lat="48.70522" lon="1.95969">
        <ele>148.8</ele>
        <time>2024-04-15T08:33:26Z</time>
      </trkpt>
      <trkpt lat="48.70525" lon="1.95949">
        <ele>149</ele>
        <time>2024-04-15T08:33:27Z</time>
      </trkpt>
      <trkpt lat="48.70535" lon="1.95891">
        <ele>150</ele>
        <time>2024-04-15T08:33:30Z</time>
      </trkpt>
      <trkpt lat="48.70538" lon="1.95871">
        <ele>150.2</ele>
        <time>2024-04-15T08:33:31Z</time>
      </trkpt>
      <trkpt lat="48.70544" lon="1.95838">
        <ele>150.8</ele>
        <time>2024-04-15T08:33:33Z</time>
      </trkpt>
      <trkpt lat="48.7055" lon="1.95821">
        <ele>151</ele>
        <time>2024-04-15T08:33:34Z</time>
      </trkpt>
      <trkpt lat="48.70571" lon="1.95763">
        <ele>152.2</ele>
        <time>2024-04-15T08:33:38Z</time>
      </trkpt>
      <trkpt lat="48.70578" lon="1.95745">
        <ele>152.8</ele>
        <time>2024-04-15T08:33:40Z</time>
      </trkpt>
      <trkpt lat="48.70592" lon="1.95701">
        <ele>154</ele>
        <time>2024-04-15T08:33:45Z</time>
      </trkpt>
      <trkpt lat="48.70605" lon="1.9566">
        <ele>154.6</ele>
        <time>2024-04-15T08:33:48Z</time>
      </trkpt>
      <trkpt lat="48.70627" lon="1.95593">
        <ele>155.6</ele>
        <time>2024-04-15T08:33:52Z</time>
      </trkpt>
      <trkpt lat="48.7064" lon="1.95555">
        <ele>156</ele>
        <time>2024-04-15T08:33:54Z</time>
      </trkpt>
      <trkpt lat="48.70645" lon="1.95535">
        <ele>156.2</ele>
        <time>2024-04-15T08:33:55Z</time>
      </trkpt>
      <trkpt lat="48.70656" lon="1.95444">
        <ele>156.8</ele>
        <time>2024-04-15T08:33:59Z</time>
      </trkpt>
      <trkpt lat="48.70661" lon="1.95396">
        <ele>157.2</ele>
        <time>2024-04-15T08:34:01Z</time>
      </trkpt>
      <trkpt lat="48.70666" lon="1.95298">
        <ele>157.8</ele>
        <time>2024-04-15T08:34:05Z</time>
      </trkpt>
      <trkpt lat="48.7066" lon="1.95193">
        <ele>158.2</ele>
        <time>2024-04-15T08:34:09Z</time>
      </trkpt>
      <trkpt lat="48.70659" lon="1.95143">
        <ele>158.4</ele>
        <time>2024-04-15T08:34:11Z</time>
      </trkpt>
      <trkpt lat="48.70658" lon="1.95046">
        <ele>158.8</ele>
        <time>2024-04-15T08:34:15Z</time>
      </trkpt>
      <trkpt lat="48.70657" lon="1.95022">
        <ele>159</ele>
        <time>2024-04-15T08:34:16Z</time>
      </trkpt>
      <trkpt lat="48.70656" lon="1.94929">
        <ele>159</ele>
        <time>2024-04-15T08:34:20Z</time>
      </trkpt>
      <trkpt lat="48.70651" lon="1.94884">
        <ele>159.2</ele>
        <time>2024-04-15T08:34:22Z</time>
      </trkpt>
      <trkpt lat="48.70644" lon="1.94862">
        <ele>159.2</ele>
        <time>2024-04-15T08:34:23Z</time>
      </trkpt>
      <trkpt lat="48.70632" lon="1.94816">
        <ele>159.2</ele>
        <time>2024-04-15T08:34:25Z</time>
      </trkpt>
      <trkpt lat="48.70607" lon="1.94724">
        <ele>159.6</ele>
        <time>2024-04-15T08:34:29Z</time>
      </trkpt>
      <trkpt lat="48.70601" lon="1.94701">
        <ele>159.8</ele>
        <time>2024-04-15T08:34:30Z</time>
      </trkpt>
      <trkpt lat="48.7059" lon="1.94627">
        <ele>160</ele>
        <time>2024-04-15T08:34:33Z</time>
      </trkpt>
      <trkpt lat="48.7058" lon="1.94548">
        <ele>160.2</ele>
        <time>2024-04-15T08:34:36Z</time>
      </trkpt>
      <trkpt lat="48.70574" lon="1.94465">
        <ele>160.4</ele>
        <time>2024-04-15T08:34:39Z</time>
      </trkpt>
      <trkpt lat="48.70568" lon="1.94381">
        <ele>160.8</ele>
        <time>2024-04-15T08:34:42Z</time>
      </trkpt>
      <trkpt lat="48.70564" lon="1.94325">
        <ele>160.8</ele>
        <time>2024-04-15T08:34:44Z</time>
      </trkpt>
      <trkpt lat="48.70558" lon="1.94239">
        <ele>161.2</ele>
        <time>2024-04-15T08:34:47Z</time>
      </trkpt>
      <trkpt lat="48.70552" lon="1.94152">
        <ele>161.4</ele>
        <time>2024-04-15T08:34:50Z</time>
      </trkpt>
      <trkpt lat="48.7055" lon="1.94123">
        <ele>161.6</ele>
        <time>2024-04-15T08:34:51Z</time>
      </trkpt>
      <trkpt lat="48.70548" lon="1.94095">
        <ele>161.6</ele>
        <time>2024-04-15T08:34:52Z</time>
      </trkpt>
      <trkpt lat="48.70542" lon="1.94013">
        <ele>161.8</ele>
        <time>2024-04-15T08:34:55Z</time>
      </trkpt>
      <trkpt lat="48.70547" lon="1.93986">
        <ele>162</ele>
        <time>2024-04-15T08:34:56Z</time>
      </trkpt>
      <trkpt lat="48.70557" lon="1.93938">
        <ele>162.2</ele>
        <time>2024-04-15T08:34:58Z</time>
      </trkpt>
      <trkpt lat="48.70583" lon="1.93842">
        <ele>162.6</ele>
        <time>2024-04-15T08:35:02Z</time>
      </trkpt>
      <trkpt lat="48.7059" lon="1.93819">
        <ele>162.8</ele>
        <time>2024-04-15T08:35:03Z</time>
      </trkpt>
      <trkpt lat="48.70592" lon="1.93795">
        <ele>162.8</ele>
        <time>2024-04-15T08:35:04Z</time>
      </trkpt>
      <trkpt lat="48.7059" lon="1.9377">
        <ele>163</ele>
        <time>2024-04-15T08:35:05Z</time>
      </trkpt>
      <trkpt lat="48.70587" lon="1.93745">
        <ele>163.2</ele>
        <time>2024-04-15T08:35:06Z</time>
      </trkpt>
      <trkpt lat="48.70582" lon="1.93721">
        <ele>163.4</ele>
        <time>2024-04-15T08:35:07Z</time>
      </trkpt>
      <trkpt lat="48.70569" lon="1.93669">
        <ele>163.6</ele>
        <time>2024-04-15T08:35:09Z</time>
      </trkpt>
      <trkpt lat="48.7055" lon="1.93589">
        <ele>164</ele>
        <time>2024-04-15T08:35:12Z</time>
      </trkpt>
      <trkpt lat="48.70531" lon="1.9351">
        <ele>164.4</ele>
        <time>2024-04-15T08:35:15Z</time>
      </trkpt>
      <trkpt lat="48.70519" lon="1.93458">
        <ele>164.6</ele>
        <time>2024-04-15T08:35:17Z</time>
      </trkpt>
      <trkpt lat="48.70513" lon="1.93433">
        <ele>164.6</ele>
        <time>2024-04-15T08:35:18Z</time>
      </trkpt>
      <trkpt lat="48.7051" lon="1.93382">
        <ele>164.8</ele>
        <time>2024-04-15T08:35:20Z</time>
      </trkpt>
      <trkpt lat="48.70512" lon="1.93359">
        <ele>164.8</ele>
        <time>2024-04-15T08:35:21Z</time>
      </trkpt>
      <trkpt lat="48.70518" lon="1.93336">
        <ele>165</ele>
        <time>2024-04-15T08:35:22Z</time>
      </trkpt>
      <trkpt lat="48.7054" lon="1.93245">
        <ele>165.2</ele>
        <time>2024-04-15T08:35:26Z</time>
      </trkpt>
      <trkpt lat="48.70562" lon="1.9316">
        <ele>165.6</ele>
        <time>2024-04-15T08:35:30Z</time>
      </trkpt>
      <trkpt lat="48.70578" lon="1.93096">
        <ele>166</ele>
        <time>2024-04-15T08:35:33Z</time>
      </trkpt>
      <trkpt lat="48.70599" lon="1.93012">
        <ele>166.2</ele>
        <time>2024-04-15T08:35:37Z</time>
      </trkpt>
      <trkpt lat="48.70621" lon="1.92932">
        <ele>166.6</ele>
        <time>2024-04-15T08:35:41Z</time>
      </trkpt>
      <trkpt lat="48.70627" lon="1.92913">
        <ele>166.8</ele>
        <time>2024-04-15T08:35:42Z</time>
      </trkpt>
      <trkpt lat="48.70651" lon="1.92835">
        <ele>167</ele>
        <time>2024-04-15T08:35:46Z</time>
      </trkpt>
      <trkpt lat="48.70662" lon="1.92799">
        <ele>167.2</ele>
        <time>2024-04-15T08:35:48Z</time>
      </trkpt>
      <trkpt lat="48.70671" lon="1.92769">
        <ele>167.2</ele>
        <time>2024-04-15T08:35:50Z</time>
      </trkpt>
      <trkpt lat="48.70674" lon="1.92758">
        <ele>167.2</ele>
        <time>2024-04-15T08:35:51Z</time>
      </trkpt>
      <trkpt lat="48.70673" lon="1.92739">
        <ele>167.2</ele>
        <time>2024-04-15T08:35:54Z</time>
      </trkpt>
      <trkpt lat="48.70674" lon="1.92721">
        <ele>167.4</ele>
        <time>2024-04-15T08:35:58Z</time>
      </trkpt>
      <trkpt lat="48.70685" lon="1.92711">
        <ele>167.6</ele>
        <time>2024-04-15T08:36:01Z</time>
      </trkpt>
      <trkpt lat="48.70689" lon="1.92706">
        <ele>167.6</ele>
        <time>2024-04-15T08:36:02Z</time>
      </trkpt>
      <trkpt lat="48.7071" lon="1.9266">
        <ele>168</ele>
        <time>2024-04-15T08:36:06Z</time>
      </trkpt>
      <trkpt lat="48.7074" lon="1.92583">
        <ele>168.2</ele>
        <time>2024-04-15T08:36:11Z</time>
      </trkpt>
      <trkpt lat="48.70746" lon="1.92567">
        <ele>168.2</ele>
        <time>2024-04-15T08:36:12Z</time>
      </trkpt>
      <trkpt lat="48.70754" lon="1.92531">
        <ele>168.2</ele>
        <time>2024-04-15T08:36:14Z</time>
      </trkpt>
      <trkpt lat="48.70754" lon="1.92512">
        <ele>168.2</ele>
        <time>2024-04-15T08:36:15Z</time>
      </trkpt>
      <trkpt lat="48.70754" lon="1.92472">
        <ele>168.2</ele>
        <time>2024-04-15T08:36:17Z</time>
      </trkpt>
      <trkpt lat="48.70737" lon="1.92392">
        <ele>168.4</ele>
        <time>2024-04-15T08:36:21Z</time>
      </trkpt>
      <trkpt lat="48.70715" lon="1.92316">
        <ele>168.4</ele>
        <time>2024-04-15T08:36:25Z</time>
      </trkpt>
      <trkpt lat="48.70693" lon="1.9224">
        <ele>168.4</ele>
        <time>2024-04-15T08:36:29Z</time>
      </trkpt>
      <trkpt lat="48.70682" lon="1.92202">
        <ele>168.4</ele>
        <time>2024-04-15T08:36:31Z</time>
      </trkpt>
      <trkpt lat="48.70665" lon="1.92145">
        <ele>168.4</ele>
        <time>2024-04-15T08:36:34Z</time>
      </trkpt>
      <trkpt lat="48.70661" lon="1.92125">
        <ele>168.4</ele>
        <time>2024-04-15T08:36:35Z</time>
      </trkpt>
      <trkpt lat="48.70658" lon="1.92104">
        <ele>168.4</ele>
        <time>2024-04-15T08:36:36Z</time>
      </trkpt>
      <trkpt lat="48.70661" lon="1.9206">
        <ele>168.6</ele>
        <time>2024-04-15T08:36:38Z</time>
      </trkpt>
      <trkpt lat="48.70666" lon="1.92039">
        <ele>168.6</ele>
        <time>2024-04-15T08:36:39Z</time>
      </trkpt>
      <trkpt lat="48.7068" lon="1.91998">
        <ele>168.4</ele>
        <time>2024-04-15T08:36:41Z</time>
      </trkpt>
      <trkpt lat="48.70708" lon="1.91916">
        <ele>168.4</ele>
        <time>2024-04-15T08:36:45Z</time>
      </trkpt>
      <trkpt lat="48.70721" lon="1.91877">
        <ele>168.4</ele>
        <time>2024-04-15T08:36:47Z</time>
      </trkpt>
      <trkpt lat="48.70751" lon="1.91791">
        <ele>168.4</ele>
        <time>2024-04-15T08:36:52Z</time>
      </trkpt>
      <trkpt lat="48.70756" lon="1.91775">
        <ele>168.4</ele>
        <time>2024-04-15T08:36:53Z</time>
      </trkpt>
      <trkpt lat="48.70781" lon="1.9169">
        <ele>168.4</ele>
        <time>2024-04-15T08:36:58Z</time>
      </trkpt>
      <trkpt lat="48.70797" lon="1.91611">
        <ele>168.2</ele>
        <time>2024-04-15T08:37:02Z</time>
      </trkpt>
      <trkpt lat="48.70805" lon="1.91574">
        <ele>168.2</ele>
        <time>2024-04-15T08:37:04Z</time>
      </trkpt>
      <trkpt lat="48.70822" lon="1.91499">
        <ele>168</ele>
        <time>2024-04-15T08:37:08Z</time>
      </trkpt>
      <trkpt lat="48.7083" lon="1.91482">
        <ele>168</ele>
        <time>2024-04-15T08:37:09Z</time>
      </trkpt>
      <trkpt lat="48.70838" lon="1.91465">
        <ele>168</ele>
        <time>2024-04-15T08:37:10Z</time>
      </trkpt>
      <trkpt lat="48.7088" lon="1.91402">
        <ele>168</ele>
        <time>2024-04-15T08:37:14Z</time>
      </trkpt>
      <trkpt lat="48.70923" lon="1.91346">
        <ele>167.8</ele>
        <time>2024-04-15T08:37:18Z</time>
      </trkpt>
      <trkpt lat="48.70931" lon="1.9133">
        <ele>167.8</ele>
        <time>2024-04-15T08:37:19Z</time>
      </trkpt>
      <trkpt lat="48.70962" lon="1.91252">
        <ele>167.4</ele>
        <time>2024-04-15T08:37:23Z</time>
      </trkpt>
      <trkpt lat="48.70987" lon="1.91174">
        <ele>167.2</ele>
        <time>2024-04-15T08:37:27Z</time>
      </trkpt>
      <trkpt lat="48.70992" lon="1.91152">
        <ele>167.2</ele>
        <time>2024-04-15T08:37:28Z</time>
      </trkpt>
      <trkpt lat="48.71012" lon="1.91062">
        <ele>166.8</ele>
        <time>2024-04-15T08:37:32Z</time>
      </trkpt>
      <trkpt lat="48.71032" lon="1.90971">
        <ele>166.2</ele>
        <time>2024-04-15T08:37:36Z</time>
      </trkpt>
      <trkpt lat="48.71053" lon="1.90877">
        <ele>165.8</ele>
        <time>2024-04-15T08:37:40Z</time>
      </trkpt>
      <trkpt lat="48.71063" lon="1.90832">
        <ele>165.6</ele>
        <time>2024-04-15T08:37:42Z</time>
      </trkpt>
      <trkpt lat="48.71082" lon="1.90744">
        <ele>165</ele>
        <time>2024-04-15T08:37:46Z</time>
      </trkpt>
      <trkpt lat="48.71085" lon="1.90722">
        <ele>165</ele>
        <time>2024-04-15T08:37:47Z</time>
      </trkpt>
      <trkpt lat="48.71097" lon="1.90633">
        <ele>164.6</ele>
        <time>2024-04-15T08:37:51Z</time>
      </trkpt>
      <trkpt lat="48.71107" lon="1.90547">
        <ele>164.4</ele>
        <time>2024-04-15T08:37:55Z</time>
      </trkpt>
      <trkpt lat="48.7111" lon="1.90528">
        <ele>164.4</ele>
        <time>2024-04-15T08:37:56Z</time>
      </trkpt>
      <trkpt lat="48.71117" lon="1.90471">
        <ele>164.2</ele>
        <time>2024-04-15T08:37:59Z</time>
      </trkpt>
      <trkpt lat="48.71121" lon="1.9046">
        <ele>164.2</ele>
        <time>2024-04-15T08:38:00Z</time>
      </trkpt>
      <trkpt lat="48.71128" lon="1.90444">
        <ele>164.2</ele>
        <time>2024-04-15T08:38:01Z</time>
      </trkpt>
      <trkpt lat="48.71141" lon="1.90412">
        <ele>164</ele>
        <time>2024-04-15T08:38:03Z</time>
      </trkpt>
      <trkpt lat="48.71169" lon="1.90342">
        <ele>163.8</ele>
        <time>2024-04-15T08:38:07Z</time>
      </trkpt>
      <trkpt lat="48.71203" lon="1.90259">
        <ele>163.4</ele>
        <time>2024-04-15T08:38:12Z</time>
      </trkpt>
      <trkpt lat="48.71228" lon="1.90195">
        <ele>163.2</ele>
        <time>2024-04-15T08:38:16Z</time>
      </trkpt>
      <trkpt lat="48.71244" lon="1.90101">
        <ele>162.6</ele>
        <time>2024-04-15T08:38:21Z</time>
      </trkpt>
      <trkpt lat="48.71256" lon="1.90016">
        <ele>162.4</ele>
        <time>2024-04-15T08:38:25Z</time>
      </trkpt>
      <trkpt lat="48.71267" lon="1.89933">
        <ele>162.4</ele>
        <time>2024-04-15T08:38:29Z</time>
      </trkpt>
      <trkpt lat="48.71278" lon="1.89849">
        <ele>162.4</ele>
        <time>2024-04-15T08:38:33Z</time>
      </trkpt>
      <trkpt lat="48.71284" lon="1.89806">
        <ele>162.4</ele>
        <time>2024-04-15T08:38:35Z</time>
      </trkpt>
      <trkpt lat="48.71297" lon="1.89727">
        <ele>162.4</ele>
        <time>2024-04-15T08:38:39Z</time>
      </trkpt>
      <trkpt lat="48.71304" lon="1.89711">
        <ele>162.2</ele>
        <time>2024-04-15T08:38:40Z</time>
      </trkpt>
      <trkpt lat="48.71316" lon="1.89682">
        <ele>162.2</ele>
        <time>2024-04-15T08:38:42Z</time>
      </trkpt>
      <trkpt lat="48.71324" lon="1.8967">
        <ele>162.2</ele>
        <time>2024-04-15T08:38:43Z</time>
      </trkpt>
      <trkpt lat="48.71344" lon="1.89637">
        <ele>162</ele>
        <time>2024-04-15T08:38:46Z</time>
      </trkpt>
      <trkpt lat="48.71349" lon="1.89628">
        <ele>161.8</ele>
        <time>2024-04-15T08:38:47Z</time>
      </trkpt>
      <trkpt lat="48.71357" lon="1.89616">
        <ele>161.8</ele>
        <time>2024-04-15T08:38:49Z</time>
      </trkpt>
      <trkpt lat="48.71377" lon="1.89611">
        <ele>161.8</ele>
        <time>2024-04-15T08:38:53Z</time>
      </trkpt>
      <trkpt lat="48.71381" lon="1.89609">
        <ele>161.8</ele>
        <time>2024-04-15T08:38:54Z</time>
      </trkpt>
      <trkpt lat="48.71383" lon="1.89609">
        <ele>161.8</ele>
        <time>2024-04-15T08:38:55Z</time>
      </trkpt>
      <trkpt lat="48.7139" lon="1.89596">
        <ele>161.6</ele>
        <time>2024-04-15T08:38:57Z</time>
      </trkpt>
      <trkpt lat="48.71393" lon="1.89588">
        <ele>161.6</ele>
        <time>2024-04-15T08:38:59Z</time>
      </trkpt>
      <trkpt lat="48.7139" lon="1.8958">
        <ele>161.6</ele>
        <time>2024-04-15T08:39:00Z</time>
      </trkpt>
      <trkpt lat="48.71385" lon="1.8957">
        <ele>161.6</ele>
        <time>2024-04-15T08:39:02Z</time>
      </trkpt>
      <trkpt lat="48.71369" lon="1.89542">
        <ele>161.6</ele>
        <time>2024-04-15T08:39:04Z</time>
      </trkpt>
      <trkpt lat="48.71367" lon="1.89529">
        <ele>161.6</ele>
        <time>2024-04-15T08:39:05Z</time>
      </trkpt>
      <trkpt lat="48.71358" lon="1.89459">
        <ele>161.6</ele>
        <time>2024-04-15T08:39:09Z</time>
      </trkpt>
      <trkpt lat="48.7135" lon="1.89422">
        <ele>161.6</ele>
        <time>2024-04-15T08:39:11Z</time>
      </trkpt>
      <trkpt lat="48.71344" lon="1.89404">
        <ele>161.4</ele>
        <time>2024-04-15T08:39:12Z</time>
      </trkpt>
      <trkpt lat="48.71331" lon="1.89369">
        <ele>161.8</ele>
        <time>2024-04-15T08:39:14Z</time>
      </trkpt>
      <trkpt lat="48.71321" lon="1.89354">
        <ele>162</ele>
        <time>2024-04-15T08:39:15Z</time>
      </trkpt>
      <trkpt lat="48.71312" lon="1.8934">
        <ele>162.2</ele>
        <time>2024-04-15T08:39:16Z</time>
      </trkpt>
      <trkpt lat="48.71291" lon="1.89318">
        <ele>161.8</ele>
        <time>2024-04-15T08:39:18Z</time>
      </trkpt>
      <trkpt lat="48.71242" lon="1.89278">
        <ele>162.2</ele>
        <time>2024-04-15T08:39:22Z</time>
      </trkpt>
      <trkpt lat="48.71218" lon="1.89259">
        <ele>162.2</ele>
        <time>2024-04-15T08:39:24Z</time>
      </trkpt>
      <trkpt lat="48.71176" lon="1.89221">
        <ele>162.6</ele>
        <time>2024-04-15T08:39:28Z</time>
      </trkpt>
      <trkpt lat="48.71168" lon="1.89209">
        <ele>162.6</ele>
        <time>2024-04-15T08:39:29Z</time>
      </trkpt>
      <trkpt lat="48.71153" lon="1.89188">
        <ele>162.8</ele>
        <time>2024-04-15T08:39:31Z</time>
      </trkpt>
      <trkpt lat="48.71143" lon="1.89159">
        <ele>163</ele>
        <time>2024-04-15T08:39:33Z</time>
      </trkpt>
      <trkpt lat="48.71138" lon="1.89145">
        <ele>163.2</ele>
        <time>2024-04-15T08:39:34Z</time>
      </trkpt>
      <trkpt lat="48.71126" lon="1.89105">
        <ele>163.6</ele>
        <time>2024-04-15T08:39:37Z</time>
      </trkpt>
      <trkpt lat="48.71125" lon="1.89092">
        <ele>163.6</ele>
        <time>2024-04-15T08:39:38Z</time>
      </trkpt>
      <trkpt lat="48.71124" lon="1.8908">
        <ele>163.6</ele>
        <time>2024-04-15T08:39:39Z</time>
      </trkpt>
      <trkpt lat="48.71124" lon="1.8906">
        <ele>164</ele>
        <time>2024-04-15T08:39:41Z</time>
      </trkpt>
      <trkpt lat="48.71125" lon="1.8905">
        <ele>164.2</ele>
        <time>2024-04-15T08:39:44Z</time>
      </trkpt>
      <trkpt lat="48.71125" lon="1.8905">
        <ele>164.8</ele>
        <time>2024-04-15T08:39:52Z</time>
      </trkpt>
      <trkpt lat="48.71125" lon="1.8905">
        <ele>165.8</ele>
        <time>2024-04-15T08:40:02Z</time>
      </trkpt>
      <trkpt lat="48.71125" lon="1.8905">
        <ele>166</ele>
        <time>2024-04-15T08:40:06Z</time>
      </trkpt>
      <trkpt lat="48.71125" lon="1.89042">
        <ele>166.2</ele>
        <time>2024-04-15T08:40:08Z</time>
      </trkpt>
      <trkpt lat="48.71125" lon="1.89038">
        <ele>166.4</ele>
        <time>2024-04-15T08:40:09Z</time>
      </trkpt>
      <trkpt lat="48.71116" lon="1.89035">
        <ele>166.6</ele>
        <time>2024-04-15T08:40:11Z</time>
      </trkpt>
      <trkpt lat="48.71096" lon="1.89029">
        <ele>167</ele>
        <time>2024-04-15T08:40:14Z</time>
      </trkpt>
      <trkpt lat="48.71057" lon="1.89029">
        <ele>167.2</ele>
        <time>2024-04-15T08:40:18Z</time>
      </trkpt>
      <trkpt lat="48.70995" lon="1.89028">
        <ele>167.6</ele>
        <time>2024-04-15T08:40:23Z</time>
      </trkpt>
      <trkpt lat="48.70938" lon="1.89027">
        <ele>168</ele>
        <time>2024-04-15T08:40:27Z</time>
      </trkpt>
      <trkpt lat="48.70908" lon="1.89027">
        <ele>168</ele>
        <time>2024-04-15T08:40:29Z</time>
      </trkpt>
      <trkpt lat="48.70847" lon="1.89027">
        <ele>168.4</ele>
        <time>2024-04-15T08:40:33Z</time>
      </trkpt>
      <trkpt lat="48.70786" lon="1.89026">
        <ele>168.6</ele>
        <time>2024-04-15T08:40:37Z</time>
      </trkpt>
      <trkpt lat="48.70771" lon="1.89026">
        <ele>168.6</ele>
        <time>2024-04-15T08:40:38Z</time>
      </trkpt>
      <trkpt lat="48.70715" lon="1.89025">
        <ele>168.8</ele>
        <time>2024-04-15T08:40:42Z</time>
      </trkpt>
      <trkpt lat="48.70703" lon="1.89025">
        <ele>168.8</ele>
        <time>2024-04-15T08:40:43Z</time>
      </trkpt>
      <trkpt lat="48.7068" lon="1.89019">
        <ele>168.8</ele>
        <time>2024-04-15T08:40:45Z</time>
      </trkpt>
      <trkpt lat="48.70661" lon="1.8901">
        <ele>168.8</ele>
        <time>2024-04-15T08:40:47Z</time>
      </trkpt>
      <trkpt lat="48.70641" lon="1.88993">
        <ele>168.8</ele>
        <time>2024-04-15T08:40:49Z</time>
      </trkpt>
      <trkpt lat="48.7063" lon="1.88971">
        <ele>168.8</ele>
        <time>2024-04-15T08:40:51Z</time>
      </trkpt>
      <trkpt lat="48.70624" lon="1.88956">
        <ele>168.6</ele>
        <time>2024-04-15T08:40:52Z</time>
      </trkpt>
      <trkpt lat="48.70593" lon="1.88873">
        <ele>168</ele>
        <time>2024-04-15T08:40:57Z</time>
      </trkpt>
      <trkpt lat="48.70575" lon="1.88845">
        <ele>167.8</ele>
        <time>2024-04-15T08:40:59Z</time>
      </trkpt>
      <trkpt lat="48.70568" lon="1.88834">
        <ele>167.6</ele>
        <time>2024-04-15T08:41:00Z</time>
      </trkpt>
      <trkpt lat="48.70542" lon="1.88781">
        <ele>167.2</ele>
        <time>2024-04-15T08:41:04Z</time>
      </trkpt>
      <trkpt lat="48.70534" lon="1.88735">
        <ele>166.8</ele>
        <time>2024-04-15T08:41:06Z</time>
      </trkpt>
      <trkpt lat="48.70529" lon="1.88649">
        <ele>165.8</ele>
        <time>2024-04-15T08:41:11Z</time>
      </trkpt>
      <trkpt lat="48.70524" lon="1.88602">
        <ele>165</ele>
        <time>2024-04-15T08:41:14Z</time>
      </trkpt>
      <trkpt lat="48.70524" lon="1.88602">
        <ele>164.8</ele>
        <time>2024-04-15T08:41:15Z</time>
      </trkpt>
      <trkpt lat="48.7052" lon="1.88588">
        <ele>164.6</ele>
        <time>2024-04-15T08:41:16Z</time>
      </trkpt>
      <trkpt lat="48.70501" lon="1.88553">
        <ele>164</ele>
        <time>2024-04-15T08:41:18Z</time>
      </trkpt>
      <trkpt lat="48.70485" lon="1.88541">
        <ele>163.6</ele>
        <time>2024-04-15T08:41:20Z</time>
      </trkpt>
      <trkpt lat="48.70474" lon="1.8854">
        <ele>163.4</ele>
        <time>2024-04-15T08:41:21Z</time>
      </trkpt>
      <trkpt lat="48.70425" lon="1.88536">
        <ele>162.2</ele>
        <time>2024-04-15T08:41:25Z</time>
      </trkpt>
      <trkpt lat="48.70361" lon="1.88532">
        <ele>160.8</ele>
        <time>2024-04-15T08:41:30Z</time>
      </trkpt>
      <trkpt lat="48.70306" lon="1.88529">
        <ele>159.2</ele>
        <time>2024-04-15T08:41:35Z</time>
      </trkpt>
      <trkpt lat="48.70276" lon="1.88528">
        <ele>158.2</ele>
        <time>2024-04-15T08:41:39Z</time>
      </trkpt>
      <trkpt lat="48.70263" lon="1.88525">
        <ele>157.4</ele>
        <time>2024-04-15T08:41:43Z</time>
      </trkpt>
      <trkpt lat="48.70252" lon="1.88519">
        <ele>156.4</ele>
        <time>2024-04-15T08:41:49Z</time>
      </trkpt>
      <trkpt lat="48.70245" lon="1.8851">
        <ele>155.4</ele>
        <time>2024-04-15T08:41:55Z</time>
      </trkpt>
      <trkpt lat="48.70242" lon="1.88497">
        <ele>154.6</ele>
        <time>2024-04-15T08:42:00Z</time>
      </trkpt>
      <trkpt lat="48.70244" lon="1.88476">
        <ele>153.8</ele>
        <time>2024-04-15T08:42:06Z</time>
      </trkpt>
      <trkpt lat="48.70246" lon="1.88443">
        <ele>153.2</ele>
        <time>2024-04-15T08:42:12Z</time>
      </trkpt>
      <trkpt lat="48.7025" lon="1.88403">
        <ele>152.6</ele>
        <time>2024-04-15T08:42:17Z</time>
      </trkpt>
      <trkpt lat="48.70254" lon="1.88369">
        <ele>152.2</ele>
        <time>2024-04-15T08:42:21Z</time>
      </trkpt>
      <trkpt lat="48.70252" lon="1.88347">
        <ele>152</ele>
        <time>2024-04-15T08:42:22Z</time>
      </trkpt>
      <trkpt lat="48.70242" lon="1.88289">
        <ele>151.2</ele>
        <time>2024-04-15T08:42:27Z</time>
      </trkpt>
      <trkpt lat="48.7023" lon="1.88219">
        <ele>150.4</ele>
        <time>2024-04-15T08:42:32Z</time>
      </trkpt>
      <trkpt lat="48.7023" lon="1.88219">
        <ele>150.2</ele>
        <time>2024-04-15T08:42:33Z</time>
      </trkpt>
      <trkpt lat="48.70236" lon="1.88174">
        <ele>149.8</ele>
        <time>2024-04-15T08:42:35Z</time>
      </trkpt>
      <trkpt lat="48.70246" lon="1.88144">
        <ele>149.6</ele>
        <time>2024-04-15T08:42:37Z</time>
      </trkpt>
      <trkpt lat="48.70275" lon="1.88076">
        <ele>148.8</ele>
        <time>2024-04-15T08:42:41Z</time>
      </trkpt>
      <trkpt lat="48.70313" lon="1.88006">
        <ele>148</ele>
        <time>2024-04-15T08:42:45Z</time>
      </trkpt>
      <trkpt lat="48.70323" lon="1.87988">
        <ele>147.8</ele>
        <time>2024-04-15T08:42:46Z</time>
      </trkpt>
      <trkpt lat="48.70364" lon="1.87913">
        <ele>147.2</ele>
        <time>2024-04-15T08:42:50Z</time>
      </trkpt>
      <trkpt lat="48.70396" lon="1.87855">
        <ele>146.6</ele>
        <time>2024-04-15T08:42:53Z</time>
      </trkpt>
      <trkpt lat="48.70441" lon="1.8778">
        <ele>146</ele>
        <time>2024-04-15T08:42:57Z</time>
      </trkpt>
      <trkpt lat="48.70486" lon="1.87704">
        <ele>145.2</ele>
        <time>2024-04-15T08:43:01Z</time>
      </trkpt>
      <trkpt lat="48.70509" lon="1.87667">
        <ele>144.8</ele>
        <time>2024-04-15T08:43:03Z</time>
      </trkpt>
      <trkpt lat="48.7055" lon="1.87591">
        <ele>144.4</ele>
        <time>2024-04-15T08:43:07Z</time>
      </trkpt>
      <trkpt lat="48.70561" lon="1.87551">
        <ele>144</ele>
        <time>2024-04-15T08:43:09Z</time>
      </trkpt>
      <trkpt lat="48.70563" lon="1.87532">
        <ele>144</ele>
        <time>2024-04-15T08:43:10Z</time>
      </trkpt>
      <trkpt lat="48.70564" lon="1.87511">
        <ele>143.8</ele>
        <time>2024-04-15T08:43:11Z</time>
      </trkpt>
      <trkpt lat="48.70566" lon="1.8749">
        <ele>143.8</ele>
        <time>2024-04-15T08:43:12Z</time>
      </trkpt>
      <trkpt lat="48.70569" lon="1.87449">
        <ele>143.6</ele>
        <time>2024-04-15T08:43:14Z</time>
      </trkpt>
      <trkpt lat="48.70589" lon="1.87352">
        <ele>143.2</ele>
        <time>2024-04-15T08:43:19Z</time>
      </trkpt>
      <trkpt lat="48.70616" lon="1.87272">
        <ele>142.8</ele>
        <time>2024-04-15T08:43:23Z</time>
      </trkpt>
      <trkpt lat="48.70645" lon="1.8719">
        <ele>142.4</ele>
        <time>2024-04-15T08:43:27Z</time>
      </trkpt>
      <trkpt lat="48.7067" lon="1.8711">
        <ele>142.2</ele>
        <time>2024-04-15T08:43:31Z</time>
      </trkpt>
      <trkpt lat="48.70697" lon="1.87023">
        <ele>142</ele>
        <time>2024-04-15T08:43:36Z</time>
      </trkpt>
      <trkpt lat="48.70708" lon="1.86984">
        <ele>142</ele>
        <time>2024-04-15T08:43:39Z</time>
      </trkpt>
      <trkpt lat="48.7073" lon="1.86944">
        <ele>142.4</ele>
        <time>2024-04-15T08:43:44Z</time>
      </trkpt>
      <trkpt lat="48.70754" lon="1.86923">
        <ele>143.4</ele>
        <time>2024-04-15T08:43:50Z</time>
      </trkpt>
      <trkpt lat="48.70752" lon="1.86928">
        <ele>143.4</ele>
        <time>2024-04-15T08:43:54Z</time>
      </trkpt>
      <trkpt lat="48.7075" lon="1.86933">
        <ele>143.6</ele>
        <time>2024-04-15T08:44:00Z</time>
      </trkpt>
      <trkpt lat="48.7075" lon="1.86941">
        <ele>144</ele>
        <time>2024-04-15T08:44:02Z</time>
      </trkpt>
      <trkpt lat="48.70757" lon="1.8697">
        <ele>144.4</ele>
        <time>2024-04-15T08:44:05Z</time>
      </trkpt>
      <trkpt lat="48.70787" lon="1.87007">
        <ele>145</ele>
        <time>2024-04-15T08:44:09Z</time>
      </trkpt>
      <trkpt lat="48.70826" lon="1.87056">
        <ele>145.8</ele>
        <time>2024-04-15T08:44:13Z</time>
      </trkpt>
      <trkpt lat="48.7087" lon="1.87111">
        <ele>146.6</ele>
        <time>2024-04-15T08:44:17Z</time>
      </trkpt>
      <trkpt lat="48.70902" lon="1.87152">
        <ele>147.4</ele>
        <time>2024-04-15T08:44:20Z</time>
      </trkpt>
      <trkpt lat="48.7094" lon="1.87199">
        <ele>148.6</ele>
        <time>2024-04-15T08:44:24Z</time>
      </trkpt>
      <trkpt lat="48.70966" lon="1.87233">
        <ele>149.8</ele>
        <time>2024-04-15T08:44:28Z</time>
      </trkpt>
      <trkpt lat="48.70976" lon="1.87254">
        <ele>150.8</ele>
        <time>2024-04-15T08:44:32Z</time>
      </trkpt>
      <trkpt lat="48.7098" lon="1.87265">
        <ele>151.4</ele>
        <time>2024-04-15T08:44:34Z</time>
      </trkpt>
      <trkpt lat="48.70987" lon="1.8727">
        <ele>152</ele>
        <time>2024-04-15T08:44:36Z</time>
      </trkpt>
      <trkpt lat="48.7099" lon="1.8727">
        <ele>152.2</ele>
        <time>2024-04-15T08:44:37Z</time>
      </trkpt>
      <trkpt lat="48.70993" lon="1.87265">
        <ele>152.8</ele>
        <time>2024-04-15T08:44:39Z</time>
      </trkpt>
      <trkpt lat="48.71003" lon="1.87239">
        <ele>153.6</ele>
        <time>2024-04-15T08:44:42Z</time>
      </trkpt>
      <trkpt lat="48.71012" lon="1.87196">
        <ele>155</ele>
        <time>2024-04-15T08:44:47Z</time>
      </trkpt>
      <trkpt lat="48.71015" lon="1.87185">
        <ele>155.8</ele>
        <time>2024-04-15T08:44:50Z</time>
      </trkpt>
      <trkpt lat="48.71016" lon="1.87183">
        <ele>157</ele>
        <time>2024-04-15T08:44:54Z</time>
      </trkpt>
      <trkpt lat="48.71016" lon="1.87179">
        <ele>160.2</ele>
        <time>2024-04-15T08:45:09Z</time>
      </trkpt>
      <trkpt lat="48.71021" lon="1.87164">
        <ele>161.2</ele>
        <time>2024-04-15T08:45:12Z</time>
      </trkpt>
      <trkpt lat="48.7103" lon="1.87129">
        <ele>162</ele>
        <time>2024-04-15T08:45:15Z</time>
      </trkpt>
      <trkpt lat="48.71045" lon="1.87058">
        <ele>163</ele>
        <time>2024-04-15T08:45:19Z</time>
      </trkpt>
      <trkpt lat="48.71065" lon="1.86981">
        <ele>164.2</ele>
        <time>2024-04-15T08:45:24Z</time>
      </trkpt>
      <trkpt lat="48.71084" lon="1.86924">
        <ele>164.6</ele>
        <time>2024-04-15T08:45:26Z</time>
      </trkpt>
      <trkpt lat="48.71108" lon="1.86836">
        <ele>165.4</ele>
        <time>2024-04-15T08:45:30Z</time>
      </trkpt>
      <trkpt lat="48.71115" lon="1.86813">
        <ele>165.4</ele>
        <time>2024-04-15T08:45:31Z</time>
      </trkpt>
      <trkpt lat="48.71142" lon="1.86716">
        <ele>166.2</ele>
        <time>2024-04-15T08:45:35Z</time>
      </trkpt>
      <trkpt lat="48.71156" lon="1.86664">
        <ele>166.4</ele>
        <time>2024-04-15T08:45:37Z</time>
      </trkpt>
      <trkpt lat="48.71178" lon="1.86584">
        <ele>167</ele>
        <time>2024-04-15T08:45:40Z</time>
      </trkpt>
      <trkpt lat="48.712" lon="1.86503">
        <ele>167.4</ele>
        <time>2024-04-15T08:45:43Z</time>
      </trkpt>
      <trkpt lat="48.71215" lon="1.8645">
        <ele>167.8</ele>
        <time>2024-04-15T08:45:45Z</time>
      </trkpt>
      <trkpt lat="48.71237" lon="1.8637">
        <ele>168.2</ele>
        <time>2024-04-15T08:45:48Z</time>
      </trkpt>
      <trkpt lat="48.71258" lon="1.86294">
        <ele>168.4</ele>
        <time>2024-04-15T08:45:51Z</time>
      </trkpt>
      <trkpt lat="48.71265" lon="1.86268">
        <ele>168.6</ele>
        <time>2024-04-15T08:45:52Z</time>
      </trkpt>
      <trkpt lat="48.71292" lon="1.86168">
        <ele>169.2</ele>
        <time>2024-04-15T08:45:56Z</time>
      </trkpt>
      <trkpt lat="48.71319" lon="1.8607">
        <ele>169.6</ele>
        <time>2024-04-15T08:46:00Z</time>
      </trkpt>
      <trkpt lat="48.71338" lon="1.85995">
        <ele>170</ele>
        <time>2024-04-15T08:46:03Z</time>
      </trkpt>
      <trkpt lat="48.71368" lon="1.85868">
        <ele>170.6</ele>
        <time>2024-04-15T08:46:08Z</time>
      </trkpt>
      <trkpt lat="48.71385" lon="1.85796">
        <ele>170.8</ele>
        <time>2024-04-15T08:46:11Z</time>
      </trkpt>
      <trkpt lat="48.7141" lon="1.85707">
        <ele>171.2</ele>
        <time>2024-04-15T08:46:15Z</time>
      </trkpt>
      <trkpt lat="48.71428" lon="1.8564">
        <ele>171.6</ele>
        <time>2024-04-15T08:46:18Z</time>
      </trkpt>
      <trkpt lat="48.71453" lon="1.85547">
        <ele>172</ele>
        <time>2024-04-15T08:46:22Z</time>
      </trkpt>
      <trkpt lat="48.71478" lon="1.85456">
        <ele>172.4</ele>
        <time>2024-04-15T08:46:26Z</time>
      </trkpt>
      <trkpt lat="48.71503" lon="1.85366">
        <ele>172.6</ele>
        <time>2024-04-15T08:46:30Z</time>
      </trkpt>
      <trkpt lat="48.71527" lon="1.85278">
        <ele>172.8</ele>
        <time>2024-04-15T08:46:34Z</time>
      </trkpt>
      <trkpt lat="48.71539" lon="1.85234">
        <ele>173</ele>
        <time>2024-04-15T08:46:36Z</time>
      </trkpt>
      <trkpt lat="48.71564" lon="1.85156">
        <ele>173.2</ele>
        <time>2024-04-15T08:46:40Z</time>
      </trkpt>
      <trkpt lat="48.71571" lon="1.8514">
        <ele>173.4</ele>
        <time>2024-04-15T08:46:41Z</time>
      </trkpt>
      <trkpt lat="48.71592" lon="1.85118">
        <ele>173.6</ele>
        <time>2024-04-15T08:46:43Z</time>
      </trkpt>
      <trkpt lat="48.71604" lon="1.85107">
        <ele>173.6</ele>
        <time>2024-04-15T08:46:44Z</time>
      </trkpt>
      <trkpt lat="48.71653" lon="1.85061">
        <ele>174.2</ele>
        <time>2024-04-15T08:46:48Z</time>
      </trkpt>
      <trkpt lat="48.71681" lon="1.85039">
        <ele>174.4</ele>
        <time>2024-04-15T08:46:50Z</time>
      </trkpt>
      <trkpt lat="48.71739" lon="1.84991">
        <ele>174.8</ele>
        <time>2024-04-15T08:46:54Z</time>
      </trkpt>
      <trkpt lat="48.71768" lon="1.84967">
        <ele>175</ele>
        <time>2024-04-15T08:46:56Z</time>
      </trkpt>
      <trkpt lat="48.71821" lon="1.84916">
        <ele>175.6</ele>
        <time>2024-04-15T08:47:00Z</time>
      </trkpt>
      <trkpt lat="48.71833" lon="1.84902">
        <ele>175.6</ele>
        <time>2024-04-15T08:47:01Z</time>
      </trkpt>
      <trkpt lat="48.71885" lon="1.84852">
        <ele>176.2</ele>
        <time>2024-04-15T08:47:05Z</time>
      </trkpt>
      <trkpt lat="48.71893" lon="1.84763">
        <ele>176.6</ele>
        <time>2024-04-15T08:47:08Z</time>
      </trkpt>
      <trkpt lat="48.71927" lon="1.84671">
        <ele>177.2</ele>
        <time>2024-04-15T08:47:12Z</time>
      </trkpt>
      <trkpt lat="48.71961" lon="1.84577">
        <ele>177.6</ele>
        <time>2024-04-15T08:47:16Z</time>
      </trkpt>
      <trkpt lat="48.71969" lon="1.84554">
        <ele>177.8</ele>
        <time>2024-04-15T08:47:17Z</time>
      </trkpt>
      <trkpt lat="48.72004" lon="1.84459">
        <ele>178.4</ele>
        <time>2024-04-15T08:47:21Z</time>
      </trkpt>
      <trkpt lat="48.72039" lon="1.84365">
        <ele>179</ele>
        <time>2024-04-15T08:47:25Z</time>
      </trkpt>
      <trkpt lat="48.72072" lon="1.84275">
        <ele>179.6</ele>
        <time>2024-04-15T08:47:29Z</time>
      </trkpt>
      <trkpt lat="48.72096" lon="1.84209">
        <ele>180</ele>
        <time>2024-04-15T08:47:32Z</time>
      </trkpt>
      <trkpt lat="48.72128" lon="1.84123">
        <ele>180.4</ele>
        <time>2024-04-15T08:47:36Z</time>
      </trkpt>
      <trkpt lat="48.72159" lon="1.84067">
        <ele>180.8</ele>
        <time>2024-04-15T08:47:39Z</time>
      </trkpt>
      <trkpt lat="48.72196" lon="1.84019">
        <ele>181.2</ele>
        <time>2024-04-15T08:47:42Z</time>
      </trkpt>
      <trkpt lat="48.7221" lon="1.84008">
        <ele>181.4</ele>
        <time>2024-04-15T08:47:43Z</time>
      </trkpt>
      <trkpt lat="48.7224" lon="1.83985">
        <ele>181.6</ele>
        <time>2024-04-15T08:47:45Z</time>
      </trkpt>
      <trkpt lat="48.72305" lon="1.83951">
        <ele>182.4</ele>
        <time>2024-04-15T08:47:49Z</time>
      </trkpt>
      <trkpt lat="48.72356" lon="1.83924">
        <ele>182.8</ele>
        <time>2024-04-15T08:47:52Z</time>
      </trkpt>
      <trkpt lat="48.72422" lon="1.83885">
        <ele>183.4</ele>
        <time>2024-04-15T08:47:56Z</time>
      </trkpt>
      <trkpt lat="48.72437" lon="1.83876">
        <ele>183.4</ele>
        <time>2024-04-15T08:47:57Z</time>
      </trkpt>
      <trkpt lat="48.72499" lon="1.83839">
        <ele>184</ele>
        <time>2024-04-15T08:48:01Z</time>
      </trkpt>
      <trkpt lat="48.72546" lon="1.83811">
        <ele>184.2</ele>
        <time>2024-04-15T08:48:04Z</time>
      </trkpt>
      <trkpt lat="48.72612" lon="1.83777">
        <ele>184.6</ele>
        <time>2024-04-15T08:48:08Z</time>
      </trkpt>
      <trkpt lat="48.7263" lon="1.83769">
        <ele>184.6</ele>
        <time>2024-04-15T08:48:09Z</time>
      </trkpt>
      <trkpt lat="48.72697" lon="1.83733">
        <ele>185</ele>
        <time>2024-04-15T08:48:13Z</time>
      </trkpt>
      <trkpt lat="48.72748" lon="1.83706">
        <ele>185.2</ele>
        <time>2024-04-15T08:48:16Z</time>
      </trkpt>
      <trkpt lat="48.72814" lon="1.8367">
        <ele>185.4</ele>
        <time>2024-04-15T08:48:20Z</time>
      </trkpt>
      <trkpt lat="48.72864" lon="1.83643">
        <ele>185.6</ele>
        <time>2024-04-15T08:48:23Z</time>
      </trkpt>
      <trkpt lat="48.72931" lon="1.83607">
        <ele>185.8</ele>
        <time>2024-04-15T08:48:27Z</time>
      </trkpt>
      <trkpt lat="48.72978" lon="1.8358">
        <ele>185.8</ele>
        <time>2024-04-15T08:48:30Z</time>
      </trkpt>
      <trkpt lat="48.73039" lon="1.83545">
        <ele>185.8</ele>
        <time>2024-04-15T08:48:34Z</time>
      </trkpt>
      <trkpt lat="48.73084" lon="1.83519">
        <ele>185.6</ele>
        <time>2024-04-15T08:48:37Z</time>
      </trkpt>
      <trkpt lat="48.73142" lon="1.83486">
        <ele>186</ele>
        <time>2024-04-15T08:48:41Z</time>
      </trkpt>
      <trkpt lat="48.73185" lon="1.83466">
        <ele>185.2</ele>
        <time>2024-04-15T08:48:44Z</time>
      </trkpt>
      <trkpt lat="48.73247" lon="1.83436">
        <ele>185</ele>
        <time>2024-04-15T08:48:48Z</time>
      </trkpt>
      <trkpt lat="48.73295" lon="1.83413">
        <ele>184.6</ele>
        <time>2024-04-15T08:48:51Z</time>
      </trkpt>
      <trkpt lat="48.73357" lon="1.83381">
        <ele>184.4</ele>
        <time>2024-04-15T08:48:55Z</time>
      </trkpt>
      <trkpt lat="48.73419" lon="1.83347">
        <ele>184.2</ele>
        <time>2024-04-15T08:48:59Z</time>
      </trkpt>
      <trkpt lat="48.7348" lon="1.83314">
        <ele>184</ele>
        <time>2024-04-15T08:49:03Z</time>
      </trkpt>
      <trkpt lat="48.7348" lon="1.83314">
        <ele>183.8</ele>
        <time>2024-04-15T08:49:04Z</time>
      </trkpt>
      <trkpt lat="48.73541" lon="1.83281">
        <ele>183.6</ele>
        <time>2024-04-15T08:49:07Z</time>
      </trkpt>
      <trkpt lat="48.73603" lon="1.83247">
        <ele>183.4</ele>
        <time>2024-04-15T08:49:11Z</time>
      </trkpt>
      <trkpt lat="48.73667" lon="1.83211">
        <ele>183.2</ele>
        <time>2024-04-15T08:49:15Z</time>
      </trkpt>
      <trkpt lat="48.73728" lon="1.83177">
        <ele>183</ele>
        <time>2024-04-15T08:49:19Z</time>
      </trkpt>
      <trkpt lat="48.73774" lon="1.83151">
        <ele>183</ele>
        <time>2024-04-15T08:49:22Z</time>
      </trkpt>
      <trkpt lat="48.73832" lon="1.83118">
        <ele>183</ele>
        <time>2024-04-15T08:49:26Z</time>
      </trkpt>
      <trkpt lat="48.73874" lon="1.83097">
        <ele>183</ele>
        <time>2024-04-15T08:49:29Z</time>
      </trkpt>
      <trkpt lat="48.73941" lon="1.83091">
        <ele>183</ele>
        <time>2024-04-15T08:49:34Z</time>
      </trkpt>
      <trkpt lat="48.74005" lon="1.83107">
        <ele>183.4</ele>
        <time>2024-04-15T08:49:38Z</time>
      </trkpt>
      <trkpt lat="48.74074" lon="1.83123">
        <ele>183.4</ele>
        <time>2024-04-15T08:49:42Z</time>
      </trkpt>
      <trkpt lat="48.74129" lon="1.83135">
        <ele>183.6</ele>
        <time>2024-04-15T08:49:45Z</time>
      </trkpt>
      <trkpt lat="48.74186" lon="1.83148">
        <ele>183.8</ele>
        <time>2024-04-15T08:49:48Z</time>
      </trkpt>
      <trkpt lat="48.74242" lon="1.83161">
        <ele>184</ele>
        <time>2024-04-15T08:49:51Z</time>
      </trkpt>
      <trkpt lat="48.74279" lon="1.83169">
        <ele>184.2</ele>
        <time>2024-04-15T08:49:53Z</time>
      </trkpt>
      <trkpt lat="48.74334" lon="1.83181">
        <ele>184.4</ele>
        <time>2024-04-15T08:49:56Z</time>
      </trkpt>
      <trkpt lat="48.74387" lon="1.83193">
        <ele>184.6</ele>
        <time>2024-04-15T08:49:59Z</time>
      </trkpt>
      <trkpt lat="48.74422" lon="1.83201">
        <ele>184.8</ele>
        <time>2024-04-15T08:50:01Z</time>
      </trkpt>
      <trkpt lat="48.74491" lon="1.83216">
        <ele>185</ele>
        <time>2024-04-15T08:50:05Z</time>
      </trkpt>
      <trkpt lat="48.74525" lon="1.83212">
        <ele>185.2</ele>
        <time>2024-04-15T08:50:07Z</time>
      </trkpt>
      <trkpt lat="48.7458" lon="1.83205">
        <ele>185.4</ele>
        <time>2024-04-15T08:50:10Z</time>
      </trkpt>
      <trkpt lat="48.74616" lon="1.83201">
        <ele>185.4</ele>
        <time>2024-04-15T08:50:12Z</time>
      </trkpt>
      <trkpt lat="48.74687" lon="1.83196">
        <ele>185.6</ele>
        <time>2024-04-15T08:50:16Z</time>
      </trkpt>
      <trkpt lat="48.74705" lon="1.83197">
        <ele>185.8</ele>
        <time>2024-04-15T08:50:17Z</time>
      </trkpt>
      <trkpt lat="48.7476" lon="1.83213">
        <ele>186</ele>
        <time>2024-04-15T08:50:20Z</time>
      </trkpt>
      <trkpt lat="48.74809" lon="1.83248">
        <ele>186</ele>
        <time>2024-04-15T08:50:23Z</time>
      </trkpt>
      <trkpt lat="48.74868" lon="1.83283">
        <ele>186.2</ele>
        <time>2024-04-15T08:50:27Z</time>
      </trkpt>
      <trkpt lat="48.74888" lon="1.83283">
        <ele>186.2</ele>
        <time>2024-04-15T08:50:28Z</time>
      </trkpt>
      <trkpt lat="48.7494" lon="1.83272">
        <ele>186.4</ele>
        <time>2024-04-15T08:50:32Z</time>
      </trkpt>
      <trkpt lat="48.74997" lon="1.83254">
        <ele>186.8</ele>
        <time>2024-04-15T08:50:36Z</time>
      </trkpt>
      <trkpt lat="48.75011" lon="1.83249">
        <ele>187</ele>
        <time>2024-04-15T08:50:37Z</time>
      </trkpt>
      <trkpt lat="48.75078" lon="1.83244">
        <ele>187.4</ele>
        <time>2024-04-15T08:50:41Z</time>
      </trkpt>
      <trkpt lat="48.75094" lon="1.83243">
        <ele>187.4</ele>
        <time>2024-04-15T08:50:42Z</time>
      </trkpt>
      <trkpt lat="48.75162" lon="1.83225">
        <ele>187.8</ele>
        <time>2024-04-15T08:50:46Z</time>
      </trkpt>
      <trkpt lat="48.75197" lon="1.83203">
        <ele>188.2</ele>
        <time>2024-04-15T08:50:48Z</time>
      </trkpt>
      <trkpt lat="48.75271" lon="1.83159">
        <ele>188.6</ele>
        <time>2024-04-15T08:50:52Z</time>
      </trkpt>
      <trkpt lat="48.75285" lon="1.83157">
        <ele>188.6</ele>
        <time>2024-04-15T08:50:53Z</time>
      </trkpt>
      <trkpt lat="48.75333" lon="1.83176">
        <ele>188.8</ele>
        <time>2024-04-15T08:50:57Z</time>
      </trkpt>
      <trkpt lat="48.75341" lon="1.83181">
        <ele>188.8</ele>
        <time>2024-04-15T08:50:58Z</time>
      </trkpt>
      <trkpt lat="48.75356" lon="1.83191">
        <ele>188.8</ele>
        <time>2024-04-15T08:51:00Z</time>
      </trkpt>
      <trkpt lat="48.75383" lon="1.83209">
        <ele>189</ele>
        <time>2024-04-15T08:51:03Z</time>
      </trkpt>
      <trkpt lat="48.75391" lon="1.83214">
        <ele>189</ele>
        <time>2024-04-15T08:51:05Z</time>
      </trkpt>
      <trkpt lat="48.75427" lon="1.83223">
        <ele>187.6</ele>
        <time>2024-04-15T08:51:09Z</time>
      </trkpt>
      <trkpt lat="48.75433" lon="1.83221">
        <ele>187.8</ele>
        <time>2024-04-15T08:51:10Z</time>
      </trkpt>
      <trkpt lat="48.75449" lon="1.83217">
        <ele>187.6</ele>
        <time>2024-04-15T08:51:11Z</time>
      </trkpt>
      <trkpt lat="48.75469" lon="1.83212">
        <ele>187.4</ele>
        <time>2024-04-15T08:51:13Z</time>
      </trkpt>
      <trkpt lat="48.7549" lon="1.83212">
        <ele>186.6</ele>
        <time>2024-04-15T08:51:17Z</time>
      </trkpt>
      <trkpt lat="48.75498" lon="1.83222">
        <ele>186.2</ele>
        <time>2024-04-15T08:51:19Z</time>
      </trkpt>
      <trkpt lat="48.75507" lon="1.83233">
        <ele>186</ele>
        <time>2024-04-15T08:51:20Z</time>
      </trkpt>
      <trkpt lat="48.75507" lon="1.83233">
        <ele>185.6</ele>
        <time>2024-04-15T08:51:21Z</time>
      </trkpt>
      <trkpt lat="48.75515" lon="1.83259">
        <ele>184.8</ele>
        <time>2024-04-15T08:51:23Z</time>
      </trkpt>
      <trkpt lat="48.75534" lon="1.83318">
        <ele>183.2</ele>
        <time>2024-04-15T08:51:28Z</time>
      </trkpt>
      <trkpt lat="48.75556" lon="1.83381">
        <ele>181.4</ele>
        <time>2024-04-15T08:51:34Z</time>
      </trkpt>
      <trkpt lat="48.75581" lon="1.8345">
        <ele>178.4</ele>
        <time>2024-04-15T08:51:42Z</time>
      </trkpt>
      <trkpt lat="48.75599" lon="1.83497">
        <ele>174.8</ele>
        <time>2024-04-15T08:51:49Z</time>
      </trkpt>
      <trkpt lat="48.756" lon="1.835">
        <ele>173.6</ele>
        <time>2024-04-15T08:51:51Z</time>
      </trkpt>
      <trkpt lat="48.756" lon="1.835">
        <ele>173</ele>
        <time>2024-04-15T08:51:52Z</time>
      </trkpt>
      <trkpt lat="48.75602" lon="1.83504">
        <ele>171</ele>
        <time>2024-04-15T08:51:57Z</time>
      </trkpt>
      <trkpt lat="48.75599" lon="1.83498">
        <ele>170.6</ele>
        <time>2024-04-15T08:51:58Z</time>
      </trkpt>
      <trkpt lat="48.75611" lon="1.83508">
        <ele>168.8</ele>
        <time>2024-04-15T08:52:02Z</time>
      </trkpt>
      <trkpt lat="48.75622" lon="1.83512">
        <ele>167.8</ele>
        <time>2024-04-15T08:52:04Z</time>
      </trkpt>
      <trkpt lat="48.75633" lon="1.83517">
        <ele>166.8</ele>
        <time>2024-04-15T08:52:06Z</time>
      </trkpt>
      <trkpt lat="48.75657" lon="1.83532">
        <ele>164.4</ele>
        <time>2024-04-15T08:52:10Z</time>
      </trkpt>
      <trkpt lat="48.75691" lon="1.83599">
        <ele>159.8</ele>
        <time>2024-04-15T08:52:18Z</time>
      </trkpt>
      <trkpt lat="48.75712" lon="1.83655">
        <ele>155</ele>
        <time>2024-04-15T08:52:26Z</time>
      </trkpt>
      <trkpt lat="48.75725" lon="1.83673">
        <ele>152.4</ele>
        <time>2024-04-15T08:52:31Z</time>
      </trkpt>
      <trkpt lat="48.75743" lon="1.83693">
        <ele>149</ele>
        <time>2024-04-15T08:52:38Z</time>
      </trkpt>
      <trkpt lat="48.75767" lon="1.8372">
        <ele>145.8</ele>
        <time>2024-04-15T08:52:45Z</time>
      </trkpt>
      <trkpt lat="48.75779" lon="1.83733">
        <ele>144.4</ele>
        <time>2024-04-15T08:52:48Z</time>
      </trkpt>
      <trkpt lat="48.75793" lon="1.8374">
        <ele>143</ele>
        <time>2024-04-15T08:52:51Z</time>
      </trkpt>
      <trkpt lat="48.75805" lon="1.83742">
        <ele>140.8</ele>
        <time>2024-04-15T08:52:56Z</time>
      </trkpt>
      <trkpt lat="48.75808" lon="1.83739">
        <ele>138.8</ele>
        <time>2024-04-15T08:53:00Z</time>
      </trkpt>
      <trkpt lat="48.75808" lon="1.83739">
        <ele>133.2</ele>
        <time>2024-04-15T08:53:17Z</time>
      </trkpt>
      <trkpt lat="48.7581" lon="1.83736">
        <ele>131.8</ele>
        <time>2024-04-15T08:53:20Z</time>
      </trkpt>
      <trkpt lat="48.75813" lon="1.83731">
        <ele>131.2</ele>
        <time>2024-04-15T08:53:22Z</time>
      </trkpt>
      <trkpt lat="48.75826" lon="1.83712">
        <ele>130</ele>
        <time>2024-04-15T08:53:26Z</time>
      </trkpt>
      <trkpt lat="48.75837" lon="1.83671">
        <ele>128.8</ele>
        <time>2024-04-15T08:53:30Z</time>
      </trkpt>
      <trkpt lat="48.75864" lon="1.836">
        <ele>127.4</ele>
        <time>2024-04-15T08:53:36Z</time>
      </trkpt>
      <trkpt lat="48.75891" lon="1.83549">
        <ele>126.4</ele>
        <time>2024-04-15T08:53:41Z</time>
      </trkpt>
      <trkpt lat="48.75901" lon="1.83544">
        <ele>126</ele>
        <time>2024-04-15T08:53:42Z</time>
      </trkpt>
      <trkpt lat="48.75919" lon="1.83536">
        <ele>125.8</ele>
        <time>2024-04-15T08:53:44Z</time>
      </trkpt>
      <trkpt lat="48.75945" lon="1.83532">
        <ele>125.4</ele>
        <time>2024-04-15T08:53:47Z</time>
      </trkpt>
      <trkpt lat="48.75956" lon="1.83533">
        <ele>125.2</ele>
        <time>2024-04-15T08:53:48Z</time>
      </trkpt>
      <trkpt lat="48.75992" lon="1.83528">
        <ele>124.8</ele>
        <time>2024-04-15T08:53:51Z</time>
      </trkpt>
      <trkpt lat="48.76009" lon="1.83512">
        <ele>124.6</ele>
        <time>2024-04-15T08:53:53Z</time>
      </trkpt>
      <trkpt lat="48.76016" lon="1.83504">
        <ele>124.4</ele>
        <time>2024-04-15T08:53:54Z</time>
      </trkpt>
      <trkpt lat="48.76029" lon="1.83496">
        <ele>124</ele>
        <time>2024-04-15T08:53:56Z</time>
      </trkpt>
      <trkpt lat="48.76035" lon="1.83493">
        <ele>123.6</ele>
        <time>2024-04-15T08:53:57Z</time>
      </trkpt>
      <trkpt lat="48.76046" lon="1.83487">
        <ele>122.8</ele>
        <time>2024-04-15T08:54:00Z</time>
      </trkpt>
      <trkpt lat="48.7605" lon="1.83481">
        <ele>122</ele>
        <time>2024-04-15T08:54:03Z</time>
      </trkpt>
      <trkpt lat="48.7605" lon="1.83481">
        <ele>121.8</ele>
        <time>2024-04-15T08:54:04Z</time>
      </trkpt>
      <trkpt lat="48.76051" lon="1.83458">
        <ele>121</ele>
        <time>2024-04-15T08:54:08Z</time>
      </trkpt>
      <trkpt lat="48.76056" lon="1.83413">
        <ele>119.8</ele>
        <time>2024-04-15T08:54:14Z</time>
      </trkpt>
      <trkpt lat="48.76067" lon="1.83379">
        <ele>118.6</ele>
        <time>2024-04-15T08:54:20Z</time>
      </trkpt>
      <trkpt lat="48.76085" lon="1.83339">
        <ele>118</ele>
        <time>2024-04-15T08:54:25Z</time>
      </trkpt>
      <trkpt lat="48.76108" lon="1.83286">
        <ele>117.2</ele>
        <time>2024-04-15T08:54:30Z</time>
      </trkpt>
      <trkpt lat="48.76134" lon="1.83227">
        <ele>116.8</ele>
        <time>2024-04-15T08:54:34Z</time>
      </trkpt>
      <trkpt lat="48.76165" lon="1.83159">
        <ele>116.8</ele>
        <time>2024-04-15T08:54:38Z</time>
      </trkpt>
      <trkpt lat="48.76181" lon="1.83123">
        <ele>116.8</ele>
        <time>2024-04-15T08:54:40Z</time>
      </trkpt>
      <trkpt lat="48.76214" lon="1.8305">
        <ele>117</ele>
        <time>2024-04-15T08:54:44Z</time>
      </trkpt>
      <trkpt lat="48.76246" lon="1.82977">
        <ele>117.2</ele>
        <time>2024-04-15T08:54:48Z</time>
      </trkpt>
      <trkpt lat="48.76255" lon="1.82959">
        <ele>116.2</ele>
        <time>2024-04-15T08:54:49Z</time>
      </trkpt>
      <trkpt lat="48.76283" lon="1.82894">
        <ele>118.2</ele>
        <time>2024-04-15T08:54:53Z</time>
      </trkpt>
      <trkpt lat="48.76303" lon="1.82828">
        <ele>117.8</ele>
        <time>2024-04-15T08:54:57Z</time>
      </trkpt>
      <trkpt lat="48.76318" lon="1.82747">
        <ele>118.2</ele>
        <time>2024-04-15T08:55:01Z</time>
      </trkpt>
      <trkpt lat="48.76334" lon="1.82657">
        <ele>118.6</ele>
        <time>2024-04-15T08:55:05Z</time>
      </trkpt>
      <trkpt lat="48.76345" lon="1.82592">
        <ele>119.2</ele>
        <time>2024-04-15T08:55:08Z</time>
      </trkpt>
      <trkpt lat="48.7636" lon="1.82533">
        <ele>119.6</ele>
        <time>2024-04-15T08:55:11Z</time>
      </trkpt>
      <trkpt lat="48.76369" lon="1.82521">
        <ele>119.8</ele>
        <time>2024-04-15T08:55:12Z</time>
      </trkpt>
      <trkpt lat="48.76378" lon="1.82511">
        <ele>119.8</ele>
        <time>2024-04-15T08:55:13Z</time>
      </trkpt>
      <trkpt lat="48.76378" lon="1.82511">
        <ele>120</ele>
        <time>2024-04-15T08:55:14Z</time>
      </trkpt>
      <trkpt lat="48.76397" lon="1.82494">
        <ele>120</ele>
        <time>2024-04-15T08:55:15Z</time>
      </trkpt>
      <trkpt lat="48.7642" lon="1.82479">
        <ele>120.2</ele>
        <time>2024-04-15T08:55:17Z</time>
      </trkpt>
      <trkpt lat="48.76471" lon="1.82447">
        <ele>120.4</ele>
        <time>2024-04-15T08:55:21Z</time>
      </trkpt>
      <trkpt lat="48.76497" lon="1.82431">
        <ele>120.4</ele>
        <time>2024-04-15T08:55:23Z</time>
      </trkpt>
      <trkpt lat="48.76548" lon="1.82399">
        <ele>120.6</ele>
        <time>2024-04-15T08:55:27Z</time>
      </trkpt>
      <trkpt lat="48.76572" lon="1.82385">
        <ele>120.6</ele>
        <time>2024-04-15T08:55:29Z</time>
      </trkpt>
      <trkpt lat="48.76595" lon="1.82376">
        <ele>120.6</ele>
        <time>2024-04-15T08:55:31Z</time>
      </trkpt>
      <trkpt lat="48.76617" lon="1.8237">
        <ele>120.6</ele>
        <time>2024-04-15T08:55:33Z</time>
      </trkpt>
      <trkpt lat="48.7667" lon="1.82362">
        <ele>120.8</ele>
        <time>2024-04-15T08:55:38Z</time>
      </trkpt>
      <trkpt lat="48.76712" lon="1.82342">
        <ele>121</ele>
        <time>2024-04-15T08:55:42Z</time>
      </trkpt>
      <trkpt lat="48.76723" lon="1.82333">
        <ele>121</ele>
        <time>2024-04-15T08:55:43Z</time>
      </trkpt>
      <trkpt lat="48.76741" lon="1.82313">
        <ele>121</ele>
        <time>2024-04-15T08:55:45Z</time>
      </trkpt>
      <trkpt lat="48.7676" lon="1.82272">
        <ele>121.2</ele>
        <time>2024-04-15T08:55:48Z</time>
      </trkpt>
      <trkpt lat="48.76765" lon="1.82256">
        <ele>121.2</ele>
        <time>2024-04-15T08:55:49Z</time>
      </trkpt>
      <trkpt lat="48.7677" lon="1.8224">
        <ele>121.4</ele>
        <time>2024-04-15T08:55:50Z</time>
      </trkpt>
      <trkpt lat="48.7678" lon="1.8221">
        <ele>121.4</ele>
        <time>2024-04-15T08:55:52Z</time>
      </trkpt>
      <trkpt lat="48.76806" lon="1.82132">
        <ele>121.8</ele>
        <time>2024-04-15T08:55:57Z</time>
      </trkpt>
      <trkpt lat="48.76814" lon="1.82117">
        <ele>121.8</ele>
        <time>2024-04-15T08:55:58Z</time>
      </trkpt>
      <trkpt lat="48.76829" lon="1.82099">
        <ele>122</ele>
        <time>2024-04-15T08:56:00Z</time>
      </trkpt>
      <trkpt lat="48.76847" lon="1.8208">
        <ele>122</ele>
        <time>2024-04-15T08:56:02Z</time>
      </trkpt>
      <trkpt lat="48.76865" lon="1.82059">
        <ele>122.2</ele>
        <time>2024-04-15T08:56:04Z</time>
      </trkpt>
      <trkpt lat="48.76895" lon="1.82024">
        <ele>122.2</ele>
        <time>2024-04-15T08:56:07Z</time>
      </trkpt>
      <trkpt lat="48.76949" lon="1.81963">
        <ele>122.6</ele>
        <time>2024-04-15T08:56:12Z</time>
      </trkpt>
      <trkpt lat="48.7699" lon="1.81907">
        <ele>122.6</ele>
        <time>2024-04-15T08:56:16Z</time>
      </trkpt>
      <trkpt lat="48.77025" lon="1.8185">
        <ele>122.8</ele>
        <time>2024-04-15T08:56:20Z</time>
      </trkpt>
      <trkpt lat="48.77069" lon="1.81779">
        <ele>123</ele>
        <time>2024-04-15T08:56:25Z</time>
      </trkpt>
      <trkpt lat="48.77069" lon="1.81779">
        <ele>123</ele>
        <time>2024-04-15T08:56:26Z</time>
      </trkpt>
      <trkpt lat="48.7711" lon="1.81708">
        <ele>123</ele>
        <time>2024-04-15T08:56:30Z</time>
      </trkpt>
      <trkpt lat="48.77124" lon="1.81684">
        <ele>123.2</ele>
        <time>2024-04-15T08:56:32Z</time>
      </trkpt>
      <trkpt lat="48.77153" lon="1.81632">
        <ele>123.4</ele>
        <time>2024-04-15T08:56:37Z</time>
      </trkpt>
      <trkpt lat="48.77173" lon="1.81593">
        <ele>123.4</ele>
        <time>2024-04-15T08:56:42Z</time>
      </trkpt>
      <trkpt lat="48.7719" lon="1.81546">
        <ele>123.6</ele>
        <time>2024-04-15T08:56:47Z</time>
      </trkpt>
      <trkpt lat="48.772" lon="1.81488">
        <ele>123.8</ele>
        <time>2024-04-15T08:56:51Z</time>
      </trkpt>
      <trkpt lat="48.77218" lon="1.81398">
        <ele>124</ele>
        <time>2024-04-15T08:56:57Z</time>
      </trkpt>
      <trkpt lat="48.77222" lon="1.81384">
        <ele>124</ele>
        <time>2024-04-15T08:56:58Z</time>
      </trkpt>
      <trkpt lat="48.77237" lon="1.81336">
        <ele>124.2</ele>
        <time>2024-04-15T08:57:02Z</time>
      </trkpt>
      <trkpt lat="48.7725" lon="1.81306">
        <ele>124.4</ele>
        <time>2024-04-15T08:57:05Z</time>
      </trkpt>
      <trkpt lat="48.77263" lon="1.81289">
        <ele>124.6</ele>
        <time>2024-04-15T08:57:07Z</time>
      </trkpt>
      <trkpt lat="48.77303" lon="1.81244">
        <ele>124.8</ele>
        <time>2024-04-15T08:57:13Z</time>
      </trkpt>
      <trkpt lat="48.77345" lon="1.81202">
        <ele>125.2</ele>
        <time>2024-04-15T08:57:19Z</time>
      </trkpt>
      <trkpt lat="48.77383" lon="1.81163">
        <ele>125.6</ele>
        <time>2024-04-15T08:57:25Z</time>
      </trkpt>
      <trkpt lat="48.77387" lon="1.81159">
        <ele>125.6</ele>
        <time>2024-04-15T08:57:26Z</time>
      </trkpt>
      <trkpt lat="48.77395" lon="1.8116">
        <ele>125.6</ele>
        <time>2024-04-15T08:57:28Z</time>
      </trkpt>
      <trkpt lat="48.77411" lon="1.81144">
        <ele>126</ele>
        <time>2024-04-15T08:57:35Z</time>
      </trkpt>
      <trkpt lat="48.77418" lon="1.81135">
        <ele>126.2</ele>
        <time>2024-04-15T08:57:40Z</time>
      </trkpt>
      <trkpt lat="48.77418" lon="1.81135">
        <ele>126.6</ele>
        <time>2024-04-15T08:57:48Z</time>
      </trkpt>
      <trkpt lat="48.77424" lon="1.81127">
        <ele>126.8</ele>
        <time>2024-04-15T08:57:53Z</time>
      </trkpt>
      <trkpt lat="48.77438" lon="1.81106">
        <ele>127</ele>
        <time>2024-04-15T08:57:57Z</time>
      </trkpt>
      <trkpt lat="48.77451" lon="1.81073">
        <ele>127.2</ele>
        <time>2024-04-15T08:58:01Z</time>
      </trkpt>
      <trkpt lat="48.77453" lon="1.81052">
        <ele>127.2</ele>
        <time>2024-04-15T08:58:03Z</time>
      </trkpt>
      <trkpt lat="48.77452" lon="1.8104">
        <ele>127.2</ele>
        <time>2024-04-15T08:58:04Z</time>
      </trkpt>
      <trkpt lat="48.77447" lon="1.80983">
        <ele>127.2</ele>
        <time>2024-04-15T08:58:09Z</time>
      </trkpt>
      <trkpt lat="48.77447" lon="1.80966">
        <ele>127.6</ele>
        <time>2024-04-15T08:58:12Z</time>
      </trkpt>
      <trkpt lat="48.77447" lon="1.80957">
        <ele>127.6</ele>
        <time>2024-04-15T08:58:16Z</time>
      </trkpt>
      <trkpt lat="48.77449" lon="1.80928">
        <ele>127.6</ele>
        <time>2024-04-15T08:58:20Z</time>
      </trkpt>
      <trkpt lat="48.77452" lon="1.80873">
        <ele>127.6</ele>
        <time>2024-04-15T08:58:25Z</time>
      </trkpt>
      <trkpt lat="48.77469" lon="1.80817">
        <ele>127.8</ele>
        <time>2024-04-15T08:58:30Z</time>
      </trkpt>
      <trkpt lat="48.77491" lon="1.80766">
        <ele>128</ele>
        <time>2024-04-15T08:58:36Z</time>
      </trkpt>
      <trkpt lat="48.77518" lon="1.80708">
        <ele>128.2</ele>
        <time>2024-04-15T08:58:42Z</time>
      </trkpt>
      <trkpt lat="48.77548" lon="1.80652">
        <ele>128.6</ele>
        <time>2024-04-15T08:58:50Z</time>
      </trkpt>
      <trkpt lat="48.77554" lon="1.80633">
        <ele>128.6</ele>
        <time>2024-04-15T08:58:54Z</time>
      </trkpt>
      <trkpt lat="48.77553" lon="1.80625">
        <ele>128.8</ele>
        <time>2024-04-15T08:58:58Z</time>
      </trkpt>
      <trkpt lat="48.77547" lon="1.80616">
        <ele>128.8</ele>
        <time>2024-04-15T08:59:00Z</time>
      </trkpt>
      <trkpt lat="48.77535" lon="1.80598">
        <ele>128.8</ele>
        <time>2024-04-15T08:59:03Z</time>
      </trkpt>
      <trkpt lat="48.77514" lon="1.80564">
        <ele>129</ele>
        <time>2024-04-15T08:59:08Z</time>
      </trkpt>
      <trkpt lat="48.77511" lon="1.80559">
        <ele>129</ele>
        <time>2024-04-15T08:59:09Z</time>
      </trkpt>
      <trkpt lat="48.77498" lon="1.8054">
        <ele>129.4</ele>
        <time>2024-04-15T08:59:14Z</time>
      </trkpt>
      <trkpt lat="48.77495" lon="1.80512">
        <ele>129.6</ele>
        <time>2024-04-15T08:59:19Z</time>
      </trkpt>
      <trkpt lat="48.77492" lon="1.80496">
        <ele>129.8</ele>
        <time>2024-04-15T08:59:21Z</time>
      </trkpt>
      <trkpt lat="48.77488" lon="1.80478">
        <ele>130</ele>
        <time>2024-04-15T08:59:23Z</time>
      </trkpt>
      <trkpt lat="48.77486" lon="1.80468">
        <ele>130.4</ele>
        <time>2024-04-15T08:59:26Z</time>
      </trkpt>
      <trkpt lat="48.77447" lon="1.8039">
        <ele>131</ele>
        <time>2024-04-15T08:59:30Z</time>
      </trkpt>
      <trkpt lat="48.77441" lon="1.80377">
        <ele>131.2</ele>
        <time>2024-04-15T08:59:31Z</time>
      </trkpt>
      <trkpt lat="48.77405" lon="1.80308">
        <ele>131.8</ele>
        <time>2024-04-15T08:59:36Z</time>
      </trkpt>
      <trkpt lat="48.7739" lon="1.80279">
        <ele>132.2</ele>
        <time>2024-04-15T08:59:38Z</time>
      </trkpt>
      <trkpt lat="48.77353" lon="1.80208">
        <ele>133</ele>
        <time>2024-04-15T08:59:43Z</time>
      </trkpt>
      <trkpt lat="48.77317" lon="1.8014">
        <ele>134</ele>
        <time>2024-04-15T08:59:48Z</time>
      </trkpt>
      <trkpt lat="48.77311" lon="1.80127">
        <ele>134.2</ele>
        <time>2024-04-15T08:59:49Z</time>
      </trkpt>
      <trkpt lat="48.77279" lon="1.80057">
        <ele>135.2</ele>
        <time>2024-04-15T08:59:54Z</time>
      </trkpt>
      <trkpt lat="48.77271" lon="1.80043">
        <ele>135.4</ele>
        <time>2024-04-15T08:59:55Z</time>
      </trkpt>
      <trkpt lat="48.77231" lon="1.79974">
        <ele>136.8</ele>
        <time>2024-04-15T09:00:00Z</time>
      </trkpt>
      <trkpt lat="48.77208" lon="1.79936">
        <ele>138</ele>
        <time>2024-04-15T09:00:03Z</time>
      </trkpt>
      <trkpt lat="48.77172" lon="1.79874">
        <ele>139.8</ele>
        <time>2024-04-15T09:00:08Z</time>
      </trkpt>
      <trkpt lat="48.77165" lon="1.79863">
        <ele>140.2</ele>
        <time>2024-04-15T09:00:09Z</time>
      </trkpt>
      <trkpt lat="48.77123" lon="1.79801">
        <ele>142.2</ele>
        <time>2024-04-15T09:00:15Z</time>
      </trkpt>
      <trkpt lat="48.77099" lon="1.7976">
        <ele>143.4</ele>
        <time>2024-04-15T09:00:19Z</time>
      </trkpt>
      <trkpt lat="48.7708" lon="1.79661">
        <ele>155.8</ele>
        <time>2024-04-15T09:04:29Z</time>
      </trkpt>
      <trkpt lat="48.77082" lon="1.79654">
        <ele>156.2</ele>
        <time>2024-04-15T09:04:33Z</time>
      </trkpt>
      <trkpt lat="48.77082" lon="1.79654">
        <ele>156.8</ele>
        <time>2024-04-15T09:04:44Z</time>
      </trkpt>
      <trkpt lat="48.77083" lon="1.7965">
        <ele>158.2</ele>
        <time>2024-04-15T09:05:02Z</time>
      </trkpt>
      <trkpt lat="48.77086" lon="1.79637">
        <ele>158.8</ele>
        <time>2024-04-15T09:05:05Z</time>
      </trkpt>
      <trkpt lat="48.77095" lon="1.79603">
        <ele>159.6</ele>
        <time>2024-04-15T09:05:09Z</time>
      </trkpt>
      <trkpt lat="48.77111" lon="1.79543">
        <ele>160.4</ele>
        <time>2024-04-15T09:05:14Z</time>
      </trkpt>
      <trkpt lat="48.77131" lon="1.79467">
        <ele>161</ele>
        <time>2024-04-15T09:05:20Z</time>
      </trkpt>
      <trkpt lat="48.77137" lon="1.79443">
        <ele>161.2</ele>
        <time>2024-04-15T09:05:23Z</time>
      </trkpt>
      <trkpt lat="48.77147" lon="1.79411">
        <ele>161.6</ele>
        <time>2024-04-15T09:05:28Z</time>
      </trkpt>
      <trkpt lat="48.77154" lon="1.79393">
        <ele>161.8</ele>
        <time>2024-04-15T09:05:30Z</time>
      </trkpt>
      <trkpt lat="48.77158" lon="1.79383">
        <ele>162</ele>
        <time>2024-04-15T09:05:31Z</time>
      </trkpt>
      <trkpt lat="48.77186" lon="1.79345">
        <ele>162.4</ele>
        <time>2024-04-15T09:05:35Z</time>
      </trkpt>
      <trkpt lat="48.77231" lon="1.79288">
        <ele>163</ele>
        <time>2024-04-15T09:05:41Z</time>
      </trkpt>
      <trkpt lat="48.77238" lon="1.79279">
        <ele>163</ele>
        <time>2024-04-15T09:05:42Z</time>
      </trkpt>
      <trkpt lat="48.77275" lon="1.79239">
        <ele>163.2</ele>
        <time>2024-04-15T09:05:47Z</time>
      </trkpt>
      <trkpt lat="48.77286" lon="1.79228">
        <ele>163.4</ele>
        <time>2024-04-15T09:05:50Z</time>
      </trkpt>
      <trkpt lat="48.77305" lon="1.79209">
        <ele>163.6</ele>
        <time>2024-04-15T09:05:55Z</time>
      </trkpt>
      <trkpt lat="48.77332" lon="1.79183">
        <ele>163.6</ele>
        <time>2024-04-15T09:05:59Z</time>
      </trkpt>
      <trkpt lat="48.77368" lon="1.79144">
        <ele>163.8</ele>
        <time>2024-04-15T09:06:04Z</time>
      </trkpt>
      <trkpt lat="48.77389" lon="1.79116">
        <ele>163.8</ele>
        <time>2024-04-15T09:06:08Z</time>
      </trkpt>
      <trkpt lat="48.77397" lon="1.79105">
        <ele>164</ele>
        <time>2024-04-15T09:06:11Z</time>
      </trkpt>
      <trkpt lat="48.77411" lon="1.7911">
        <ele>164</ele>
        <time>2024-04-15T09:06:16Z</time>
      </trkpt>
      <trkpt lat="48.77419" lon="1.79122">
        <ele>164</ele>
        <time>2024-04-15T09:06:19Z</time>
      </trkpt>
      <trkpt lat="48.7744" lon="1.79153">
        <ele>164.2</ele>
        <time>2024-04-15T09:06:22Z</time>
      </trkpt>
      <trkpt lat="48.77475" lon="1.79206">
        <ele>164.4</ele>
        <time>2024-04-15T09:06:26Z</time>
      </trkpt>
      <trkpt lat="48.77521" lon="1.79276">
        <ele>164.6</ele>
        <time>2024-04-15T09:06:31Z</time>
      </trkpt>
      <trkpt lat="48.77537" lon="1.79306">
        <ele>164.8</ele>
        <time>2024-04-15T09:06:33Z</time>
      </trkpt>
      <trkpt lat="48.77579" lon="1.79386">
        <ele>165.2</ele>
        <time>2024-04-15T09:06:38Z</time>
      </trkpt>
      <trkpt lat="48.77588" lon="1.79402">
        <ele>165.4</ele>
        <time>2024-04-15T09:06:39Z</time>
      </trkpt>
      <trkpt lat="48.77627" lon="1.7948">
        <ele>166</ele>
        <time>2024-04-15T09:06:44Z</time>
      </trkpt>
      <trkpt lat="48.77634" lon="1.79497">
        <ele>166</ele>
        <time>2024-04-15T09:06:45Z</time>
      </trkpt>
      <trkpt lat="48.7767" lon="1.7958">
        <ele>166.4</ele>
        <time>2024-04-15T09:06:50Z</time>
      </trkpt>
      <trkpt lat="48.77699" lon="1.79659">
        <ele>167</ele>
        <time>2024-04-15T09:06:55Z</time>
      </trkpt>
      <trkpt lat="48.77725" lon="1.79747">
        <ele>167.6</ele>
        <time>2024-04-15T09:07:01Z</time>
      </trkpt>
      <trkpt lat="48.7775" lon="1.7983">
        <ele>168.2</ele>
        <time>2024-04-15T09:07:06Z</time>
      </trkpt>
      <trkpt lat="48.77767" lon="1.79886">
        <ele>168.6</ele>
        <time>2024-04-15T09:07:10Z</time>
      </trkpt>
      <trkpt lat="48.77781" lon="1.79935">
        <ele>169.2</ele>
        <time>2024-04-15T09:07:15Z</time>
      </trkpt>
      <trkpt lat="48.778" lon="1.79979">
        <ele>169.6</ele>
        <time>2024-04-15T09:07:20Z</time>
      </trkpt>
      <trkpt lat="48.77822" lon="1.80036">
        <ele>170.4</ele>
        <time>2024-04-15T09:07:26Z</time>
      </trkpt>
      <trkpt lat="48.77848" lon="1.801">
        <ele>170.8</ele>
        <time>2024-04-15T09:07:31Z</time>
      </trkpt>
      <trkpt lat="48.77878" lon="1.80173">
        <ele>170.8</ele>
        <time>2024-04-15T09:07:37Z</time>
      </trkpt>
      <trkpt lat="48.77888" lon="1.80197">
        <ele>171</ele>
        <time>2024-04-15T09:07:39Z</time>
      </trkpt>
      <trkpt lat="48.77906" lon="1.80231">
        <ele>171</ele>
        <time>2024-04-15T09:07:42Z</time>
      </trkpt>
      <trkpt lat="48.77919" lon="1.80249">
        <ele>171</ele>
        <time>2024-04-15T09:07:44Z</time>
      </trkpt>
      <trkpt lat="48.77924" lon="1.80275">
        <ele>171</ele>
        <time>2024-04-15T09:07:46Z</time>
      </trkpt>
      <trkpt lat="48.77939" lon="1.80346">
        <ele>171</ele>
        <time>2024-04-15T09:07:51Z</time>
      </trkpt>
      <trkpt lat="48.77951" lon="1.80406">
        <ele>171</ele>
        <time>2024-04-15T09:07:55Z</time>
      </trkpt>
      <trkpt lat="48.77967" lon="1.80472">
        <ele>171</ele>
        <time>2024-04-15T09:07:59Z</time>
      </trkpt>
      <trkpt lat="48.77994" lon="1.80565">
        <ele>170.6</ele>
        <time>2024-04-15T09:08:04Z</time>
      </trkpt>
      <trkpt lat="48.78001" lon="1.80584">
        <ele>170.6</ele>
        <time>2024-04-15T09:08:05Z</time>
      </trkpt>
      <trkpt lat="48.78036" lon="1.80658">
        <ele>170.2</ele>
        <time>2024-04-15T09:08:09Z</time>
      </trkpt>
      <trkpt lat="48.78048" lon="1.80676">
        <ele>170.2</ele>
        <time>2024-04-15T09:08:10Z</time>
      </trkpt>
      <trkpt lat="48.78071" lon="1.80713">
        <ele>170</ele>
        <time>2024-04-15T09:08:12Z</time>
      </trkpt>
      <trkpt lat="48.78117" lon="1.80783">
        <ele>169.8</ele>
        <time>2024-04-15T09:08:16Z</time>
      </trkpt>
      <trkpt lat="48.78141" lon="1.80813">
        <ele>169.8</ele>
        <time>2024-04-15T09:08:18Z</time>
      </trkpt>
      <trkpt lat="48.78159" lon="1.80836">
        <ele>169.8</ele>
        <time>2024-04-15T09:08:20Z</time>
      </trkpt>
      <trkpt lat="48.78196" lon="1.80888">
        <ele>169.6</ele>
        <time>2024-04-15T09:08:25Z</time>
      </trkpt>
      <trkpt lat="48.78217" lon="1.80923">
        <ele>169.2</ele>
        <time>2024-04-15T09:08:29Z</time>
      </trkpt>
      <trkpt lat="48.78222" lon="1.80931">
        <ele>168.6</ele>
        <time>2024-04-15T09:08:33Z</time>
      </trkpt>
      <trkpt lat="48.78225" lon="1.80935">
        <ele>168.2</ele>
        <time>2024-04-15T09:08:37Z</time>
      </trkpt>
      <trkpt lat="48.78228" lon="1.80903">
        <ele>167.8</ele>
        <time>2024-04-15T09:08:39Z</time>
      </trkpt>
      <trkpt lat="48.78231" lon="1.80902">
        <ele>167.4</ele>
        <time>2024-04-15T09:08:40Z</time>
      </trkpt>
      <trkpt lat="48.78262" lon="1.80876">
        <ele>165.8</ele>
        <time>2024-04-15T09:08:47Z</time>
      </trkpt>
      <trkpt lat="48.78287" lon="1.80852">
        <ele>165</ele>
        <time>2024-04-15T09:08:51Z</time>
      </trkpt>
      <trkpt lat="48.78321" lon="1.80825">
        <ele>164.6</ele>
        <time>2024-04-15T09:08:55Z</time>
      </trkpt>
      <trkpt lat="48.78358" lon="1.80803">
        <ele>163</ele>
        <time>2024-04-15T09:09:00Z</time>
      </trkpt>
      <trkpt lat="48.78374" lon="1.80792">
        <ele>162</ele>
        <time>2024-04-15T09:09:04Z</time>
      </trkpt>
      <trkpt lat="48.784" lon="1.80771">
        <ele>160.4</ele>
        <time>2024-04-15T09:09:10Z</time>
      </trkpt>
      <trkpt lat="48.78426" lon="1.8075">
        <ele>159</ele>
        <time>2024-04-15T09:09:14Z</time>
      </trkpt>
      <trkpt lat="48.78434" lon="1.80745">
        <ele>158.6</ele>
        <time>2024-04-15T09:09:15Z</time>
      </trkpt>
      <trkpt lat="48.7844" lon="1.80715">
        <ele>158.2</ele>
        <time>2024-04-15T09:09:17Z</time>
      </trkpt>
      <trkpt lat="48.78461" lon="1.80658">
        <ele>157</ele>
        <time>2024-04-15T09:09:21Z</time>
      </trkpt>
      <trkpt lat="48.78493" lon="1.80586">
        <ele>155.6</ele>
        <time>2024-04-15T09:09:26Z</time>
      </trkpt>
      <trkpt lat="48.78508" lon="1.80564">
        <ele>155</ele>
        <time>2024-04-15T09:09:28Z</time>
      </trkpt>
      <trkpt lat="48.78515" lon="1.80554">
        <ele>154.6</ele>
        <time>2024-04-15T09:09:29Z</time>
      </trkpt>
      <trkpt lat="48.78531" lon="1.80533">
        <ele>153.8</ele>
        <time>2024-04-15T09:09:32Z</time>
      </trkpt>
      <trkpt lat="48.78561" lon="1.80497">
        <ele>152</ele>
        <time>2024-04-15T09:09:38Z</time>
      </trkpt>
      <trkpt lat="48.78592" lon="1.8048">
        <ele>150.8</ele>
        <time>2024-04-15T09:09:42Z</time>
      </trkpt>
      <trkpt lat="48.7861" lon="1.80479">
        <ele>150.2</ele>
        <time>2024-04-15T09:09:44Z</time>
      </trkpt>
      <trkpt lat="48.78626" lon="1.80478">
        <ele>149.4</ele>
        <time>2024-04-15T09:09:46Z</time>
      </trkpt>
      <trkpt lat="48.78672" lon="1.80476">
        <ele>148</ele>
        <time>2024-04-15T09:09:50Z</time>
      </trkpt>
      <trkpt lat="48.78736" lon="1.80466">
        <ele>146.4</ele>
        <time>2024-04-15T09:09:55Z</time>
      </trkpt>
      <trkpt lat="48.78749" lon="1.80463">
        <ele>146.2</ele>
        <time>2024-04-15T09:09:56Z</time>
      </trkpt>
      <trkpt lat="48.78791" lon="1.80449">
        <ele>145.2</ele>
        <time>2024-04-15T09:09:59Z</time>
      </trkpt>
      <trkpt lat="48.78849" lon="1.80421">
        <ele>144</ele>
        <time>2024-04-15T09:10:03Z</time>
      </trkpt>
      <trkpt lat="48.78863" lon="1.80411">
        <ele>143.6</ele>
        <time>2024-04-15T09:10:04Z</time>
      </trkpt>
      <trkpt lat="48.78922" lon="1.80368">
        <ele>141.4</ele>
        <time>2024-04-15T09:10:08Z</time>
      </trkpt>
      <trkpt lat="48.78937" lon="1.80355">
        <ele>140.8</ele>
        <time>2024-04-15T09:10:09Z</time>
      </trkpt>
      <trkpt lat="48.78996" lon="1.80304">
        <ele>138.8</ele>
        <time>2024-04-15T09:10:13Z</time>
      </trkpt>
      <trkpt lat="48.79057" lon="1.80251">
        <ele>137</ele>
        <time>2024-04-15T09:10:17Z</time>
      </trkpt>
      <trkpt lat="48.79106" lon="1.80213">
        <ele>135.8</ele>
        <time>2024-04-15T09:10:20Z</time>
      </trkpt>
      <trkpt lat="48.7914" lon="1.80194">
        <ele>135.2</ele>
        <time>2024-04-15T09:10:22Z</time>
      </trkpt>
      <trkpt lat="48.79205" lon="1.80159">
        <ele>133.8</ele>
        <time>2024-04-15T09:10:26Z</time>
      </trkpt>
      <trkpt lat="48.79236" lon="1.80142">
        <ele>133.2</ele>
        <time>2024-04-15T09:10:28Z</time>
      </trkpt>
      <trkpt lat="48.79294" lon="1.8011">
        <ele>132.2</ele>
        <time>2024-04-15T09:10:32Z</time>
      </trkpt>
      <trkpt lat="48.79308" lon="1.80101">
        <ele>132</ele>
        <time>2024-04-15T09:10:33Z</time>
      </trkpt>
      <trkpt lat="48.79366" lon="1.80062">
        <ele>130.8</ele>
        <time>2024-04-15T09:10:38Z</time>
      </trkpt>
      <trkpt lat="48.79391" lon="1.80033">
        <ele>130</ele>
        <time>2024-04-15T09:10:41Z</time>
      </trkpt>
      <trkpt lat="48.79408" lon="1.80013">
        <ele>129.4</ele>
        <time>2024-04-15T09:10:44Z</time>
      </trkpt>
      <trkpt lat="48.79412" lon="1.80004">
        <ele>129.2</ele>
        <time>2024-04-15T09:10:45Z</time>
      </trkpt>
      <trkpt lat="48.79417" lon="1.79995">
        <ele>129</ele>
        <time>2024-04-15T09:10:46Z</time>
      </trkpt>
      <trkpt lat="48.7943" lon="1.79966">
        <ele>128.4</ele>
        <time>2024-04-15T09:10:49Z</time>
      </trkpt>
      <trkpt lat="48.79452" lon="1.79888">
        <ele>127.4</ele>
        <time>2024-04-15T09:10:55Z</time>
      </trkpt>
      <trkpt lat="48.79461" lon="1.79835">
        <ele>126.8</ele>
        <time>2024-04-15T09:10:59Z</time>
      </trkpt>
      <trkpt lat="48.79471" lon="1.79786">
        <ele>126.2</ele>
        <time>2024-04-15T09:11:04Z</time>
      </trkpt>
      <trkpt lat="48.79479" lon="1.79771">
        <ele>125.8</ele>
        <time>2024-04-15T09:11:06Z</time>
      </trkpt>
      <trkpt lat="48.79484" lon="1.79764">
        <ele>125.6</ele>
        <time>2024-04-15T09:11:07Z</time>
      </trkpt>
      <trkpt lat="48.79504" lon="1.79732">
        <ele>125</ele>
        <time>2024-04-15T09:11:12Z</time>
      </trkpt>
      <trkpt lat="48.79512" lon="1.79715">
        <ele>124.4</ele>
        <time>2024-04-15T09:11:16Z</time>
      </trkpt>
      <trkpt lat="48.79523" lon="1.79701">
        <ele>124.2</ele>
        <time>2024-04-15T09:11:21Z</time>
      </trkpt>
      <trkpt lat="48.79544" lon="1.7968">
        <ele>124</ele>
        <time>2024-04-15T09:11:26Z</time>
      </trkpt>
      <trkpt lat="48.7958" lon="1.79656">
        <ele>123.2</ele>
        <time>2024-04-15T09:11:34Z</time>
      </trkpt>
      <trkpt lat="48.79591" lon="1.79648">
        <ele>123</ele>
        <time>2024-04-15T09:11:36Z</time>
      </trkpt>
      <trkpt lat="48.79601" lon="1.79638">
        <ele>123</ele>
        <time>2024-04-15T09:11:38Z</time>
      </trkpt>
      <trkpt lat="48.79625" lon="1.79599">
        <ele>122.8</ele>
        <time>2024-04-15T09:11:44Z</time>
      </trkpt>
      <trkpt lat="48.79657" lon="1.79553">
        <ele>122.6</ele>
        <time>2024-04-15T09:11:53Z</time>
      </trkpt>
      <trkpt lat="48.79665" lon="1.79542">
        <ele>122.6</ele>
        <time>2024-04-15T09:11:57Z</time>
      </trkpt>
      <trkpt lat="48.79667" lon="1.79538">
        <ele>122.4</ele>
        <time>2024-04-15T09:12:02Z</time>
      </trkpt>
      <trkpt lat="48.79677" lon="1.79524">
        <ele>122.2</ele>
        <time>2024-04-15T09:12:06Z</time>
      </trkpt>
      <trkpt lat="48.79683" lon="1.79511">
        <ele>122.2</ele>
        <time>2024-04-15T09:12:08Z</time>
      </trkpt>
      <trkpt lat="48.79687" lon="1.79496">
        <ele>122</ele>
        <time>2024-04-15T09:12:11Z</time>
      </trkpt>
      <trkpt lat="48.79687" lon="1.79496">
        <ele>122.2</ele>
        <time>2024-04-15T09:12:15Z</time>
      </trkpt>
      <trkpt lat="48.79687" lon="1.79496">
        <ele>122</ele>
        <time>2024-04-15T09:12:24Z</time>
      </trkpt>
      <trkpt lat="48.79687" lon="1.79495">
        <ele>122</ele>
        <time>2024-04-15T09:12:34Z</time>
      </trkpt>
      <trkpt lat="48.79681" lon="1.79519">
        <ele>122.4</ele>
        <time>2024-04-15T09:12:40Z</time>
      </trkpt>
      <trkpt lat="48.79681" lon="1.79518">
        <ele>122.8</ele>
        <time>2024-04-15T09:12:49Z</time>
      </trkpt>
      <trkpt lat="48.79683" lon="1.79522">
        <ele>123</ele>
        <time>2024-04-15T09:12:50Z</time>
      </trkpt>
      <trkpt lat="48.79684" lon="1.79523">
        <ele>123</ele>
        <time>2024-04-15T09:12:52Z</time>
      </trkpt>
      <trkpt lat="48.79686" lon="1.79525">
        <ele>123</ele>
        <time>2024-04-15T09:12:53Z</time>
      </trkpt>
      <trkpt lat="48.79687" lon="1.79527">
        <ele>122.8</ele>
        <time>2024-04-15T09:12:54Z</time>
      </trkpt>
      <trkpt lat="48.79693" lon="1.79533">
        <ele>123</ele>
        <time>2024-04-15T09:12:57Z</time>
      </trkpt>
      <trkpt lat="48.79702" lon="1.79543">
        <ele>123</ele>
        <time>2024-04-15T09:13:00Z</time>
      </trkpt>
      <trkpt lat="48.79706" lon="1.79548">
        <ele>122.8</ele>
        <time>2024-04-15T09:13:01Z</time>
      </trkpt>
      <trkpt lat="48.79724" lon="1.79568">
        <ele>122.8</ele>
        <time>2024-04-15T09:13:05Z</time>
      </trkpt>
      <trkpt lat="48.79729" lon="1.79573">
        <ele>122.8</ele>
        <time>2024-04-15T09:13:06Z</time>
      </trkpt>
      <trkpt lat="48.79734" lon="1.79572">
        <ele>122.8</ele>
        <time>2024-04-15T09:13:07Z</time>
      </trkpt>
      <trkpt lat="48.79747" lon="1.7957">
        <ele>122.8</ele>
        <time>2024-04-15T09:13:09Z</time>
      </trkpt>
      <trkpt lat="48.79785" lon="1.79568">
        <ele>123</ele>
        <time>2024-04-15T09:13:14Z</time>
      </trkpt>
      <trkpt lat="48.79801" lon="1.79573">
        <ele>123</ele>
        <time>2024-04-15T09:13:16Z</time>
      </trkpt>
      <trkpt lat="48.79826" lon="1.79582">
        <ele>123</ele>
        <time>2024-04-15T09:13:19Z</time>
      </trkpt>
      <trkpt lat="48.79869" lon="1.79601">
        <ele>122.8</ele>
        <time>2024-04-15T09:13:25Z</time>
      </trkpt>
      <trkpt lat="48.79922" lon="1.79624">
        <ele>122.8</ele>
        <time>2024-04-15T09:13:31Z</time>
      </trkpt>
      <trkpt lat="48.79978" lon="1.79649">
        <ele>122.8</ele>
        <time>2024-04-15T09:13:37Z</time>
      </trkpt>
      <trkpt lat="48.79987" lon="1.79653">
        <ele>122.8</ele>
        <time>2024-04-15T09:13:38Z</time>
      </trkpt>
      <trkpt lat="48.80016" lon="1.79666">
        <ele>122.8</ele>
        <time>2024-04-15T09:13:41Z</time>
      </trkpt>
      <trkpt lat="48.80036" lon="1.79666">
        <ele>122.8</ele>
        <time>2024-04-15T09:13:43Z</time>
      </trkpt>
      <trkpt lat="48.80067" lon="1.79652">
        <ele>123</ele>
        <time>2024-04-15T09:13:46Z</time>
      </trkpt>
      <trkpt lat="48.80102" lon="1.79631">
        <ele>123</ele>
        <time>2024-04-15T09:13:50Z</time>
      </trkpt>
      <trkpt lat="48.80124" lon="1.79615">
        <ele>123</ele>
        <time>2024-04-15T09:13:54Z</time>
      </trkpt>
      <trkpt lat="48.80138" lon="1.79604">
        <ele>123.2</ele>
        <time>2024-04-15T09:13:59Z</time>
      </trkpt>
      <trkpt lat="48.80159" lon="1.79599">
        <ele>123.2</ele>
        <time>2024-04-15T09:14:03Z</time>
      </trkpt>
      <trkpt lat="48.80198" lon="1.79593">
        <ele>123.2</ele>
        <time>2024-04-15T09:14:09Z</time>
      </trkpt>
      <trkpt lat="48.8022" lon="1.79591">
        <ele>123.2</ele>
        <time>2024-04-15T09:14:13Z</time>
      </trkpt>
      <trkpt lat="48.80226" lon="1.7959">
        <ele>123.2</ele>
        <time>2024-04-15T09:14:16Z</time>
      </trkpt>
      <trkpt lat="48.8023" lon="1.79601">
        <ele>123.2</ele>
        <time>2024-04-15T09:14:22Z</time>
      </trkpt>
      <trkpt lat="48.8023" lon="1.79601">
        <ele>123.2</ele>
        <time>2024-04-15T09:14:31Z</time>
      </trkpt>
      <trkpt lat="48.8023" lon="1.79601">
        <ele>123</ele>
        <time>2024-04-15T09:14:41Z</time>
      </trkpt>
      <trkpt lat="48.8023" lon="1.79611">
        <ele>123</ele>
        <time>2024-04-15T09:14:48Z</time>
      </trkpt>
      <trkpt lat="48.80229" lon="1.79617">
        <ele>123</ele>
        <time>2024-04-15T09:14:49Z</time>
      </trkpt>
      <trkpt lat="48.80229" lon="1.79634">
        <ele>123</ele>
        <time>2024-04-15T09:14:51Z</time>
      </trkpt>
      <trkpt lat="48.80227" lon="1.79678">
        <ele>122.8</ele>
        <time>2024-04-15T09:14:55Z</time>
      </trkpt>
      <trkpt lat="48.80225" lon="1.79743">
        <ele>122.4</ele>
        <time>2024-04-15T09:15:00Z</time>
      </trkpt>
      <trkpt lat="48.80224" lon="1.7977">
        <ele>122</ele>
        <time>2024-04-15T09:15:03Z</time>
      </trkpt>
      <trkpt lat="48.80221" lon="1.79802">
        <ele>121</ele>
        <time>2024-04-15T09:15:09Z</time>
      </trkpt>
      <trkpt lat="48.80226" lon="1.79809">
        <ele>120.8</ele>
        <time>2024-04-15T09:15:11Z</time>
      </trkpt>
      <trkpt lat="48.80229" lon="1.79809">
        <ele>120.6</ele>
        <time>2024-04-15T09:15:12Z</time>
      </trkpt>
      <trkpt lat="48.80233" lon="1.79806">
        <ele>120.6</ele>
        <time>2024-04-15T09:15:13Z</time>
      </trkpt>
      <trkpt lat="48.80238" lon="1.79795">
        <ele>120.4</ele>
        <time>2024-04-15T09:15:15Z</time>
      </trkpt>
      <trkpt lat="48.80253" lon="1.79782">
        <ele>119.8</ele>
        <time>2024-04-15T09:15:20Z</time>
      </trkpt>
      <trkpt lat="48.80259" lon="1.79785">
        <ele>119.6</ele>
        <time>2024-04-15T09:15:22Z</time>
      </trkpt>
      <trkpt lat="48.80268" lon="1.79789">
        <ele>119.2</ele>
        <time>2024-04-15T09:15:24Z</time>
      </trkpt>
      <trkpt lat="48.80298" lon="1.79812">
        <ele>118.6</ele>
        <time>2024-04-15T09:15:29Z</time>
      </trkpt>
      <trkpt lat="48.80341" lon="1.79845">
        <ele>118</ele>
        <time>2024-04-15T09:15:34Z</time>
      </trkpt>
      <trkpt lat="48.80398" lon="1.79891">
        <ele>117.2</ele>
        <time>2024-04-15T09:15:40Z</time>
      </trkpt>
      <trkpt lat="48.80449" lon="1.79918">
        <ele>116.8</ele>
        <time>2024-04-15T09:15:45Z</time>
      </trkpt>
      <trkpt lat="48.80459" lon="1.79921">
        <ele>116.6</ele>
        <time>2024-04-15T09:15:46Z</time>
      </trkpt>
      <trkpt lat="48.80501" lon="1.79937">
        <ele>116</ele>
        <time>2024-04-15T09:15:51Z</time>
      </trkpt>
      <trkpt lat="48.8054" lon="1.79949">
        <ele>115.2</ele>
        <time>2024-04-15T09:15:57Z</time>
      </trkpt>
      <trkpt lat="48.8058" lon="1.79957">
        <ele>114.6</ele>
        <time>2024-04-15T09:16:04Z</time>
      </trkpt>
      <trkpt lat="48.80624" lon="1.79953">
        <ele>113.8</ele>
        <time>2024-04-15T09:16:12Z</time>
      </trkpt>
      <trkpt lat="48.80655" lon="1.79944">
        <ele>113.2</ele>
        <time>2024-04-15T09:16:17Z</time>
      </trkpt>
      <trkpt lat="48.80691" lon="1.79931">
        <ele>112.8</ele>
        <time>2024-04-15T09:16:20Z</time>
      </trkpt>
      <trkpt lat="48.80746" lon="1.79907">
        <ele>112.2</ele>
        <time>2024-04-15T09:16:24Z</time>
      </trkpt>
      <trkpt lat="48.80775" lon="1.79895">
        <ele>111.8</ele>
        <time>2024-04-15T09:16:26Z</time>
      </trkpt>
      <trkpt lat="48.80833" lon="1.7987">
        <ele>111</ele>
        <time>2024-04-15T09:16:30Z</time>
      </trkpt>
      <trkpt lat="48.80863" lon="1.79861">
        <ele>110.4</ele>
        <time>2024-04-15T09:16:32Z</time>
      </trkpt>
      <trkpt lat="48.80925" lon="1.79844">
        <ele>109.4</ele>
        <time>2024-04-15T09:16:36Z</time>
      </trkpt>
      <trkpt lat="48.80986" lon="1.79826">
        <ele>108.6</ele>
        <time>2024-04-15T09:16:40Z</time>
      </trkpt>
      <trkpt lat="48.81016" lon="1.79818">
        <ele>108</ele>
        <time>2024-04-15T09:16:42Z</time>
      </trkpt>
      <trkpt lat="48.81073" lon="1.79801">
        <ele>107.2</ele>
        <time>2024-04-15T09:16:46Z</time>
      </trkpt>
      <trkpt lat="48.81086" lon="1.79796">
        <ele>107</ele>
        <time>2024-04-15T09:16:47Z</time>
      </trkpt>
      <trkpt lat="48.81141" lon="1.79777">
        <ele>106.2</ele>
        <time>2024-04-15T09:16:51Z</time>
      </trkpt>
      <trkpt lat="48.81184" lon="1.7977">
        <ele>105.4</ele>
        <time>2024-04-15T09:16:54Z</time>
      </trkpt>
      <trkpt lat="48.81247" lon="1.79771">
        <ele>104.2</ele>
        <time>2024-04-15T09:16:58Z</time>
      </trkpt>
      <trkpt lat="48.81312" lon="1.79777">
        <ele>103</ele>
        <time>2024-04-15T09:17:02Z</time>
      </trkpt>
      <trkpt lat="48.81342" lon="1.7977">
        <ele>102.4</ele>
        <time>2024-04-15T09:17:04Z</time>
      </trkpt>
      <trkpt lat="48.81357" lon="1.79763">
        <ele>102.2</ele>
        <time>2024-04-15T09:17:05Z</time>
      </trkpt>
      <trkpt lat="48.81416" lon="1.79735">
        <ele>101.6</ele>
        <time>2024-04-15T09:17:09Z</time>
      </trkpt>
      <trkpt lat="48.8143" lon="1.79728">
        <ele>101.4</ele>
        <time>2024-04-15T09:17:10Z</time>
      </trkpt>
      <trkpt lat="48.81483" lon="1.79702">
        <ele>101</ele>
        <time>2024-04-15T09:17:14Z</time>
      </trkpt>
      <trkpt lat="48.81508" lon="1.7969">
        <ele>100.6</ele>
        <time>2024-04-15T09:17:16Z</time>
      </trkpt>
      <trkpt lat="48.8156" lon="1.79665">
        <ele>100.2</ele>
        <time>2024-04-15T09:17:20Z</time>
      </trkpt>
      <trkpt lat="48.81597" lon="1.79647">
        <ele>100</ele>
        <time>2024-04-15T09:17:23Z</time>
      </trkpt>
      <trkpt lat="48.81649" lon="1.79621">
        <ele>99.6</ele>
        <time>2024-04-15T09:17:28Z</time>
      </trkpt>
      <trkpt lat="48.81705" lon="1.7959">
        <ele>99.2</ele>
        <time>2024-04-15T09:17:34Z</time>
      </trkpt>
      <trkpt lat="48.81721" lon="1.7958">
        <ele>99</ele>
        <time>2024-04-15T09:17:36Z</time>
      </trkpt>
      <trkpt lat="48.81745" lon="1.79559">
        <ele>99</ele>
        <time>2024-04-15T09:17:40Z</time>
      </trkpt>
      <trkpt lat="48.81776" lon="1.79526">
        <ele>98.8</ele>
        <time>2024-04-15T09:17:45Z</time>
      </trkpt>
      <trkpt lat="48.81791" lon="1.7951">
        <ele>98.6</ele>
        <time>2024-04-15T09:17:48Z</time>
      </trkpt>
      <trkpt lat="48.81802" lon="1.79497">
        <ele>98.6</ele>
        <time>2024-04-15T09:17:52Z</time>
      </trkpt>
      <trkpt lat="48.81818" lon="1.79476">
        <ele>98.6</ele>
        <time>2024-04-15T09:17:56Z</time>
      </trkpt>
      <trkpt lat="48.81842" lon="1.79443">
        <ele>98.6</ele>
        <time>2024-04-15T09:18:00Z</time>
      </trkpt>
      <trkpt lat="48.81877" lon="1.79396">
        <ele>98.6</ele>
        <time>2024-04-15T09:18:06Z</time>
      </trkpt>
      <trkpt lat="48.81886" lon="1.79394">
        <ele>98.6</ele>
        <time>2024-04-15T09:18:08Z</time>
      </trkpt>
      <trkpt lat="48.81886" lon="1.79394">
        <ele>98.6</ele>
        <time>2024-04-15T09:18:12Z</time>
      </trkpt>
      <trkpt lat="48.81888" lon="1.79395">
        <ele>98.6</ele>
        <time>2024-04-15T09:18:24Z</time>
      </trkpt>
      <trkpt lat="48.81897" lon="1.79397">
        <ele>98.4</ele>
        <time>2024-04-15T09:18:29Z</time>
      </trkpt>
      <trkpt lat="48.81907" lon="1.79405">
        <ele>98</ele>
        <time>2024-04-15T09:18:34Z</time>
      </trkpt>
      <trkpt lat="48.81919" lon="1.79425">
        <ele>97.6</ele>
        <time>2024-04-15T09:18:39Z</time>
      </trkpt>
      <trkpt lat="48.81939" lon="1.79457">
        <ele>97.2</ele>
        <time>2024-04-15T09:18:45Z</time>
      </trkpt>
      <trkpt lat="48.81962" lon="1.79496">
        <ele>96.6</ele>
        <time>2024-04-15T09:18:52Z</time>
      </trkpt>
      <trkpt lat="48.8197" lon="1.79508">
        <ele>96.2</ele>
        <time>2024-04-15T09:18:56Z</time>
      </trkpt>
      <trkpt lat="48.8197" lon="1.79509">
        <ele>95.8</ele>
        <time>2024-04-15T09:19:02Z</time>
      </trkpt>
      <trkpt lat="48.8197" lon="1.79509">
        <ele>94.8</ele>
        <time>2024-04-15T09:19:23Z</time>
      </trkpt>
      <trkpt lat="48.8197" lon="1.79509">
        <ele>93.8</ele>
        <time>2024-04-15T09:19:46Z</time>
      </trkpt>
      <trkpt lat="48.81973" lon="1.79512">
        <ele>93.2</ele>
        <time>2024-04-15T09:20:01Z</time>
      </trkpt>
      <trkpt lat="48.81982" lon="1.79502">
        <ele>93</ele>
        <time>2024-04-15T09:20:05Z</time>
      </trkpt>
      <trkpt lat="48.81999" lon="1.79482">
        <ele>93</ele>
        <time>2024-04-15T09:20:09Z</time>
      </trkpt>
      <trkpt lat="48.82023" lon="1.79444">
        <ele>92.8</ele>
        <time>2024-04-15T09:20:15Z</time>
      </trkpt>
      <trkpt lat="48.82034" lon="1.79423">
        <ele>92.8</ele>
        <time>2024-04-15T09:20:20Z</time>
      </trkpt>
      <trkpt lat="48.82035" lon="1.79421">
        <ele>92.6</ele>
        <time>2024-04-15T09:20:24Z</time>
      </trkpt>
      <trkpt lat="48.82042" lon="1.79423">
        <ele>92.6</ele>
        <time>2024-04-15T09:20:31Z</time>
      </trkpt>
      <trkpt lat="48.82051" lon="1.79432">
        <ele>92.6</ele>
        <time>2024-04-15T09:20:38Z</time>
      </trkpt>
      <trkpt lat="48.82061" lon="1.79442">
        <ele>92.8</ele>
        <time>2024-04-15T09:20:46Z</time>
      </trkpt>
      <trkpt lat="48.82076" lon="1.79457">
        <ele>92.8</ele>
        <time>2024-04-15T09:20:51Z</time>
      </trkpt>
      <trkpt lat="48.82098" lon="1.79475">
        <ele>92.8</ele>
        <time>2024-04-15T09:20:55Z</time>
      </trkpt>
      <trkpt lat="48.82134" lon="1.79506">
        <ele>93</ele>
        <time>2024-04-15T09:21:00Z</time>
      </trkpt>
      <trkpt lat="48.82164" lon="1.7953">
        <ele>93</ele>
        <time>2024-04-15T09:21:04Z</time>
      </trkpt>
      <trkpt lat="48.82173" lon="1.7953">
        <ele>92.8</ele>
        <time>2024-04-15T09:21:05Z</time>
      </trkpt>
      <trkpt lat="48.82182" lon="1.79527">
        <ele>92.8</ele>
        <time>2024-04-15T09:21:06Z</time>
      </trkpt>
      <trkpt lat="48.82204" lon="1.79516">
        <ele>92.8</ele>
        <time>2024-04-15T09:21:08Z</time>
      </trkpt>
      <trkpt lat="48.82253" lon="1.79498">
        <ele>92.6</ele>
        <time>2024-04-15T09:21:12Z</time>
      </trkpt>
      <trkpt lat="48.82276" lon="1.795">
        <ele>92.6</ele>
        <time>2024-04-15T09:21:14Z</time>
      </trkpt>
      <trkpt lat="48.82288" lon="1.79505">
        <ele>92.4</ele>
        <time>2024-04-15T09:21:15Z</time>
      </trkpt>
      <trkpt lat="48.82341" lon="1.79525">
        <ele>92</ele>
        <time>2024-04-15T09:21:19Z</time>
      </trkpt>
      <trkpt lat="48.82396" lon="1.7955">
        <ele>91.6</ele>
        <time>2024-04-15T09:21:23Z</time>
      </trkpt>
      <trkpt lat="48.82449" lon="1.79575">
        <ele>91.2</ele>
        <time>2024-04-15T09:21:27Z</time>
      </trkpt>
      <trkpt lat="48.82475" lon="1.79587">
        <ele>91</ele>
        <time>2024-04-15T09:21:29Z</time>
      </trkpt>
      <trkpt lat="48.82537" lon="1.79613">
        <ele>90.4</ele>
        <time>2024-04-15T09:21:34Z</time>
      </trkpt>
      <trkpt lat="48.82549" lon="1.79617">
        <ele>90.4</ele>
        <time>2024-04-15T09:21:35Z</time>
      </trkpt>
      <trkpt lat="48.82602" lon="1.79633">
        <ele>90</ele>
        <time>2024-04-15T09:21:39Z</time>
      </trkpt>
      <trkpt lat="48.82655" lon="1.7965">
        <ele>89.6</ele>
        <time>2024-04-15T09:21:43Z</time>
      </trkpt>
      <trkpt lat="48.82709" lon="1.79667">
        <ele>89</ele>
        <time>2024-04-15T09:21:47Z</time>
      </trkpt>
      <trkpt lat="48.82765" lon="1.79685">
        <ele>88.4</ele>
        <time>2024-04-15T09:21:51Z</time>
      </trkpt>
      <trkpt lat="48.82821" lon="1.79703">
        <ele>87.6</ele>
        <time>2024-04-15T09:21:55Z</time>
      </trkpt>
      <trkpt lat="48.82876" lon="1.79722">
        <ele>87</ele>
        <time>2024-04-15T09:21:59Z</time>
      </trkpt>
      <trkpt lat="48.82889" lon="1.79727">
        <ele>86.8</ele>
        <time>2024-04-15T09:22:00Z</time>
      </trkpt>
      <trkpt lat="48.82944" lon="1.79744">
        <ele>86.6</ele>
        <time>2024-04-15T09:22:04Z</time>
      </trkpt>
      <trkpt lat="48.82955" lon="1.79742">
        <ele>86.4</ele>
        <time>2024-04-15T09:22:05Z</time>
      </trkpt>
      <trkpt lat="48.82982" lon="1.79733">
        <ele>86.6</ele>
        <time>2024-04-15T09:22:07Z</time>
      </trkpt>
      <trkpt lat="48.82994" lon="1.79729">
        <ele>86.6</ele>
        <time>2024-04-15T09:22:08Z</time>
      </trkpt>
      <trkpt lat="48.83004" lon="1.79715">
        <ele>86.6</ele>
        <time>2024-04-15T09:22:09Z</time>
      </trkpt>
      <trkpt lat="48.83015" lon="1.79701">
        <ele>86.6</ele>
        <time>2024-04-15T09:22:10Z</time>
      </trkpt>
      <trkpt lat="48.8306" lon="1.79639">
        <ele>86.8</ele>
        <time>2024-04-15T09:22:14Z</time>
      </trkpt>
      <trkpt lat="48.83082" lon="1.79609">
        <ele>87</ele>
        <time>2024-04-15T09:22:16Z</time>
      </trkpt>
      <trkpt lat="48.83129" lon="1.79551">
        <ele>86.8</ele>
        <time>2024-04-15T09:22:20Z</time>
      </trkpt>
      <trkpt lat="48.83166" lon="1.79516">
        <ele>88.6</ele>
        <time>2024-04-15T09:22:23Z</time>
      </trkpt>
      <trkpt lat="48.83219" lon="1.79476">
        <ele>87.6</ele>
        <time>2024-04-15T09:22:27Z</time>
      </trkpt>
      <trkpt lat="48.83233" lon="1.79466">
        <ele>87.6</ele>
        <time>2024-04-15T09:22:28Z</time>
      </trkpt>
      <trkpt lat="48.83286" lon="1.79425">
        <ele>87.8</ele>
        <time>2024-04-15T09:22:32Z</time>
      </trkpt>
      <trkpt lat="48.83338" lon="1.79386">
        <ele>88.2</ele>
        <time>2024-04-15T09:22:36Z</time>
      </trkpt>
      <trkpt lat="48.8335" lon="1.79378">
        <ele>88.2</ele>
        <time>2024-04-15T09:22:37Z</time>
      </trkpt>
      <trkpt lat="48.83378" lon="1.79356">
        <ele>88.4</ele>
        <time>2024-04-15T09:22:40Z</time>
      </trkpt>
      <trkpt lat="48.83398" lon="1.79341">
        <ele>88.6</ele>
        <time>2024-04-15T09:22:43Z</time>
      </trkpt>
      <trkpt lat="48.8341" lon="1.79332">
        <ele>88.8</ele>
        <time>2024-04-15T09:22:45Z</time>
      </trkpt>
      <trkpt lat="48.8342" lon="1.7934">
        <ele>88.8</ele>
        <time>2024-04-15T09:22:47Z</time>
      </trkpt>
      <trkpt lat="48.83434" lon="1.79357">
        <ele>89</ele>
        <time>2024-04-15T09:22:49Z</time>
      </trkpt>
      <trkpt lat="48.83457" lon="1.794">
        <ele>89.2</ele>
        <time>2024-04-15T09:22:52Z</time>
      </trkpt>
      <trkpt lat="48.83495" lon="1.79473">
        <ele>89.6</ele>
        <time>2024-04-15T09:22:56Z</time>
      </trkpt>
      <trkpt lat="48.83534" lon="1.79551">
        <ele>89.8</ele>
        <time>2024-04-15T09:23:00Z</time>
      </trkpt>
      <trkpt lat="48.83553" lon="1.79589">
        <ele>90.2</ele>
        <time>2024-04-15T09:23:02Z</time>
      </trkpt>
      <trkpt lat="48.83588" lon="1.79635">
        <ele>90.4</ele>
        <time>2024-04-15T09:23:05Z</time>
      </trkpt>
      <trkpt lat="48.83642" lon="1.79684">
        <ele>90.8</ele>
        <time>2024-04-15T09:23:09Z</time>
      </trkpt>
      <trkpt lat="48.83701" lon="1.79729">
        <ele>91.2</ele>
        <time>2024-04-15T09:23:13Z</time>
      </trkpt>
      <trkpt lat="48.83763" lon="1.79769">
        <ele>91.4</ele>
        <time>2024-04-15T09:23:17Z</time>
      </trkpt>
      <trkpt lat="48.83808" lon="1.79798">
        <ele>91.6</ele>
        <time>2024-04-15T09:23:20Z</time>
      </trkpt>
      <trkpt lat="48.83869" lon="1.79838">
        <ele>91.8</ele>
        <time>2024-04-15T09:23:24Z</time>
      </trkpt>
      <trkpt lat="48.839" lon="1.79859">
        <ele>92</ele>
        <time>2024-04-15T09:23:26Z</time>
      </trkpt>
      <trkpt lat="48.83962" lon="1.79899">
        <ele>92</ele>
        <time>2024-04-15T09:23:30Z</time>
      </trkpt>
      <trkpt lat="48.84007" lon="1.79928">
        <ele>92.2</ele>
        <time>2024-04-15T09:23:33Z</time>
      </trkpt>
      <trkpt lat="48.84065" lon="1.79967">
        <ele>92.4</ele>
        <time>2024-04-15T09:23:37Z</time>
      </trkpt>
      <trkpt lat="48.84081" lon="1.79974">
        <ele>92.4</ele>
        <time>2024-04-15T09:23:38Z</time>
      </trkpt>
      <trkpt lat="48.84138" lon="1.80013">
        <ele>92.8</ele>
        <time>2024-04-15T09:23:42Z</time>
      </trkpt>
      <trkpt lat="48.84173" lon="1.80063">
        <ele>93.2</ele>
        <time>2024-04-15T09:23:45Z</time>
      </trkpt>
      <trkpt lat="48.84219" lon="1.80127">
        <ele>93.8</ele>
        <time>2024-04-15T09:23:49Z</time>
      </trkpt>
      <trkpt lat="48.8423" lon="1.80141">
        <ele>93.8</ele>
        <time>2024-04-15T09:23:50Z</time>
      </trkpt>
      <trkpt lat="48.84283" lon="1.80201">
        <ele>94.8</ele>
        <time>2024-04-15T09:23:55Z</time>
      </trkpt>
      <trkpt lat="48.84332" lon="1.80257">
        <ele>95.8</ele>
        <time>2024-04-15T09:24:00Z</time>
      </trkpt>
      <trkpt lat="48.84341" lon="1.80268">
        <ele>96</ele>
        <time>2024-04-15T09:24:01Z</time>
      </trkpt>
      <trkpt lat="48.84388" lon="1.80322">
        <ele>97</ele>
        <time>2024-04-15T09:24:06Z</time>
      </trkpt>
      <trkpt lat="48.84405" lon="1.80341">
        <ele>97.6</ele>
        <time>2024-04-15T09:24:08Z</time>
      </trkpt>
      <trkpt lat="48.84425" lon="1.80364">
        <ele>98.2</ele>
        <time>2024-04-15T09:24:11Z</time>
      </trkpt>
      <trkpt lat="48.84442" lon="1.80384">
        <ele>99.2</ele>
        <time>2024-04-15T09:24:15Z</time>
      </trkpt>
      <trkpt lat="48.84467" lon="1.80406">
        <ele>100.4</ele>
        <time>2024-04-15T09:24:20Z</time>
      </trkpt>
      <trkpt lat="48.84501" lon="1.80437">
        <ele>101.6</ele>
        <time>2024-04-15T09:24:25Z</time>
      </trkpt>
      <trkpt lat="48.84549" lon="1.80465">
        <ele>102.8</ele>
        <time>2024-04-15T09:24:31Z</time>
      </trkpt>
      <trkpt lat="48.84571" lon="1.80476">
        <ele>103.6</ele>
        <time>2024-04-15T09:24:34Z</time>
      </trkpt>
      <trkpt lat="48.84584" lon="1.80474">
        <ele>104</ele>
        <time>2024-04-15T09:24:36Z</time>
      </trkpt>
      <trkpt lat="48.84598" lon="1.80471">
        <ele>104.6</ele>
        <time>2024-04-15T09:24:39Z</time>
      </trkpt>
      <trkpt lat="48.84615" lon="1.80468">
        <ele>106</ele>
        <time>2024-04-15T09:24:45Z</time>
      </trkpt>
      <trkpt lat="48.84651" lon="1.8046">
        <ele>107.4</ele>
        <time>2024-04-15T09:24:52Z</time>
      </trkpt>
      <trkpt lat="48.84672" lon="1.80455">
        <ele>108.4</ele>
        <time>2024-04-15T09:24:57Z</time>
      </trkpt>
      <trkpt lat="48.84678" lon="1.80454">
        <ele>109.2</ele>
        <time>2024-04-15T09:25:01Z</time>
      </trkpt>
      <trkpt lat="48.84678" lon="1.80454">
        <ele>111</ele>
        <time>2024-04-15T09:25:12Z</time>
      </trkpt>
      <trkpt lat="48.84678" lon="1.80454">
        <ele>113.4</ele>
        <time>2024-04-15T09:25:28Z</time>
      </trkpt>
      <trkpt lat="48.84678" lon="1.80454">
        <ele>115.2</ele>
        <time>2024-04-15T09:25:42Z</time>
      </trkpt>
      <trkpt lat="48.84679" lon="1.80454">
        <ele>115.4</ele>
        <time>2024-04-15T09:25:44Z</time>
      </trkpt>
      <trkpt lat="48.84684" lon="1.80453">
        <ele>115.6</ele>
        <time>2024-04-15T09:25:46Z</time>
      </trkpt>
      <trkpt lat="48.84687" lon="1.80452">
        <ele>115.8</ele>
        <time>2024-04-15T09:25:47Z</time>
      </trkpt>
      <trkpt lat="48.84703" lon="1.80448">
        <ele>116</ele>
        <time>2024-04-15T09:25:50Z</time>
      </trkpt>
      <trkpt lat="48.84735" lon="1.8044">
        <ele>116.8</ele>
        <time>2024-04-15T09:25:55Z</time>
      </trkpt>
      <trkpt lat="48.84741" lon="1.80438">
        <ele>116.8</ele>
        <time>2024-04-15T09:25:56Z</time>
      </trkpt>
      <trkpt lat="48.84754" lon="1.80432">
        <ele>117.2</ele>
        <time>2024-04-15T09:25:58Z</time>
      </trkpt>
      <trkpt lat="48.84759" lon="1.80426">
        <ele>117.2</ele>
        <time>2024-04-15T09:25:59Z</time>
      </trkpt>
      <trkpt lat="48.84775" lon="1.80407">
        <ele>117.6</ele>
        <time>2024-04-15T09:26:03Z</time>
      </trkpt>
      <trkpt lat="48.84779" lon="1.80402">
        <ele>117.8</ele>
        <time>2024-04-15T09:26:06Z</time>
      </trkpt>
      <trkpt lat="48.84781" lon="1.80399">
        <ele>118.6</ele>
        <time>2024-04-15T09:26:13Z</time>
      </trkpt>
      <trkpt lat="48.84792" lon="1.80405">
        <ele>119.2</ele>
        <time>2024-04-15T09:26:17Z</time>
      </trkpt>
      <trkpt lat="48.84814" lon="1.80417">
        <ele>119.6</ele>
        <time>2024-04-15T09:26:23Z</time>
      </trkpt>
      <trkpt lat="48.8484" lon="1.8043">
        <ele>120.2</ele>
        <time>2024-04-15T09:26:28Z</time>
      </trkpt>
      <trkpt lat="48.84859" lon="1.80442">
        <ele>120.6</ele>
        <time>2024-04-15T09:26:33Z</time>
      </trkpt>
      <trkpt lat="48.84867" lon="1.80449">
        <ele>121.2</ele>
        <time>2024-04-15T09:26:38Z</time>
      </trkpt>
      <trkpt lat="48.84885" lon="1.80464">
        <ele>121.8</ele>
        <time>2024-04-15T09:26:45Z</time>
      </trkpt>
      <trkpt lat="48.84909" lon="1.80486">
        <ele>122.4</ele>
        <time>2024-04-15T09:26:49Z</time>
      </trkpt>
      <trkpt lat="48.84958" lon="1.80525">
        <ele>123</ele>
        <time>2024-04-15T09:26:55Z</time>
      </trkpt>
      <trkpt lat="48.85015" lon="1.80569">
        <ele>123.8</ele>
        <time>2024-04-15T09:27:01Z</time>
      </trkpt>
      <trkpt lat="48.85035" lon="1.80585">
        <ele>124</ele>
        <time>2024-04-15T09:27:03Z</time>
      </trkpt>
      <trkpt lat="48.85056" lon="1.80596">
        <ele>124.2</ele>
        <time>2024-04-15T09:27:05Z</time>
      </trkpt>
      <trkpt lat="48.85079" lon="1.80603">
        <ele>124.6</ele>
        <time>2024-04-15T09:27:07Z</time>
      </trkpt>
      <trkpt lat="48.85134" lon="1.80621">
        <ele>125.6</ele>
        <time>2024-04-15T09:27:12Z</time>
      </trkpt>
      <trkpt lat="48.85143" lon="1.80624">
        <ele>125.8</ele>
        <time>2024-04-15T09:27:13Z</time>
      </trkpt>
      <trkpt lat="48.85163" lon="1.8063">
        <ele>126.2</ele>
        <time>2024-04-15T09:27:16Z</time>
      </trkpt>
      <trkpt lat="48.85202" lon="1.80643">
        <ele>127.4</ele>
        <time>2024-04-15T09:27:22Z</time>
      </trkpt>
      <trkpt lat="48.85245" lon="1.80664">
        <ele>128.6</ele>
        <time>2024-04-15T09:27:27Z</time>
      </trkpt>
      <trkpt lat="48.85282" lon="1.80698">
        <ele>129.8</ele>
        <time>2024-04-15T09:27:31Z</time>
      </trkpt>
      <trkpt lat="48.85332" lon="1.80748">
        <ele>131.4</ele>
        <time>2024-04-15T09:27:36Z</time>
      </trkpt>
      <trkpt lat="48.85356" lon="1.80768">
        <ele>132.4</ele>
        <time>2024-04-15T09:27:39Z</time>
      </trkpt>
      <trkpt lat="48.85364" lon="1.80774">
        <ele>132.8</ele>
        <time>2024-04-15T09:27:40Z</time>
      </trkpt>
      <trkpt lat="48.85391" lon="1.80784">
        <ele>133.8</ele>
        <time>2024-04-15T09:27:43Z</time>
      </trkpt>
      <trkpt lat="48.85436" lon="1.808">
        <ele>135.2</ele>
        <time>2024-04-15T09:27:47Z</time>
      </trkpt>
      <trkpt lat="48.85491" lon="1.80827">
        <ele>136.8</ele>
        <time>2024-04-15T09:27:51Z</time>
      </trkpt>
      <trkpt lat="48.85538" lon="1.80878">
        <ele>138.4</ele>
        <time>2024-04-15T09:27:55Z</time>
      </trkpt>
      <trkpt lat="48.85551" lon="1.80892">
        <ele>138.8</ele>
        <time>2024-04-15T09:27:56Z</time>
      </trkpt>
      <trkpt lat="48.85594" lon="1.8094">
        <ele>140.4</ele>
        <time>2024-04-15T09:28:00Z</time>
      </trkpt>
      <trkpt lat="48.85634" lon="1.81005">
        <ele>142.2</ele>
        <time>2024-04-15T09:28:05Z</time>
      </trkpt>
      <trkpt lat="48.85641" lon="1.81015">
        <ele>142.6</ele>
        <time>2024-04-15T09:28:06Z</time>
      </trkpt>
      <trkpt lat="48.85655" lon="1.81037">
        <ele>143.6</ele>
        <time>2024-04-15T09:28:09Z</time>
      </trkpt>
      <trkpt lat="48.85657" lon="1.81041">
        <ele>144.6</ele>
        <time>2024-04-15T09:28:12Z</time>
      </trkpt>
      <trkpt lat="48.85657" lon="1.81041">
        <ele>148.4</ele>
        <time>2024-04-15T09:28:26Z</time>
      </trkpt>
      <trkpt lat="48.85657" lon="1.81041">
        <ele>150.8</ele>
        <time>2024-04-15T09:28:35Z</time>
      </trkpt>
      <trkpt lat="48.85657" lon="1.81041">
        <ele>154</ele>
        <time>2024-04-15T09:28:49Z</time>
      </trkpt>
      <trkpt lat="48.85657" lon="1.81041">
        <ele>156.8</ele>
        <time>2024-04-15T09:29:05Z</time>
      </trkpt>
      <trkpt lat="48.85665" lon="1.81053">
        <ele>158</ele>
        <time>2024-04-15T09:29:12Z</time>
      </trkpt>
      <trkpt lat="48.85665" lon="1.81053">
        <ele>159.4</ele>
        <time>2024-04-15T09:29:21Z</time>
      </trkpt>
      <trkpt lat="48.85665" lon="1.81053">
        <ele>160.6</ele>
        <time>2024-04-15T09:29:30Z</time>
      </trkpt>
      <trkpt lat="48.85666" lon="1.81054">
        <ele>160.6</ele>
        <time>2024-04-15T09:29:31Z</time>
      </trkpt>
      <trkpt lat="48.85669" lon="1.81059">
        <ele>160.8</ele>
        <time>2024-04-15T09:29:32Z</time>
      </trkpt>
      <trkpt lat="48.85681" lon="1.81075">
        <ele>161</ele>
        <time>2024-04-15T09:29:34Z</time>
      </trkpt>
      <trkpt lat="48.8571" lon="1.81115">
        <ele>161.6</ele>
        <time>2024-04-15T09:29:39Z</time>
      </trkpt>
      <trkpt lat="48.8574" lon="1.81138">
        <ele>161.8</ele>
        <time>2024-04-15T09:29:43Z</time>
      </trkpt>
      <trkpt lat="48.85748" lon="1.81143">
        <ele>161.8</ele>
        <time>2024-04-15T09:29:44Z</time>
      </trkpt>
      <trkpt lat="48.85764" lon="1.81154">
        <ele>162</ele>
        <time>2024-04-15T09:29:46Z</time>
      </trkpt>
      <trkpt lat="48.85809" lon="1.81194">
        <ele>162</ele>
        <time>2024-04-15T09:29:51Z</time>
      </trkpt>
      <trkpt lat="48.85839" lon="1.81229">
        <ele>162</ele>
        <time>2024-04-15T09:29:55Z</time>
      </trkpt>
      <trkpt lat="48.85858" lon="1.81251">
        <ele>162</ele>
        <time>2024-04-15T09:29:59Z</time>
      </trkpt>
      <trkpt lat="48.85873" lon="1.81268">
        <ele>162</ele>
        <time>2024-04-15T09:30:04Z</time>
      </trkpt>
      <trkpt lat="48.85906" lon="1.81306">
        <ele>162</ele>
        <time>2024-04-15T09:30:10Z</time>
      </trkpt>
      <trkpt lat="48.8594" lon="1.81345">
        <ele>161.4</ele>
        <time>2024-04-15T09:30:16Z</time>
      </trkpt>
      <trkpt lat="48.85975" lon="1.81377">
        <ele>160.4</ele>
        <time>2024-04-15T09:30:21Z</time>
      </trkpt>
      <trkpt lat="48.85982" lon="1.81384">
        <ele>160.2</ele>
        <time>2024-04-15T09:30:22Z</time>
      </trkpt>
      <trkpt lat="48.8601" lon="1.81408">
        <ele>159</ele>
        <time>2024-04-15T09:30:26Z</time>
      </trkpt>
      <trkpt lat="48.86033" lon="1.81433">
        <ele>157.8</ele>
        <time>2024-04-15T09:30:30Z</time>
      </trkpt>
      <trkpt lat="48.86038" lon="1.81441">
        <ele>157.4</ele>
        <time>2024-04-15T09:30:31Z</time>
      </trkpt>
      <trkpt lat="48.86067" lon="1.81486">
        <ele>155.8</ele>
        <time>2024-04-15T09:30:36Z</time>
      </trkpt>
      <trkpt lat="48.86099" lon="1.81523">
        <ele>153.8</ele>
        <time>2024-04-15T09:30:41Z</time>
      </trkpt>
      <trkpt lat="48.86123" lon="1.81547">
        <ele>152.4</ele>
        <time>2024-04-15T09:30:45Z</time>
      </trkpt>
      <trkpt lat="48.86134" lon="1.81559">
        <ele>151.2</ele>
        <time>2024-04-15T09:30:48Z</time>
      </trkpt>
      <trkpt lat="48.86137" lon="1.81561">
        <ele>150</ele>
        <time>2024-04-15T09:30:51Z</time>
      </trkpt>
      <trkpt lat="48.86137" lon="1.81561">
        <ele>146.2</ele>
        <time>2024-04-15T09:31:02Z</time>
      </trkpt>
      <trkpt lat="48.86137" lon="1.81561">
        <ele>142.8</ele>
        <time>2024-04-15T09:31:14Z</time>
      </trkpt>
      <trkpt lat="48.86134" lon="1.81559">
        <ele>142.2</ele>
        <time>2024-04-15T09:31:16Z</time>
      </trkpt>
      <trkpt lat="48.8614" lon="1.81565">
        <ele>141.4</ele>
        <time>2024-04-15T09:31:19Z</time>
      </trkpt>
      <trkpt lat="48.86145" lon="1.81569">
        <ele>140</ele>
        <time>2024-04-15T09:31:24Z</time>
      </trkpt>
      <trkpt lat="48.86145" lon="1.81569">
        <ele>138.6</ele>
        <time>2024-04-15T09:31:30Z</time>
      </trkpt>
      <trkpt lat="48.86145" lon="1.81569">
        <ele>136.4</ele>
        <time>2024-04-15T09:31:41Z</time>
      </trkpt>
      <trkpt lat="48.86142" lon="1.81566">
        <ele>135</ele>
        <time>2024-04-15T09:31:50Z</time>
      </trkpt>
      <trkpt lat="48.86142" lon="1.81566">
        <ele>135</ele>
        <time>2024-04-15T09:31:51Z</time>
      </trkpt>
      <trkpt lat="48.8614" lon="1.81557">
        <ele>134.6</ele>
        <time>2024-04-15T09:31:55Z</time>
      </trkpt>
      <trkpt lat="48.86144" lon="1.81545">
        <ele>134.2</ele>
        <time>2024-04-15T09:31:57Z</time>
      </trkpt>
      <trkpt lat="48.86151" lon="1.81533">
        <ele>134</ele>
        <time>2024-04-15T09:31:59Z</time>
      </trkpt>
      <trkpt lat="48.8617" lon="1.81501">
        <ele>133.4</ele>
        <time>2024-04-15T09:32:03Z</time>
      </trkpt>
      <trkpt lat="48.86202" lon="1.8145">
        <ele>132.6</ele>
        <time>2024-04-15T09:32:09Z</time>
      </trkpt>
      <trkpt lat="48.86223" lon="1.81425">
        <ele>132.2</ele>
        <time>2024-04-15T09:32:13Z</time>
      </trkpt>
      <trkpt lat="48.86228" lon="1.81421">
        <ele>132</ele>
        <time>2024-04-15T09:32:14Z</time>
      </trkpt>
      <trkpt lat="48.86233" lon="1.81418">
        <ele>132</ele>
        <time>2024-04-15T09:32:15Z</time>
      </trkpt>
      <trkpt lat="48.86243" lon="1.81414">
        <ele>131.8</ele>
        <time>2024-04-15T09:32:17Z</time>
      </trkpt>
      <trkpt lat="48.86248" lon="1.81414">
        <ele>131.8</ele>
        <time>2024-04-15T09:32:18Z</time>
      </trkpt>
      <trkpt lat="48.86253" lon="1.81414">
        <ele>131.8</ele>
        <time>2024-04-15T09:32:19Z</time>
      </trkpt>
      <trkpt lat="48.86273" lon="1.81423">
        <ele>131.4</ele>
        <time>2024-04-15T09:32:22Z</time>
      </trkpt>
      <trkpt lat="48.86297" lon="1.81435">
        <ele>131.2</ele>
        <time>2024-04-15T09:32:25Z</time>
      </trkpt>
      <trkpt lat="48.86306" lon="1.81439">
        <ele>131</ele>
        <time>2024-04-15T09:32:26Z</time>
      </trkpt>
      <trkpt lat="48.86318" lon="1.81439">
        <ele>130.8</ele>
        <time>2024-04-15T09:32:28Z</time>
      </trkpt>
      <trkpt lat="48.86331" lon="1.81433">
        <ele>130.6</ele>
        <time>2024-04-15T09:32:30Z</time>
      </trkpt>
      <trkpt lat="48.86338" lon="1.81428">
        <ele>130.4</ele>
        <time>2024-04-15T09:32:31Z</time>
      </trkpt>
      <trkpt lat="48.86371" lon="1.81401">
        <ele>129.8</ele>
        <time>2024-04-15T09:32:35Z</time>
      </trkpt>
      <trkpt lat="48.86421" lon="1.81361">
        <ele>129.2</ele>
        <time>2024-04-15T09:32:40Z</time>
      </trkpt>
      <trkpt lat="48.86432" lon="1.81352">
        <ele>129</ele>
        <time>2024-04-15T09:32:41Z</time>
      </trkpt>
      <trkpt lat="48.8648" lon="1.81308">
        <ele>128.6</ele>
        <time>2024-04-15T09:32:45Z</time>
      </trkpt>
      <trkpt lat="48.86493" lon="1.81295">
        <ele>128.4</ele>
        <time>2024-04-15T09:32:46Z</time>
      </trkpt>
      <trkpt lat="48.86533" lon="1.81249">
        <ele>127.8</ele>
        <time>2024-04-15T09:32:49Z</time>
      </trkpt>
      <trkpt lat="48.86584" lon="1.81174">
        <ele>127.2</ele>
        <time>2024-04-15T09:32:53Z</time>
      </trkpt>
      <trkpt lat="48.86597" lon="1.81155">
        <ele>127.2</ele>
        <time>2024-04-15T09:32:54Z</time>
      </trkpt>
      <trkpt lat="48.86646" lon="1.81079">
        <ele>126.4</ele>
        <time>2024-04-15T09:32:58Z</time>
      </trkpt>
      <trkpt lat="48.86667" lon="1.81039">
        <ele>126.2</ele>
        <time>2024-04-15T09:33:00Z</time>
      </trkpt>
      <trkpt lat="48.86696" lon="1.80968">
        <ele>125.8</ele>
        <time>2024-04-15T09:33:03Z</time>
      </trkpt>
      <trkpt lat="48.86706" lon="1.80944">
        <ele>125.6</ele>
        <time>2024-04-15T09:33:04Z</time>
      </trkpt>
      <trkpt lat="48.86731" lon="1.80875">
        <ele>125.2</ele>
        <time>2024-04-15T09:33:07Z</time>
      </trkpt>
      <trkpt lat="48.86742" lon="1.80796">
        <ele>125</ele>
        <time>2024-04-15T09:33:10Z</time>
      </trkpt>
      <trkpt lat="48.86752" lon="1.8069">
        <ele>124.6</ele>
        <time>2024-04-15T09:33:14Z</time>
      </trkpt>
      <trkpt lat="48.86764" lon="1.80596">
        <ele>124.2</ele>
        <time>2024-04-15T09:33:18Z</time>
      </trkpt>
      <trkpt lat="48.86769" lon="1.80574">
        <ele>124</ele>
        <time>2024-04-15T09:33:19Z</time>
      </trkpt>
      <trkpt lat="48.86773" lon="1.80552">
        <ele>123.8</ele>
        <time>2024-04-15T09:33:20Z</time>
      </trkpt>
      <trkpt lat="48.86785" lon="1.8051">
        <ele>123.6</ele>
        <time>2024-04-15T09:33:22Z</time>
      </trkpt>
      <trkpt lat="48.86808" lon="1.80425">
        <ele>123.4</ele>
        <time>2024-04-15T09:33:26Z</time>
      </trkpt>
      <trkpt lat="48.86821" lon="1.80355">
        <ele>123.2</ele>
        <time>2024-04-15T09:33:29Z</time>
      </trkpt>
      <trkpt lat="48.86837" lon="1.80268">
        <ele>123</ele>
        <time>2024-04-15T09:33:33Z</time>
      </trkpt>
      <trkpt lat="48.86842" lon="1.80248">
        <ele>123</ele>
        <time>2024-04-15T09:33:34Z</time>
      </trkpt>
      <trkpt lat="48.86862" lon="1.80178">
        <ele>123</ele>
        <time>2024-04-15T09:33:38Z</time>
      </trkpt>
      <trkpt lat="48.86887" lon="1.80112">
        <ele>123.2</ele>
        <time>2024-04-15T09:33:43Z</time>
      </trkpt>
      <trkpt lat="48.86909" lon="1.8006">
        <ele>122.8</ele>
        <time>2024-04-15T09:33:48Z</time>
      </trkpt>
      <trkpt lat="48.86917" lon="1.80039">
        <ele>123.4</ele>
        <time>2024-04-15T09:33:51Z</time>
      </trkpt>
      <trkpt lat="48.86921" lon="1.80031">
        <ele>123.4</ele>
        <time>2024-04-15T09:33:55Z</time>
      </trkpt>
      <trkpt lat="48.86921" lon="1.8003">
        <ele>123.6</ele>
        <time>2024-04-15T09:34:01Z</time>
      </trkpt>
      <trkpt lat="48.86924" lon="1.80025">
        <ele>123.8</ele>
        <time>2024-04-15T09:34:06Z</time>
      </trkpt>
      <trkpt lat="48.86926" lon="1.80024">
        <ele>123.8</ele>
        <time>2024-04-15T09:34:07Z</time>
      </trkpt>
      <trkpt lat="48.86934" lon="1.80022">
        <ele>123.8</ele>
        <time>2024-04-15T09:34:08Z</time>
      </trkpt>
      <trkpt lat="48.86944" lon="1.80033">
        <ele>124</ele>
        <time>2024-04-15T09:34:10Z</time>
      </trkpt>
      <trkpt lat="48.86969" lon="1.80059">
        <ele>124</ele>
        <time>2024-04-15T09:34:13Z</time>
      </trkpt>
      <trkpt lat="48.87006" lon="1.80119">
        <ele>124</ele>
        <time>2024-04-15T09:34:17Z</time>
      </trkpt>
      <trkpt lat="48.87048" lon="1.8019">
        <ele>124</ele>
        <time>2024-04-15T09:34:21Z</time>
      </trkpt>
      <trkpt lat="48.87091" lon="1.80266">
        <ele>124.2</ele>
        <time>2024-04-15T09:34:25Z</time>
      </trkpt>
      <trkpt lat="48.87135" lon="1.80345">
        <ele>124.2</ele>
        <time>2024-04-15T09:34:29Z</time>
      </trkpt>
      <trkpt lat="48.8717" lon="1.80408">
        <ele>124.2</ele>
        <time>2024-04-15T09:34:32Z</time>
      </trkpt>
      <trkpt lat="48.87206" lon="1.80473">
        <ele>124.2</ele>
        <time>2024-04-15T09:34:35Z</time>
      </trkpt>
      <trkpt lat="48.87244" lon="1.8054">
        <ele>124.2</ele>
        <time>2024-04-15T09:34:38Z</time>
      </trkpt>
      <trkpt lat="48.87282" lon="1.80609">
        <ele>124.4</ele>
        <time>2024-04-15T09:34:41Z</time>
      </trkpt>
      <trkpt lat="48.87295" lon="1.80632">
        <ele>124.2</ele>
        <time>2024-04-15T09:34:42Z</time>
      </trkpt>
      <trkpt lat="48.87333" lon="1.80702">
        <ele>124</ele>
        <time>2024-04-15T09:34:45Z</time>
      </trkpt>
      <trkpt lat="48.87376" lon="1.80768">
        <ele>123.8</ele>
        <time>2024-04-15T09:34:48Z</time>
      </trkpt>
      <trkpt lat="48.87391" lon="1.8079">
        <ele>123.8</ele>
        <time>2024-04-15T09:34:49Z</time>
      </trkpt>
      <trkpt lat="48.87433" lon="1.80855">
        <ele>123.6</ele>
        <time>2024-04-15T09:34:52Z</time>
      </trkpt>
      <trkpt lat="48.87473" lon="1.80918">
        <ele>123.6</ele>
        <time>2024-04-15T09:34:55Z</time>
      </trkpt>
      <trkpt lat="48.87487" lon="1.80939">
        <ele>123.4</ele>
        <time>2024-04-15T09:34:56Z</time>
      </trkpt>
      <trkpt lat="48.87525" lon="1.81001">
        <ele>123.4</ele>
        <time>2024-04-15T09:34:59Z</time>
      </trkpt>
      <trkpt lat="48.87561" lon="1.81063">
        <ele>123.4</ele>
        <time>2024-04-15T09:35:02Z</time>
      </trkpt>
      <trkpt lat="48.87602" lon="1.81149">
        <ele>123.4</ele>
        <time>2024-04-15T09:35:06Z</time>
      </trkpt>
      <trkpt lat="48.87611" lon="1.81171">
        <ele>123.4</ele>
        <time>2024-04-15T09:35:07Z</time>
      </trkpt>
      <trkpt lat="48.87637" lon="1.81246">
        <ele>123.4</ele>
        <time>2024-04-15T09:35:10Z</time>
      </trkpt>
      <trkpt lat="48.87655" lon="1.81298">
        <ele>123.4</ele>
        <time>2024-04-15T09:35:12Z</time>
      </trkpt>
      <trkpt lat="48.87683" lon="1.81378">
        <ele>123.4</ele>
        <time>2024-04-15T09:35:15Z</time>
      </trkpt>
      <trkpt lat="48.87709" lon="1.81459">
        <ele>123.4</ele>
        <time>2024-04-15T09:35:18Z</time>
      </trkpt>
      <trkpt lat="48.87718" lon="1.81486">
        <ele>123.4</ele>
        <time>2024-04-15T09:35:19Z</time>
      </trkpt>
      <trkpt lat="48.87744" lon="1.81563">
        <ele>123.4</ele>
        <time>2024-04-15T09:35:22Z</time>
      </trkpt>
      <trkpt lat="48.87769" lon="1.81639">
        <ele>123.2</ele>
        <time>2024-04-15T09:35:25Z</time>
      </trkpt>
      <trkpt lat="48.87777" lon="1.81663">
        <ele>123</ele>
        <time>2024-04-15T09:35:26Z</time>
      </trkpt>
      <trkpt lat="48.87803" lon="1.81756">
        <ele>123</ele>
        <time>2024-04-15T09:35:30Z</time>
      </trkpt>
      <trkpt lat="48.87824" lon="1.81831">
        <ele>122.8</ele>
        <time>2024-04-15T09:35:34Z</time>
      </trkpt>
      <trkpt lat="48.87848" lon="1.81907">
        <ele>122.6</ele>
        <time>2024-04-15T09:35:39Z</time>
      </trkpt>
      <trkpt lat="48.87852" lon="1.81922">
        <ele>122.6</ele>
        <time>2024-04-15T09:35:40Z</time>
      </trkpt>
      <trkpt lat="48.87877" lon="1.82005">
        <ele>122.4</ele>
        <time>2024-04-15T09:35:46Z</time>
      </trkpt>
      <trkpt lat="48.8788" lon="1.82021">
        <ele>122.4</ele>
        <time>2024-04-15T09:35:47Z</time>
      </trkpt>
      <trkpt lat="48.87895" lon="1.8211">
        <ele>122</ele>
        <time>2024-04-15T09:35:53Z</time>
      </trkpt>
      <trkpt lat="48.87903" lon="1.82151">
        <ele>121.8</ele>
        <time>2024-04-15T09:35:57Z</time>
      </trkpt>
      <trkpt lat="48.87906" lon="1.82174">
        <ele>121.6</ele>
        <time>2024-04-15T09:36:01Z</time>
      </trkpt>
      <trkpt lat="48.87912" lon="1.82207">
        <ele>121.2</ele>
        <time>2024-04-15T09:36:06Z</time>
      </trkpt>
      <trkpt lat="48.87922" lon="1.82257">
        <ele>121.2</ele>
        <time>2024-04-15T09:36:11Z</time>
      </trkpt>
      <trkpt lat="48.87933" lon="1.82319">
        <ele>120.8</ele>
        <time>2024-04-15T09:36:17Z</time>
      </trkpt>
      <trkpt lat="48.87934" lon="1.82324">
        <ele>120.8</ele>
        <time>2024-04-15T09:36:18Z</time>
      </trkpt>
      <trkpt lat="48.87939" lon="1.82333">
        <ele>120.6</ele>
        <time>2024-04-15T09:36:20Z</time>
      </trkpt>
      <trkpt lat="48.87958" lon="1.82353">
        <ele>120.2</ele>
        <time>2024-04-15T09:36:24Z</time>
      </trkpt>
      <trkpt lat="48.87988" lon="1.82383">
        <ele>120</ele>
        <time>2024-04-15T09:36:28Z</time>
      </trkpt>
      <trkpt lat="48.88026" lon="1.82431">
        <ele>119.6</ele>
        <time>2024-04-15T09:36:33Z</time>
      </trkpt>
      <trkpt lat="48.88061" lon="1.82478">
        <ele>119</ele>
        <time>2024-04-15T09:36:38Z</time>
      </trkpt>
      <trkpt lat="48.88105" lon="1.82535">
        <ele>118.6</ele>
        <time>2024-04-15T09:36:44Z</time>
      </trkpt>
      <trkpt lat="48.88136" lon="1.82569">
        <ele>118</ele>
        <time>2024-04-15T09:36:49Z</time>
      </trkpt>
      <trkpt lat="48.88153" lon="1.82581">
        <ele>117.6</ele>
        <time>2024-04-15T09:36:54Z</time>
      </trkpt>
      <trkpt lat="48.88158" lon="1.82583">
        <ele>117.6</ele>
        <time>2024-04-15T09:36:59Z</time>
      </trkpt>
      <trkpt lat="48.88173" lon="1.82592">
        <ele>117.4</ele>
        <time>2024-04-15T09:37:02Z</time>
      </trkpt>
      <trkpt lat="48.88199" lon="1.82606">
        <ele>116.8</ele>
        <time>2024-04-15T09:37:07Z</time>
      </trkpt>
      <trkpt lat="48.88203" lon="1.82608">
        <ele>116.6</ele>
        <time>2024-04-15T09:37:11Z</time>
      </trkpt>
      <trkpt lat="48.88203" lon="1.82608">
        <ele>116</ele>
        <time>2024-04-15T09:37:19Z</time>
      </trkpt>
      <trkpt lat="48.88203" lon="1.82608">
        <ele>115.4</ele>
        <time>2024-04-15T09:37:35Z</time>
      </trkpt>
      <trkpt lat="48.88203" lon="1.82608">
        <ele>114.8</ele>
        <time>2024-04-15T09:37:52Z</time>
      </trkpt>
      <trkpt lat="48.88203" lon="1.82608">
        <ele>114.2</ele>
        <time>2024-04-15T09:38:10Z</time>
      </trkpt>
      <trkpt lat="48.88203" lon="1.82608">
        <ele>113.8</ele>
        <time>2024-04-15T09:38:25Z</time>
      </trkpt>
      <trkpt lat="48.88203" lon="1.82608">
        <ele>113.8</ele>
        <time>2024-04-15T09:38:39Z</time>
      </trkpt>
      <trkpt lat="48.88203" lon="1.82608">
        <ele>113.6</ele>
        <time>2024-04-15T09:38:55Z</time>
      </trkpt>
      <trkpt lat="48.88209" lon="1.82611">
        <ele>113.6</ele>
        <time>2024-04-15T09:38:58Z</time>
      </trkpt>
      <trkpt lat="48.88232" lon="1.82624">
        <ele>113.6</ele>
        <time>2024-04-15T09:39:02Z</time>
      </trkpt>
      <trkpt lat="48.88282" lon="1.82651">
        <ele>113.8</ele>
        <time>2024-04-15T09:39:07Z</time>
      </trkpt>
      <trkpt lat="48.88318" lon="1.82671">
        <ele>113.8</ele>
        <time>2024-04-15T09:39:11Z</time>
      </trkpt>
      <trkpt lat="48.88347" lon="1.82687">
        <ele>113.8</ele>
        <time>2024-04-15T09:39:14Z</time>
      </trkpt>
      <trkpt lat="48.88394" lon="1.82713">
        <ele>114</ele>
        <time>2024-04-15T09:39:18Z</time>
      </trkpt>
      <trkpt lat="48.88454" lon="1.82747">
        <ele>114.2</ele>
        <time>2024-04-15T09:39:22Z</time>
      </trkpt>
      <trkpt lat="48.88517" lon="1.82784">
        <ele>114.4</ele>
        <time>2024-04-15T09:39:26Z</time>
      </trkpt>
      <trkpt lat="48.88549" lon="1.82807">
        <ele>114.4</ele>
        <time>2024-04-15T09:39:28Z</time>
      </trkpt>
      <trkpt lat="48.88597" lon="1.82852">
        <ele>114.6</ele>
        <time>2024-04-15T09:39:31Z</time>
      </trkpt>
      <trkpt lat="48.88613" lon="1.8287">
        <ele>114.6</ele>
        <time>2024-04-15T09:39:32Z</time>
      </trkpt>
      <trkpt lat="48.88659" lon="1.82927">
        <ele>114.6</ele>
        <time>2024-04-15T09:39:35Z</time>
      </trkpt>
      <trkpt lat="48.88701" lon="1.83002">
        <ele>114.4</ele>
        <time>2024-04-15T09:39:38Z</time>
      </trkpt>
      <trkpt lat="48.88741" lon="1.83085">
        <ele>114.4</ele>
        <time>2024-04-15T09:39:41Z</time>
      </trkpt>
      <trkpt lat="48.88768" lon="1.83142">
        <ele>114.4</ele>
        <time>2024-04-15T09:39:43Z</time>
      </trkpt>
      <trkpt lat="48.88805" lon="1.83226">
        <ele>114</ele>
        <time>2024-04-15T09:39:46Z</time>
      </trkpt>
      <trkpt lat="48.88848" lon="1.83304">
        <ele>114</ele>
        <time>2024-04-15T09:39:49Z</time>
      </trkpt>
      <trkpt lat="48.88898" lon="1.83383">
        <ele>113.6</ele>
        <time>2024-04-15T09:39:52Z</time>
      </trkpt>
      <trkpt lat="48.88931" lon="1.83435">
        <ele>113.4</ele>
        <time>2024-04-15T09:39:54Z</time>
      </trkpt>
      <trkpt lat="48.8898" lon="1.83513">
        <ele>113</ele>
        <time>2024-04-15T09:39:57Z</time>
      </trkpt>
      <trkpt lat="48.89027" lon="1.83587">
        <ele>112.6</ele>
        <time>2024-04-15T09:40:00Z</time>
      </trkpt>
      <trkpt lat="48.89043" lon="1.83611">
        <ele>112.6</ele>
        <time>2024-04-15T09:40:01Z</time>
      </trkpt>
      <trkpt lat="48.89085" lon="1.83677">
        <ele>112</ele>
        <time>2024-04-15T09:40:04Z</time>
      </trkpt>
      <trkpt lat="48.89098" lon="1.83698">
        <ele>111.8</ele>
        <time>2024-04-15T09:40:05Z</time>
      </trkpt>
      <trkpt lat="48.89145" lon="1.83748">
        <ele>111.4</ele>
        <time>2024-04-15T09:40:08Z</time>
      </trkpt>
      <trkpt lat="48.89197" lon="1.838">
        <ele>111</ele>
        <time>2024-04-15T09:40:11Z</time>
      </trkpt>
      <trkpt lat="48.89232" lon="1.83835">
        <ele>110.6</ele>
        <time>2024-04-15T09:40:13Z</time>
      </trkpt>
      <trkpt lat="48.89282" lon="1.83885">
        <ele>110.2</ele>
        <time>2024-04-15T09:40:16Z</time>
      </trkpt>
      <trkpt lat="48.89298" lon="1.83901">
        <ele>110</ele>
        <time>2024-04-15T09:40:17Z</time>
      </trkpt>
      <trkpt lat="48.8934" lon="1.83959">
        <ele>109.4</ele>
        <time>2024-04-15T09:40:20Z</time>
      </trkpt>
      <trkpt lat="48.89355" lon="1.83981">
        <ele>109.2</ele>
        <time>2024-04-15T09:40:21Z</time>
      </trkpt>
      <trkpt lat="48.894" lon="1.84046">
        <ele>108.4</ele>
        <time>2024-04-15T09:40:24Z</time>
      </trkpt>
      <trkpt lat="48.89446" lon="1.84114">
        <ele>107.6</ele>
        <time>2024-04-15T09:40:27Z</time>
      </trkpt>
      <trkpt lat="48.89492" lon="1.84181">
        <ele>106.6</ele>
        <time>2024-04-15T09:40:30Z</time>
      </trkpt>
      <trkpt lat="48.89537" lon="1.84248">
        <ele>105.6</ele>
        <time>2024-04-15T09:40:33Z</time>
      </trkpt>
      <trkpt lat="48.89552" lon="1.84271">
        <ele>105.2</ele>
        <time>2024-04-15T09:40:34Z</time>
      </trkpt>
      <trkpt lat="48.89594" lon="1.84335">
        <ele>104.2</ele>
        <time>2024-04-15T09:40:37Z</time>
      </trkpt>
      <trkpt lat="48.89607" lon="1.84355">
        <ele>103.8</ele>
        <time>2024-04-15T09:40:38Z</time>
      </trkpt>
      <trkpt lat="48.89637" lon="1.84388">
        <ele>103</ele>
        <time>2024-04-15T09:40:40Z</time>
      </trkpt>
      <trkpt lat="48.89654" lon="1.84401">
        <ele>102.6</ele>
        <time>2024-04-15T09:40:41Z</time>
      </trkpt>
      <trkpt lat="48.89705" lon="1.84438">
        <ele>101.4</ele>
        <time>2024-04-15T09:40:44Z</time>
      </trkpt>
      <trkpt lat="48.89755" lon="1.84475">
        <ele>100</ele>
        <time>2024-04-15T09:40:47Z</time>
      </trkpt>
      <trkpt lat="48.89771" lon="1.84487">
        <ele>99.6</ele>
        <time>2024-04-15T09:40:48Z</time>
      </trkpt>
      <trkpt lat="48.89825" lon="1.84509">
        <ele>98.4</ele>
        <time>2024-04-15T09:40:51Z</time>
      </trkpt>
      <trkpt lat="48.89885" lon="1.84527">
        <ele>97</ele>
        <time>2024-04-15T09:40:54Z</time>
      </trkpt>
      <trkpt lat="48.89905" lon="1.84534">
        <ele>96.4</ele>
        <time>2024-04-15T09:40:55Z</time>
      </trkpt>
      <trkpt lat="48.89967" lon="1.84553">
        <ele>95</ele>
        <time>2024-04-15T09:40:58Z</time>
      </trkpt>
      <trkpt lat="48.90029" lon="1.84573">
        <ele>93.4</ele>
        <time>2024-04-15T09:41:01Z</time>
      </trkpt>
      <trkpt lat="48.90089" lon="1.84598">
        <ele>91.8</ele>
        <time>2024-04-15T09:41:04Z</time>
      </trkpt>
      <trkpt lat="48.90107" lon="1.84608">
        <ele>91.2</ele>
        <time>2024-04-15T09:41:05Z</time>
      </trkpt>
      <trkpt lat="48.90159" lon="1.84642">
        <ele>89.4</ele>
        <time>2024-04-15T09:41:08Z</time>
      </trkpt>
      <trkpt lat="48.90176" lon="1.84655">
        <ele>89</ele>
        <time>2024-04-15T09:41:09Z</time>
      </trkpt>
      <trkpt lat="48.9024" lon="1.84693">
        <ele>86.8</ele>
        <time>2024-04-15T09:41:13Z</time>
      </trkpt>
      <trkpt lat="48.9029" lon="1.84713">
        <ele>84.4</ele>
        <time>2024-04-15T09:41:17Z</time>
      </trkpt>
      <trkpt lat="48.90344" lon="1.84734">
        <ele>81.6</ele>
        <time>2024-04-15T09:41:22Z</time>
      </trkpt>
      <trkpt lat="48.90365" lon="1.84744">
        <ele>80.4</ele>
        <time>2024-04-15T09:41:24Z</time>
      </trkpt>
      <trkpt lat="48.90416" lon="1.84759">
        <ele>77.4</ele>
        <time>2024-04-15T09:41:29Z</time>
      </trkpt>
      <trkpt lat="48.90467" lon="1.84763">
        <ele>74.2</ele>
        <time>2024-04-15T09:41:34Z</time>
      </trkpt>
      <trkpt lat="48.9053" lon="1.84773">
        <ele>70.6</ele>
        <time>2024-04-15T09:41:40Z</time>
      </trkpt>
      <trkpt lat="48.90551" lon="1.84779">
        <ele>69.2</ele>
        <time>2024-04-15T09:41:42Z</time>
      </trkpt>
      <trkpt lat="48.906" lon="1.84797">
        <ele>66.2</ele>
        <time>2024-04-15T09:41:47Z</time>
      </trkpt>
      <trkpt lat="48.90631" lon="1.84827">
        <ele>63.8</ele>
        <time>2024-04-15T09:41:51Z</time>
      </trkpt>
      <trkpt lat="48.90644" lon="1.84839">
        <ele>62.4</ele>
        <time>2024-04-15T09:41:53Z</time>
      </trkpt>
      <trkpt lat="48.90654" lon="1.84848">
        <ele>61.2</ele>
        <time>2024-04-15T09:41:55Z</time>
      </trkpt>
      <trkpt lat="48.90663" lon="1.84857">
        <ele>59.6</ele>
        <time>2024-04-15T09:41:58Z</time>
      </trkpt>
      <trkpt lat="48.90677" lon="1.84869">
        <ele>57</ele>
        <time>2024-04-15T09:42:04Z</time>
      </trkpt>
      <trkpt lat="48.90699" lon="1.84889">
        <ele>54.2</ele>
        <time>2024-04-15T09:42:10Z</time>
      </trkpt>
      <trkpt lat="48.9071" lon="1.84899">
        <ele>52.4</ele>
        <time>2024-04-15T09:42:14Z</time>
      </trkpt>
      <trkpt lat="48.90727" lon="1.84922">
        <ele>50.8</ele>
        <time>2024-04-15T09:42:18Z</time>
      </trkpt>
      <trkpt lat="48.90763" lon="1.84973">
        <ele>47.4</ele>
        <time>2024-04-15T09:42:26Z</time>
      </trkpt>
      <trkpt lat="48.90789" lon="1.8501">
        <ele>45.4</ele>
        <time>2024-04-15T09:42:31Z</time>
      </trkpt>
      <trkpt lat="48.90828" lon="1.85067">
        <ele>42.6</ele>
        <time>2024-04-15T09:42:38Z</time>
      </trkpt>
      <trkpt lat="48.90838" lon="1.8508">
        <ele>41.6</ele>
        <time>2024-04-15T09:42:41Z</time>
      </trkpt>
      <trkpt lat="48.90838" lon="1.8508">
        <ele>40.2</ele>
        <time>2024-04-15T09:42:45Z</time>
      </trkpt>
      <trkpt lat="48.90838" lon="1.8508">
        <ele>36</ele>
        <time>2024-04-15T09:43:00Z</time>
      </trkpt>
      <trkpt lat="48.90839" lon="1.85083">
        <ele>31.8</ele>
        <time>2024-04-15T09:43:18Z</time>
      </trkpt>
      <trkpt lat="48.9085" lon="1.85097">
        <ele>30.4</ele>
        <time>2024-04-15T09:43:23Z</time>
      </trkpt>
      <trkpt lat="48.90858" lon="1.85109">
        <ele>30</ele>
        <time>2024-04-15T09:43:25Z</time>
      </trkpt>
      <trkpt lat="48.9087" lon="1.85123">
        <ele>29.2</ele>
        <time>2024-04-15T09:43:28Z</time>
      </trkpt>
      <trkpt lat="48.90901" lon="1.85164">
        <ele>27.6</ele>
        <time>2024-04-15T09:43:34Z</time>
      </trkpt>
      <trkpt lat="48.90933" lon="1.85213">
        <ele>26</ele>
        <time>2024-04-15T09:43:40Z</time>
      </trkpt>
      <trkpt lat="48.90964" lon="1.85266">
        <ele>25</ele>
        <time>2024-04-15T09:43:45Z</time>
      </trkpt>
      <trkpt lat="48.91" lon="1.85308">
        <ele>24.6</ele>
        <time>2024-04-15T09:43:50Z</time>
      </trkpt>
      <trkpt lat="48.91023" lon="1.85336">
        <ele>24.4</ele>
        <time>2024-04-15T09:43:54Z</time>
      </trkpt>
      <trkpt lat="48.91033" lon="1.85348">
        <ele>24.4</ele>
        <time>2024-04-15T09:43:56Z</time>
      </trkpt>
      <trkpt lat="48.91046" lon="1.85365">
        <ele>24.4</ele>
        <time>2024-04-15T09:44:00Z</time>
      </trkpt>
      <trkpt lat="48.9105" lon="1.85369">
        <ele>24.4</ele>
        <time>2024-04-15T09:44:05Z</time>
      </trkpt>
      <trkpt lat="48.91058" lon="1.8538">
        <ele>24.2</ele>
        <time>2024-04-15T09:44:10Z</time>
      </trkpt>
      <trkpt lat="48.9107" lon="1.85401">
        <ele>24.2</ele>
        <time>2024-04-15T09:44:16Z</time>
      </trkpt>
      <trkpt lat="48.91071" lon="1.85406">
        <ele>24</ele>
        <time>2024-04-15T09:44:17Z</time>
      </trkpt>
      <trkpt lat="48.9107" lon="1.85417">
        <ele>24.6</ele>
        <time>2024-04-15T09:44:18Z</time>
      </trkpt>
      <trkpt lat="48.91063" lon="1.85423">
        <ele>24.6</ele>
        <time>2024-04-15T09:44:21Z</time>
      </trkpt>
      <trkpt lat="48.91051" lon="1.85437">
        <ele>25</ele>
        <time>2024-04-15T09:44:26Z</time>
      </trkpt>
      <trkpt lat="48.91024" lon="1.85466">
        <ele>25.2</ele>
        <time>2024-04-15T09:44:32Z</time>
      </trkpt>
      <trkpt lat="48.90996" lon="1.85499">
        <ele>25.6</ele>
        <time>2024-04-15T09:44:37Z</time>
      </trkpt>
      <trkpt lat="48.90954" lon="1.85563">
        <ele>26</ele>
        <time>2024-04-15T09:44:44Z</time>
      </trkpt>
      <trkpt lat="48.90922" lon="1.85617">
        <ele>26.4</ele>
        <time>2024-04-15T09:44:50Z</time>
      </trkpt>
      <trkpt lat="48.90895" lon="1.85668">
        <ele>27</ele>
        <time>2024-04-15T09:44:55Z</time>
      </trkpt>
      <trkpt lat="48.90857" lon="1.85742">
        <ele>27.8</ele>
        <time>2024-04-15T09:45:01Z</time>
      </trkpt>
      <trkpt lat="48.90838" lon="1.85778">
        <ele>28</ele>
        <time>2024-04-15T09:45:04Z</time>
      </trkpt>
      <trkpt lat="48.90817" lon="1.85819">
        <ele>28.4</ele>
        <time>2024-04-15T09:45:08Z</time>
      </trkpt>
      <trkpt lat="48.90797" lon="1.85858">
        <ele>28.8</ele>
        <time>2024-04-15T09:45:13Z</time>
      </trkpt>
      <trkpt lat="48.90788" lon="1.85876">
        <ele>29.2</ele>
        <time>2024-04-15T09:45:17Z</time>
      </trkpt>
      <trkpt lat="48.90786" lon="1.85879">
        <ele>29.6</ele>
        <time>2024-04-15T09:45:21Z</time>
      </trkpt>
      <trkpt lat="48.90786" lon="1.85879">
        <ele>30.4</ele>
        <time>2024-04-15T09:45:29Z</time>
      </trkpt>
      <trkpt lat="48.90786" lon="1.85879">
        <ele>31.8</ele>
        <time>2024-04-15T09:45:50Z</time>
      </trkpt>
      <trkpt lat="48.90786" lon="1.85879">
        <ele>33</ele>
        <time>2024-04-15T09:46:12Z</time>
      </trkpt>
      <trkpt lat="48.90786" lon="1.85879">
        <ele>33.8</ele>
        <time>2024-04-15T09:46:31Z</time>
      </trkpt>
      <trkpt lat="48.90788" lon="1.85876">
        <ele>34</ele>
        <time>2024-04-15T09:46:38Z</time>
      </trkpt>
      <trkpt lat="48.90788" lon="1.85876">
        <ele>34.4</ele>
        <time>2024-04-15T09:46:46Z</time>
      </trkpt>
      <trkpt lat="48.90786" lon="1.85879">
        <ele>34.6</ele>
        <time>2024-04-15T09:46:50Z</time>
      </trkpt>
      <trkpt lat="48.90786" lon="1.85879">
        <ele>34.8</ele>
        <time>2024-04-15T09:46:52Z</time>
      </trkpt>
      <trkpt lat="48.90786" lon="1.85879">
        <ele>34.8</ele>
        <time>2024-04-15T09:46:54Z</time>
      </trkpt>
      <trkpt lat="48.90787" lon="1.85878">
        <ele>35</ele>
        <time>2024-04-15T09:46:57Z</time>
      </trkpt>
      <trkpt lat="48.90789" lon="1.85874">
        <ele>35.4</ele>
        <time>2024-04-15T09:47:04Z</time>
      </trkpt>
      <trkpt lat="48.90789" lon="1.85873">
        <ele>35.6</ele>
        <time>2024-04-15T09:47:05Z</time>
      </trkpt>
      <trkpt lat="48.9079" lon="1.85872">
        <ele>35.8</ele>
        <time>2024-04-15T09:47:10Z</time>
      </trkpt>
      <trkpt lat="48.9079" lon="1.85872">
        <ele>36.6</ele>
        <time>2024-04-15T09:47:28Z</time>
      </trkpt>
      <trkpt lat="48.9079" lon="1.85872">
        <ele>37.6</ele>
        <time>2024-04-15T09:47:50Z</time>
      </trkpt>
      <trkpt lat="48.9079" lon="1.85872">
        <ele>38</ele>
        <time>2024-04-15T09:48:05Z</time>
      </trkpt>
      <trkpt lat="48.9079" lon="1.85872">
        <ele>38.6</ele>
        <time>2024-04-15T09:48:15Z</time>
      </trkpt>
      <trkpt lat="48.9079" lon="1.85872">
        <ele>38.8</ele>
        <time>2024-04-15T09:48:23Z</time>
      </trkpt>
      <trkpt lat="48.9079" lon="1.85872">
        <ele>39.2</ele>
        <time>2024-04-15T09:48:33Z</time>
      </trkpt>
      <trkpt lat="48.9079" lon="1.85872">
        <ele>39.4</ele>
        <time>2024-04-15T09:48:43Z</time>
      </trkpt>
      <trkpt lat="48.90787" lon="1.85883">
        <ele>39.6</ele>
        <time>2024-04-15T09:48:53Z</time>
      </trkpt>
      <trkpt lat="48.90785" lon="1.85883">
        <ele>39.6</ele>
        <time>2024-04-15T09:48:54Z</time>
      </trkpt>
      <trkpt lat="48.90779" lon="1.85893">
        <ele>39.4</ele>
        <time>2024-04-15T09:48:57Z</time>
      </trkpt>
      <trkpt lat="48.90776" lon="1.85898">
        <ele>39.4</ele>
        <time>2024-04-15T09:48:58Z</time>
      </trkpt>
      <trkpt lat="48.9076" lon="1.85929">
        <ele>39.6</ele>
        <time>2024-04-15T09:49:02Z</time>
      </trkpt>
      <trkpt lat="48.90741" lon="1.85966">
        <ele>39.8</ele>
        <time>2024-04-15T09:49:05Z</time>
      </trkpt>
      <trkpt lat="48.90706" lon="1.86031">
        <ele>39.8</ele>
        <time>2024-04-15T09:49:09Z</time>
      </trkpt>
      <trkpt lat="48.90668" lon="1.86104">
        <ele>40</ele>
        <time>2024-04-15T09:49:13Z</time>
      </trkpt>
      <trkpt lat="48.90658" lon="1.86123">
        <ele>40.2</ele>
        <time>2024-04-15T09:49:14Z</time>
      </trkpt>
      <trkpt lat="48.9062" lon="1.86195">
        <ele>40.4</ele>
        <time>2024-04-15T09:49:18Z</time>
      </trkpt>
      <trkpt lat="48.9061" lon="1.8621">
        <ele>40.6</ele>
        <time>2024-04-15T09:49:19Z</time>
      </trkpt>
      <trkpt lat="48.90564" lon="1.86269">
        <ele>40.8</ele>
        <time>2024-04-15T09:49:23Z</time>
      </trkpt>
      <trkpt lat="48.90513" lon="1.86333">
        <ele>41.2</ele>
        <time>2024-04-15T09:49:27Z</time>
      </trkpt>
      <trkpt lat="48.90486" lon="1.86367">
        <ele>41.4</ele>
        <time>2024-04-15T09:49:29Z</time>
      </trkpt>
      <trkpt lat="48.9043" lon="1.86434">
        <ele>41.8</ele>
        <time>2024-04-15T09:49:33Z</time>
      </trkpt>
      <trkpt lat="48.90415" lon="1.8645">
        <ele>41.8</ele>
        <time>2024-04-15T09:49:34Z</time>
      </trkpt>
      <trkpt lat="48.90365" lon="1.86489">
        <ele>42</ele>
        <time>2024-04-15T09:49:37Z</time>
      </trkpt>
      <trkpt lat="48.90347" lon="1.86502">
        <ele>42.2</ele>
        <time>2024-04-15T09:49:38Z</time>
      </trkpt>
      <trkpt lat="48.90291" lon="1.86537">
        <ele>42.2</ele>
        <time>2024-04-15T09:49:41Z</time>
      </trkpt>
      <trkpt lat="48.90232" lon="1.86568">
        <ele>42.4</ele>
        <time>2024-04-15T09:49:44Z</time>
      </trkpt>
      <trkpt lat="48.90172" lon="1.86598">
        <ele>42.8</ele>
        <time>2024-04-15T09:49:47Z</time>
      </trkpt>
      <trkpt lat="48.90153" lon="1.86608">
        <ele>42.8</ele>
        <time>2024-04-15T09:49:48Z</time>
      </trkpt>
      <trkpt lat="48.90095" lon="1.86638">
        <ele>43</ele>
        <time>2024-04-15T09:49:51Z</time>
      </trkpt>
      <trkpt lat="48.90058" lon="1.86657">
        <ele>43.2</ele>
        <time>2024-04-15T09:49:53Z</time>
      </trkpt>
      <trkpt lat="48.90004" lon="1.86684">
        <ele>43.2</ele>
        <time>2024-04-15T09:49:56Z</time>
      </trkpt>
      <trkpt lat="48.89971" lon="1.86701">
        <ele>43.4</ele>
        <time>2024-04-15T09:49:58Z</time>
      </trkpt>
      <trkpt lat="48.89912" lon="1.86731">
        <ele>43.6</ele>
        <time>2024-04-15T09:50:02Z</time>
      </trkpt>
      <trkpt lat="48.89854" lon="1.86761">
        <ele>44</ele>
        <time>2024-04-15T09:50:07Z</time>
      </trkpt>
      <trkpt lat="48.89793" lon="1.86792">
        <ele>44.4</ele>
        <time>2024-04-15T09:50:12Z</time>
      </trkpt>
      <trkpt lat="48.89781" lon="1.86798">
        <ele>44.4</ele>
        <time>2024-04-15T09:50:13Z</time>
      </trkpt>
      <trkpt lat="48.89722" lon="1.86829">
        <ele>44.6</ele>
        <time>2024-04-15T09:50:18Z</time>
      </trkpt>
      <trkpt lat="48.89687" lon="1.86847">
        <ele>44.6</ele>
        <time>2024-04-15T09:50:21Z</time>
      </trkpt>
      <trkpt lat="48.89629" lon="1.8688">
        <ele>44.8</ele>
        <time>2024-04-15T09:50:26Z</time>
      </trkpt>
      <trkpt lat="48.89585" lon="1.86905">
        <ele>45</ele>
        <time>2024-04-15T09:50:30Z</time>
      </trkpt>
      <trkpt lat="48.89548" lon="1.86931">
        <ele>45</ele>
        <time>2024-04-15T09:50:34Z</time>
      </trkpt>
      <trkpt lat="48.89525" lon="1.86952">
        <ele>45.2</ele>
        <time>2024-04-15T09:50:38Z</time>
      </trkpt>
      <trkpt lat="48.89518" lon="1.86958">
        <ele>45.4</ele>
        <time>2024-04-15T09:50:41Z</time>
      </trkpt>
      <trkpt lat="48.89518" lon="1.86958">
        <ele>45.8</ele>
        <time>2024-04-15T09:50:47Z</time>
      </trkpt>
      <trkpt lat="48.89507" lon="1.86957">
        <ele>46</ele>
        <time>2024-04-15T09:50:52Z</time>
      </trkpt>
      <trkpt lat="48.89502" lon="1.86967">
        <ele>46.2</ele>
        <time>2024-04-15T09:50:56Z</time>
      </trkpt>
      <trkpt lat="48.89495" lon="1.86976">
        <ele>46.4</ele>
        <time>2024-04-15T09:51:02Z</time>
      </trkpt>
      <trkpt lat="48.8948" lon="1.8699">
        <ele>46.4</ele>
        <time>2024-04-15T09:51:07Z</time>
      </trkpt>
      <trkpt lat="48.89458" lon="1.87011">
        <ele>46.4</ele>
        <time>2024-04-15T09:51:14Z</time>
      </trkpt>
      <trkpt lat="48.89456" lon="1.87014">
        <ele>46.6</ele>
        <time>2024-04-15T09:51:18Z</time>
      </trkpt>
      <trkpt lat="48.89456" lon="1.87014">
        <ele>46.8</ele>
        <time>2024-04-15T09:51:32Z</time>
      </trkpt>
      <trkpt lat="48.89456" lon="1.87014">
        <ele>47</ele>
        <time>2024-04-15T09:51:51Z</time>
      </trkpt>
      <trkpt lat="48.89455" lon="1.87015">
        <ele>47.2</ele>
        <time>2024-04-15T09:51:56Z</time>
      </trkpt>
      <trkpt lat="48.89452" lon="1.8702">
        <ele>47.2</ele>
        <time>2024-04-15T09:51:58Z</time>
      </trkpt>
      <trkpt lat="48.89442" lon="1.87035">
        <ele>47.4</ele>
        <time>2024-04-15T09:52:01Z</time>
      </trkpt>
      <trkpt lat="48.89431" lon="1.8707">
        <ele>47.6</ele>
        <time>2024-04-15T09:52:04Z</time>
      </trkpt>
      <trkpt lat="48.89423" lon="1.87126">
        <ele>48</ele>
        <time>2024-04-15T09:52:08Z</time>
      </trkpt>
      <trkpt lat="48.89417" lon="1.87187">
        <ele>48.4</ele>
        <time>2024-04-15T09:52:12Z</time>
      </trkpt>
      <trkpt lat="48.89412" lon="1.87284">
        <ele>49.2</ele>
        <time>2024-04-15T09:52:17Z</time>
      </trkpt>
      <trkpt lat="48.89408" lon="1.87383">
        <ele>50</ele>
        <time>2024-04-15T09:52:22Z</time>
      </trkpt>
      <trkpt lat="48.89405" lon="1.8744">
        <ele>50.8</ele>
        <time>2024-04-15T09:52:25Z</time>
      </trkpt>
      <trkpt lat="48.89394" lon="1.87527">
        <ele>51.8</ele>
        <time>2024-04-15T09:52:30Z</time>
      </trkpt>
      <trkpt lat="48.89384" lon="1.87576">
        <ele>52.8</ele>
        <time>2024-04-15T09:52:34Z</time>
      </trkpt>
      <trkpt lat="48.89377" lon="1.87609">
        <ele>53.6</ele>
        <time>2024-04-15T09:52:38Z</time>
      </trkpt>
      <trkpt lat="48.89369" lon="1.87643">
        <ele>54.8</ele>
        <time>2024-04-15T09:52:42Z</time>
      </trkpt>
      <trkpt lat="48.8936" lon="1.87689">
        <ele>55.6</ele>
        <time>2024-04-15T09:52:45Z</time>
      </trkpt>
      <trkpt lat="48.89342" lon="1.87768">
        <ele>56.8</ele>
        <time>2024-04-15T09:52:49Z</time>
      </trkpt>
      <trkpt lat="48.89319" lon="1.87855">
        <ele>58.4</ele>
        <time>2024-04-15T09:52:53Z</time>
      </trkpt>
      <trkpt lat="48.89311" lon="1.87875">
        <ele>58.6</ele>
        <time>2024-04-15T09:52:54Z</time>
      </trkpt>
      <trkpt lat="48.8928" lon="1.87957">
        <ele>60.2</ele>
        <time>2024-04-15T09:52:58Z</time>
      </trkpt>
      <trkpt lat="48.89265" lon="1.87997">
        <ele>61</ele>
        <time>2024-04-15T09:53:00Z</time>
      </trkpt>
      <trkpt lat="48.89234" lon="1.88078">
        <ele>62.6</ele>
        <time>2024-04-15T09:53:04Z</time>
      </trkpt>
      <trkpt lat="48.89221" lon="1.8812">
        <ele>63.6</ele>
        <time>2024-04-15T09:53:06Z</time>
      </trkpt>
      <trkpt lat="48.89205" lon="1.88218">
        <ele>65.4</ele>
        <time>2024-04-15T09:53:10Z</time>
      </trkpt>
      <trkpt lat="48.89192" lon="1.88326">
        <ele>67.2</ele>
        <time>2024-04-15T09:53:14Z</time>
      </trkpt>
      <trkpt lat="48.8918" lon="1.88432">
        <ele>69</ele>
        <time>2024-04-15T09:53:18Z</time>
      </trkpt>
      <trkpt lat="48.8917" lon="1.88508">
        <ele>70.4</ele>
        <time>2024-04-15T09:53:21Z</time>
      </trkpt>
      <trkpt lat="48.89148" lon="1.88578">
        <ele>72.4</ele>
        <time>2024-04-15T09:53:25Z</time>
      </trkpt>
      <trkpt lat="48.89129" lon="1.88608">
        <ele>73.4</ele>
        <time>2024-04-15T09:53:27Z</time>
      </trkpt>
      <trkpt lat="48.89091" lon="1.88653">
        <ele>75.4</ele>
        <time>2024-04-15T09:53:30Z</time>
      </trkpt>
      <trkpt lat="48.89041" lon="1.88704">
        <ele>77</ele>
        <time>2024-04-15T09:53:33Z</time>
      </trkpt>
      <trkpt lat="48.89024" lon="1.88721">
        <ele>77.6</ele>
        <time>2024-04-15T09:53:34Z</time>
      </trkpt>
      <trkpt lat="48.8897" lon="1.88774">
        <ele>79</ele>
        <time>2024-04-15T09:53:37Z</time>
      </trkpt>
      <trkpt lat="48.88916" lon="1.88827">
        <ele>80.6</ele>
        <time>2024-04-15T09:53:40Z</time>
      </trkpt>
      <trkpt lat="48.88898" lon="1.88844">
        <ele>81</ele>
        <time>2024-04-15T09:53:41Z</time>
      </trkpt>
      <trkpt lat="48.88845" lon="1.88896">
        <ele>82.4</ele>
        <time>2024-04-15T09:53:44Z</time>
      </trkpt>
      <trkpt lat="48.8883" lon="1.8892">
        <ele>83</ele>
        <time>2024-04-15T09:53:45Z</time>
      </trkpt>
      <trkpt lat="48.88805" lon="1.88968">
        <ele>83.8</ele>
        <time>2024-04-15T09:53:47Z</time>
      </trkpt>
      <trkpt lat="48.88795" lon="1.88993">
        <ele>84.2</ele>
        <time>2024-04-15T09:53:48Z</time>
      </trkpt>
      <trkpt lat="48.8877" lon="1.89076">
        <ele>85.8</ele>
        <time>2024-04-15T09:53:51Z</time>
      </trkpt>
      <trkpt lat="48.88751" lon="1.89161">
        <ele>87.2</ele>
        <time>2024-04-15T09:53:54Z</time>
      </trkpt>
      <trkpt lat="48.8874" lon="1.89251">
        <ele>88.6</ele>
        <time>2024-04-15T09:53:57Z</time>
      </trkpt>
      <trkpt lat="48.88735" lon="1.89312">
        <ele>89.6</ele>
        <time>2024-04-15T09:53:59Z</time>
      </trkpt>
      <trkpt lat="48.88732" lon="1.89404">
        <ele>90.6</ele>
        <time>2024-04-15T09:54:02Z</time>
      </trkpt>
      <trkpt lat="48.88729" lon="1.89495">
        <ele>91.8</ele>
        <time>2024-04-15T09:54:05Z</time>
      </trkpt>
      <trkpt lat="48.88726" lon="1.89587">
        <ele>92.8</ele>
        <time>2024-04-15T09:54:08Z</time>
      </trkpt>
      <trkpt lat="48.88723" lon="1.8968">
        <ele>94</ele>
        <time>2024-04-15T09:54:11Z</time>
      </trkpt>
      <trkpt lat="48.88721" lon="1.89744">
        <ele>94.6</ele>
        <time>2024-04-15T09:54:13Z</time>
      </trkpt>
      <trkpt lat="48.88718" lon="1.89838">
        <ele>95.6</ele>
        <time>2024-04-15T09:54:16Z</time>
      </trkpt>
      <trkpt lat="48.88714" lon="1.89932">
        <ele>96.6</ele>
        <time>2024-04-15T09:54:19Z</time>
      </trkpt>
      <trkpt lat="48.8871" lon="1.90029">
        <ele>97.6</ele>
        <time>2024-04-15T09:54:22Z</time>
      </trkpt>
      <trkpt lat="48.88709" lon="1.90062">
        <ele>97.8</ele>
        <time>2024-04-15T09:54:23Z</time>
      </trkpt>
      <trkpt lat="48.88705" lon="1.90162">
        <ele>98.8</ele>
        <time>2024-04-15T09:54:26Z</time>
      </trkpt>
      <trkpt lat="48.88702" lon="1.90266">
        <ele>99.6</ele>
        <time>2024-04-15T09:54:29Z</time>
      </trkpt>
      <trkpt lat="48.88701" lon="1.90301">
        <ele>99.8</ele>
        <time>2024-04-15T09:54:30Z</time>
      </trkpt>
      <trkpt lat="48.88698" lon="1.90407">
        <ele>100.6</ele>
        <time>2024-04-15T09:54:33Z</time>
      </trkpt>
      <trkpt lat="48.88695" lon="1.90516">
        <ele>101.4</ele>
        <time>2024-04-15T09:54:36Z</time>
      </trkpt>
      <trkpt lat="48.88693" lon="1.90588">
        <ele>102</ele>
        <time>2024-04-15T09:54:38Z</time>
      </trkpt>
      <trkpt lat="48.88689" lon="1.90698">
        <ele>102.8</ele>
        <time>2024-04-15T09:54:41Z</time>
      </trkpt>
      <trkpt lat="48.88686" lon="1.90803">
        <ele>103.6</ele>
        <time>2024-04-15T09:54:44Z</time>
      </trkpt>
      <trkpt lat="48.88685" lon="1.90838">
        <ele>103.8</ele>
        <time>2024-04-15T09:54:45Z</time>
      </trkpt>
      <trkpt lat="48.88682" lon="1.90939">
        <ele>104.6</ele>
        <time>2024-04-15T09:54:48Z</time>
      </trkpt>
      <trkpt lat="48.88679" lon="1.91037">
        <ele>105.4</ele>
        <time>2024-04-15T09:54:51Z</time>
      </trkpt>
      <trkpt lat="48.88678" lon="1.91069">
        <ele>105.6</ele>
        <time>2024-04-15T09:54:52Z</time>
      </trkpt>
      <trkpt lat="48.88675" lon="1.91163">
        <ele>106.4</ele>
        <time>2024-04-15T09:54:55Z</time>
      </trkpt>
      <trkpt lat="48.88672" lon="1.91252">
        <ele>107.2</ele>
        <time>2024-04-15T09:54:58Z</time>
      </trkpt>
      <trkpt lat="48.88669" lon="1.91327">
        <ele>108</ele>
        <time>2024-04-15T09:55:01Z</time>
      </trkpt>
      <trkpt lat="48.88667" lon="1.91376">
        <ele>108.8</ele>
        <time>2024-04-15T09:55:04Z</time>
      </trkpt>
      <trkpt lat="48.88664" lon="1.91472">
        <ele>110.2</ele>
        <time>2024-04-15T09:55:10Z</time>
      </trkpt>
      <trkpt lat="48.88661" lon="1.91556">
        <ele>111.2</ele>
        <time>2024-04-15T09:55:15Z</time>
      </trkpt>
      <trkpt lat="48.8866" lon="1.91574">
        <ele>111.4</ele>
        <time>2024-04-15T09:55:16Z</time>
      </trkpt>
      <trkpt lat="48.88657" lon="1.91671">
        <ele>112.4</ele>
        <time>2024-04-15T09:55:21Z</time>
      </trkpt>
      <trkpt lat="48.88656" lon="1.91711">
        <ele>112.6</ele>
        <time>2024-04-15T09:55:23Z</time>
      </trkpt>
      <trkpt lat="48.88653" lon="1.91794">
        <ele>113.2</ele>
        <time>2024-04-15T09:55:27Z</time>
      </trkpt>
      <trkpt lat="48.88651" lon="1.9188">
        <ele>113.6</ele>
        <time>2024-04-15T09:55:31Z</time>
      </trkpt>
      <trkpt lat="48.88648" lon="1.91964">
        <ele>114</ele>
        <time>2024-04-15T09:55:35Z</time>
      </trkpt>
      <trkpt lat="48.88646" lon="1.92023">
        <ele>114.2</ele>
        <time>2024-04-15T09:55:38Z</time>
      </trkpt>
      <trkpt lat="48.88644" lon="1.92086">
        <ele>114.6</ele>
        <time>2024-04-15T09:55:42Z</time>
      </trkpt>
      <trkpt lat="48.88642" lon="1.92149">
        <ele>114.8</ele>
        <time>2024-04-15T09:55:47Z</time>
      </trkpt>
      <trkpt lat="48.88638" lon="1.92245">
        <ele>115.2</ele>
        <time>2024-04-15T09:55:54Z</time>
      </trkpt>
      <trkpt lat="48.88635" lon="1.92333">
        <ele>115.4</ele>
        <time>2024-04-15T09:55:59Z</time>
      </trkpt>
      <trkpt lat="48.88631" lon="1.92435">
        <ele>115.8</ele>
        <time>2024-04-15T09:56:04Z</time>
      </trkpt>
      <trkpt lat="48.8863" lon="1.92455">
        <ele>115.8</ele>
        <time>2024-04-15T09:56:05Z</time>
      </trkpt>
      <trkpt lat="48.88624" lon="1.92546">
        <ele>116.2</ele>
        <time>2024-04-15T09:56:10Z</time>
      </trkpt>
      <trkpt lat="48.8862" lon="1.92562">
        <ele>116.2</ele>
        <time>2024-04-15T09:56:11Z</time>
      </trkpt>
      <trkpt lat="48.88609" lon="1.92597">
        <ele>116.4</ele>
        <time>2024-04-15T09:56:13Z</time>
      </trkpt>
      <trkpt lat="48.88577" lon="1.92669">
        <ele>116.6</ele>
        <time>2024-04-15T09:56:17Z</time>
      </trkpt>
      <trkpt lat="48.88539" lon="1.92751">
        <ele>116.8</ele>
        <time>2024-04-15T09:56:21Z</time>
      </trkpt>
      <trkpt lat="48.88528" lon="1.92773">
        <ele>116.6</ele>
        <time>2024-04-15T09:56:22Z</time>
      </trkpt>
      <trkpt lat="48.88496" lon="1.92842">
        <ele>116.6</ele>
        <time>2024-04-15T09:56:25Z</time>
      </trkpt>
      <trkpt lat="48.88463" lon="1.92915">
        <ele>116.6</ele>
        <time>2024-04-15T09:56:28Z</time>
      </trkpt>
      <trkpt lat="48.88429" lon="1.92988">
        <ele>116.6</ele>
        <time>2024-04-15T09:56:31Z</time>
      </trkpt>
      <trkpt lat="48.88396" lon="1.9306">
        <ele>116.8</ele>
        <time>2024-04-15T09:56:34Z</time>
      </trkpt>
      <trkpt lat="48.88363" lon="1.93134">
        <ele>116.8</ele>
        <time>2024-04-15T09:56:37Z</time>
      </trkpt>
      <trkpt lat="48.88339" lon="1.93186">
        <ele>117</ele>
        <time>2024-04-15T09:56:39Z</time>
      </trkpt>
      <trkpt lat="48.88303" lon="1.93265">
        <ele>117</ele>
        <time>2024-04-15T09:56:42Z</time>
      </trkpt>
      <trkpt lat="48.88267" lon="1.93342">
        <ele>117.2</ele>
        <time>2024-04-15T09:56:45Z</time>
      </trkpt>
      <trkpt lat="48.88232" lon="1.93418">
        <ele>117.6</ele>
        <time>2024-04-15T09:56:48Z</time>
      </trkpt>
      <trkpt lat="48.88196" lon="1.93495">
        <ele>118.2</ele>
        <time>2024-04-15T09:56:51Z</time>
      </trkpt>
      <trkpt lat="48.8816" lon="1.93573">
        <ele>118.6</ele>
        <time>2024-04-15T09:56:54Z</time>
      </trkpt>
      <trkpt lat="48.88148" lon="1.936">
        <ele>118.8</ele>
        <time>2024-04-15T09:56:55Z</time>
      </trkpt>
      <trkpt lat="48.88111" lon="1.93681">
        <ele>119.2</ele>
        <time>2024-04-15T09:56:58Z</time>
      </trkpt>
      <trkpt lat="48.88072" lon="1.93763">
        <ele>119.6</ele>
        <time>2024-04-15T09:57:01Z</time>
      </trkpt>
      <trkpt lat="48.88059" lon="1.93792">
        <ele>119.8</ele>
        <time>2024-04-15T09:57:02Z</time>
      </trkpt>
      <trkpt lat="48.8802" lon="1.93876">
        <ele>120.2</ele>
        <time>2024-04-15T09:57:05Z</time>
      </trkpt>
      <trkpt lat="48.87982" lon="1.9396">
        <ele>120.6</ele>
        <time>2024-04-15T09:57:08Z</time>
      </trkpt>
      <trkpt lat="48.87943" lon="1.94044">
        <ele>120.8</ele>
        <time>2024-04-15T09:57:11Z</time>
      </trkpt>
      <trkpt lat="48.87903" lon="1.94129">
        <ele>121</ele>
        <time>2024-04-15T09:57:14Z</time>
      </trkpt>
      <trkpt lat="48.8789" lon="1.94157">
        <ele>121</ele>
        <time>2024-04-15T09:57:15Z</time>
      </trkpt>
      <trkpt lat="48.87852" lon="1.9424">
        <ele>121.2</ele>
        <time>2024-04-15T09:57:18Z</time>
      </trkpt>
      <trkpt lat="48.8784" lon="1.94266">
        <ele>121.2</ele>
        <time>2024-04-15T09:57:19Z</time>
      </trkpt>
      <trkpt lat="48.87805" lon="1.94341">
        <ele>121.4</ele>
        <time>2024-04-15T09:57:22Z</time>
      </trkpt>
      <trkpt lat="48.87794" lon="1.94364">
        <ele>121.4</ele>
        <time>2024-04-15T09:57:23Z</time>
      </trkpt>
      <trkpt lat="48.87754" lon="1.94452">
        <ele>121.6</ele>
        <time>2024-04-15T09:57:27Z</time>
      </trkpt>
      <trkpt lat="48.87733" lon="1.94497">
        <ele>121.6</ele>
        <time>2024-04-15T09:57:29Z</time>
      </trkpt>
      <trkpt lat="48.87702" lon="1.94565">
        <ele>121.8</ele>
        <time>2024-04-15T09:57:32Z</time>
      </trkpt>
      <trkpt lat="48.8768" lon="1.94613">
        <ele>122</ele>
        <time>2024-04-15T09:57:34Z</time>
      </trkpt>
      <trkpt lat="48.87645" lon="1.94688">
        <ele>122</ele>
        <time>2024-04-15T09:57:37Z</time>
      </trkpt>
      <trkpt lat="48.87609" lon="1.94766">
        <ele>122.2</ele>
        <time>2024-04-15T09:57:40Z</time>
      </trkpt>
      <trkpt lat="48.87572" lon="1.94845">
        <ele>122.2</ele>
        <time>2024-04-15T09:57:43Z</time>
      </trkpt>
      <trkpt lat="48.87535" lon="1.94924">
        <ele>122.4</ele>
        <time>2024-04-15T09:57:46Z</time>
      </trkpt>
      <trkpt lat="48.8751" lon="1.94977">
        <ele>122.4</ele>
        <time>2024-04-15T09:57:48Z</time>
      </trkpt>
      <trkpt lat="48.87473" lon="1.95056">
        <ele>122.6</ele>
        <time>2024-04-15T09:57:51Z</time>
      </trkpt>
      <trkpt lat="48.87437" lon="1.95134">
        <ele>122.6</ele>
        <time>2024-04-15T09:57:54Z</time>
      </trkpt>
      <trkpt lat="48.87413" lon="1.95185">
        <ele>122.8</ele>
        <time>2024-04-15T09:57:56Z</time>
      </trkpt>
      <trkpt lat="48.87377" lon="1.95262">
        <ele>122.8</ele>
        <time>2024-04-15T09:57:59Z</time>
      </trkpt>
      <trkpt lat="48.87342" lon="1.95338">
        <ele>122.8</ele>
        <time>2024-04-15T09:58:02Z</time>
      </trkpt>
      <trkpt lat="48.87307" lon="1.95414">
        <ele>123</ele>
        <time>2024-04-15T09:58:05Z</time>
      </trkpt>
      <trkpt lat="48.8727" lon="1.95494">
        <ele>123</ele>
        <time>2024-04-15T09:58:08Z</time>
      </trkpt>
      <trkpt lat="48.87234" lon="1.95574">
        <ele>123.2</ele>
        <time>2024-04-15T09:58:11Z</time>
      </trkpt>
      <trkpt lat="48.87222" lon="1.956">
        <ele>123.2</ele>
        <time>2024-04-15T09:58:12Z</time>
      </trkpt>
      <trkpt lat="48.87186" lon="1.95677">
        <ele>123.2</ele>
        <time>2024-04-15T09:58:15Z</time>
      </trkpt>
      <trkpt lat="48.87152" lon="1.95752">
        <ele>123.2</ele>
        <time>2024-04-15T09:58:18Z</time>
      </trkpt>
      <trkpt lat="48.8714" lon="1.95777">
        <ele>123</ele>
        <time>2024-04-15T09:58:19Z</time>
      </trkpt>
      <trkpt lat="48.87106" lon="1.95852">
        <ele>123</ele>
        <time>2024-04-15T09:58:22Z</time>
      </trkpt>
      <trkpt lat="48.87071" lon="1.95928">
        <ele>122.8</ele>
        <time>2024-04-15T09:58:25Z</time>
      </trkpt>
      <trkpt lat="48.87047" lon="1.95979">
        <ele>122.8</ele>
        <time>2024-04-15T09:58:27Z</time>
      </trkpt>
      <trkpt lat="48.87013" lon="1.96053">
        <ele>122.6</ele>
        <time>2024-04-15T09:58:30Z</time>
      </trkpt>
      <trkpt lat="48.86981" lon="1.96122">
        <ele>122.4</ele>
        <time>2024-04-15T09:58:33Z</time>
      </trkpt>
      <trkpt lat="48.86942" lon="1.96204">
        <ele>122.2</ele>
        <time>2024-04-15T09:58:37Z</time>
      </trkpt>
      <trkpt lat="48.86912" lon="1.96263">
        <ele>122</ele>
        <time>2024-04-15T09:58:41Z</time>
      </trkpt>
      <trkpt lat="48.8689" lon="1.96291">
        <ele>121.8</ele>
        <time>2024-04-15T09:58:46Z</time>
      </trkpt>
      <trkpt lat="48.86879" lon="1.96315">
        <ele>121.6</ele>
        <time>2024-04-15T09:58:50Z</time>
      </trkpt>
      <trkpt lat="48.8688" lon="1.96326">
        <ele>121.6</ele>
        <time>2024-04-15T09:58:52Z</time>
      </trkpt>
      <trkpt lat="48.86897" lon="1.96292">
        <ele>119.2</ele>
        <time>2024-04-15T10:01:38Z</time>
      </trkpt>
      <trkpt lat="48.86885" lon="1.96295">
        <ele>119.2</ele>
        <time>2024-04-15T10:01:40Z</time>
      </trkpt>
      <trkpt lat="48.86879" lon="1.96328">
        <ele>119.2</ele>
        <time>2024-04-15T10:01:43Z</time>
      </trkpt>
      <trkpt lat="48.86871" lon="1.96352">
        <ele>119.2</ele>
        <time>2024-04-15T10:01:45Z</time>
      </trkpt>
      <trkpt lat="48.86865" lon="1.96366">
        <ele>119.2</ele>
        <time>2024-04-15T10:01:46Z</time>
      </trkpt>
      <trkpt lat="48.86836" lon="1.96432">
        <ele>119.2</ele>
        <time>2024-04-15T10:01:50Z</time>
      </trkpt>
      <trkpt lat="48.86802" lon="1.96502">
        <ele>119</ele>
        <time>2024-04-15T10:01:54Z</time>
      </trkpt>
      <trkpt lat="48.86776" lon="1.96556">
        <ele>119.6</ele>
        <time>2024-04-15T10:01:57Z</time>
      </trkpt>
      <trkpt lat="48.8674" lon="1.96632">
        <ele>119.4</ele>
        <time>2024-04-15T10:02:01Z</time>
      </trkpt>
      <trkpt lat="48.86724" lon="1.96671">
        <ele>119.4</ele>
        <time>2024-04-15T10:02:03Z</time>
      </trkpt>
      <trkpt lat="48.86704" lon="1.9673">
        <ele>119.4</ele>
        <time>2024-04-15T10:02:06Z</time>
      </trkpt>
      <trkpt lat="48.86699" lon="1.96751">
        <ele>119.4</ele>
        <time>2024-04-15T10:02:07Z</time>
      </trkpt>
      <trkpt lat="48.86687" lon="1.96835">
        <ele>119.4</ele>
        <time>2024-04-15T10:02:11Z</time>
      </trkpt>
      <trkpt lat="48.86684" lon="1.96855">
        <ele>119.4</ele>
        <time>2024-04-15T10:02:12Z</time>
      </trkpt>
      <trkpt lat="48.86674" lon="1.96926">
        <ele>119.6</ele>
        <time>2024-04-15T10:02:16Z</time>
      </trkpt>
      <trkpt lat="48.86669" lon="1.96962">
        <ele>119.6</ele>
        <time>2024-04-15T10:02:19Z</time>
      </trkpt>
      <trkpt lat="48.86665" lon="1.96989">
        <ele>119.6</ele>
        <time>2024-04-15T10:02:23Z</time>
      </trkpt>
      <trkpt lat="48.86663" lon="1.97002">
        <ele>119.8</ele>
        <time>2024-04-15T10:02:28Z</time>
      </trkpt>
      <trkpt lat="48.86663" lon="1.97002">
        <ele>119.8</ele>
        <time>2024-04-15T10:02:36Z</time>
      </trkpt>
      <trkpt lat="48.86662" lon="1.97006">
        <ele>120.2</ele>
        <time>2024-04-15T10:02:54Z</time>
      </trkpt>
      <trkpt lat="48.86659" lon="1.97026">
        <ele>120.4</ele>
        <time>2024-04-15T10:02:57Z</time>
      </trkpt>
      <trkpt lat="48.86653" lon="1.9707">
        <ele>120.4</ele>
        <time>2024-04-15T10:03:01Z</time>
      </trkpt>
      <trkpt lat="48.86644" lon="1.97132">
        <ele>120.6</ele>
        <time>2024-04-15T10:03:05Z</time>
      </trkpt>
      <trkpt lat="48.86632" lon="1.97211">
        <ele>120.8</ele>
        <time>2024-04-15T10:03:09Z</time>
      </trkpt>
      <trkpt lat="48.86618" lon="1.97302">
        <ele>121</ele>
        <time>2024-04-15T10:03:13Z</time>
      </trkpt>
      <trkpt lat="48.86611" lon="1.97349">
        <ele>121</ele>
        <time>2024-04-15T10:03:15Z</time>
      </trkpt>
      <trkpt lat="48.86596" lon="1.97441">
        <ele>120.8</ele>
        <time>2024-04-15T10:03:19Z</time>
      </trkpt>
      <trkpt lat="48.86587" lon="1.97504">
        <ele>121</ele>
        <time>2024-04-15T10:03:22Z</time>
      </trkpt>
      <trkpt lat="48.86574" lon="1.97596">
        <ele>120.2</ele>
        <time>2024-04-15T10:03:27Z</time>
      </trkpt>
      <trkpt lat="48.86562" lon="1.97678">
        <ele>119.8</ele>
        <time>2024-04-15T10:03:31Z</time>
      </trkpt>
      <trkpt lat="48.86559" lon="1.977">
        <ele>119.8</ele>
        <time>2024-04-15T10:03:32Z</time>
      </trkpt>
      <trkpt lat="48.86546" lon="1.97787">
        <ele>119.2</ele>
        <time>2024-04-15T10:03:36Z</time>
      </trkpt>
      <trkpt lat="48.86532" lon="1.97878">
        <ele>118.6</ele>
        <time>2024-04-15T10:03:40Z</time>
      </trkpt>
      <trkpt lat="48.86519" lon="1.97971">
        <ele>118.2</ele>
        <time>2024-04-15T10:03:44Z</time>
      </trkpt>
      <trkpt lat="48.86506" lon="1.9806">
        <ele>118</ele>
        <time>2024-04-15T10:03:48Z</time>
      </trkpt>
      <trkpt lat="48.865" lon="1.98103">
        <ele>117.8</ele>
        <time>2024-04-15T10:03:51Z</time>
      </trkpt>
      <trkpt lat="48.86493" lon="1.98158">
        <ele>117.6</ele>
        <time>2024-04-15T10:03:56Z</time>
      </trkpt>
      <trkpt lat="48.86491" lon="1.98174">
        <ele>117.6</ele>
        <time>2024-04-15T10:04:00Z</time>
      </trkpt>
      <trkpt lat="48.86494" lon="1.98185">
        <ele>117.6</ele>
        <time>2024-04-15T10:04:03Z</time>
      </trkpt>
      <trkpt lat="48.86495" lon="1.98187">
        <ele>117.6</ele>
        <time>2024-04-15T10:04:04Z</time>
      </trkpt>
      <trkpt lat="48.86506" lon="1.98189">
        <ele>117.6</ele>
        <time>2024-04-15T10:04:09Z</time>
      </trkpt>
      <trkpt lat="48.86523" lon="1.9818">
        <ele>117.4</ele>
        <time>2024-04-15T10:04:13Z</time>
      </trkpt>
      <trkpt lat="48.86565" lon="1.98151">
        <ele>117.6</ele>
        <time>2024-04-15T10:04:20Z</time>
      </trkpt>
      <trkpt lat="48.86617" lon="1.98115">
        <ele>118</ele>
        <time>2024-04-15T10:04:28Z</time>
      </trkpt>
      <trkpt lat="48.86629" lon="1.98118">
        <ele>118</ele>
        <time>2024-04-15T10:04:30Z</time>
      </trkpt>
      <trkpt lat="48.86636" lon="1.9812">
        <ele>118.2</ele>
        <time>2024-04-15T10:04:31Z</time>
      </trkpt>
      <trkpt lat="48.86676" lon="1.98131">
        <ele>118.4</ele>
        <time>2024-04-15T10:04:36Z</time>
      </trkpt>
      <trkpt lat="48.8672" lon="1.98144">
        <ele>118.4</ele>
        <time>2024-04-15T10:04:41Z</time>
      </trkpt>
      <trkpt lat="48.86763" lon="1.98156">
        <ele>118.4</ele>
        <time>2024-04-15T10:04:47Z</time>
      </trkpt>
      <trkpt lat="48.86804" lon="1.98168">
        <ele>118.6</ele>
        <time>2024-04-15T10:04:52Z</time>
      </trkpt>
      <trkpt lat="48.86861" lon="1.98184">
        <ele>118.8</ele>
        <time>2024-04-15T10:04:58Z</time>
      </trkpt>
      <trkpt lat="48.86881" lon="1.9819">
        <ele>118.8</ele>
        <time>2024-04-15T10:05:00Z</time>
      </trkpt>
      <trkpt lat="48.86944" lon="1.98208">
        <ele>119.2</ele>
        <time>2024-04-15T10:05:06Z</time>
      </trkpt>
      <trkpt lat="48.87003" lon="1.98224">
        <ele>119.4</ele>
        <time>2024-04-15T10:05:12Z</time>
      </trkpt>
      <trkpt lat="48.87042" lon="1.98224">
        <ele>119.8</ele>
        <time>2024-04-15T10:05:16Z</time>
      </trkpt>
      <trkpt lat="48.87083" lon="1.98223">
        <ele>120</ele>
        <time>2024-04-15T10:05:20Z</time>
      </trkpt>
      <trkpt lat="48.87144" lon="1.98221">
        <ele>120.4</ele>
        <time>2024-04-15T10:05:25Z</time>
      </trkpt>
      <trkpt lat="48.87211" lon="1.98219">
        <ele>121</ele>
        <time>2024-04-15T10:05:30Z</time>
      </trkpt>
      <trkpt lat="48.8725" lon="1.98218">
        <ele>121.6</ele>
        <time>2024-04-15T10:05:33Z</time>
      </trkpt>
      <trkpt lat="48.87295" lon="1.98226">
        <ele>122.2</ele>
        <time>2024-04-15T10:05:37Z</time>
      </trkpt>
      <trkpt lat="48.87327" lon="1.98232">
        <ele>123</ele>
        <time>2024-04-15T10:05:41Z</time>
      </trkpt>
      <trkpt lat="48.87333" lon="1.98248">
        <ele>123.4</ele>
        <time>2024-04-15T10:05:43Z</time>
      </trkpt>
      <trkpt lat="48.87334" lon="1.98257">
        <ele>123.6</ele>
        <time>2024-04-15T10:05:44Z</time>
      </trkpt>
      <trkpt lat="48.87342" lon="1.98305">
        <ele>124.2</ele>
        <time>2024-04-15T10:05:48Z</time>
      </trkpt>
      <trkpt lat="48.87355" lon="1.9839">
        <ele>125.2</ele>
        <time>2024-04-15T10:05:55Z</time>
      </trkpt>
      <trkpt lat="48.87356" lon="1.98401">
        <ele>125.4</ele>
        <time>2024-04-15T10:05:56Z</time>
      </trkpt>
      <trkpt lat="48.87358" lon="1.98413">
        <ele>125.6</ele>
        <time>2024-04-15T10:05:59Z</time>
      </trkpt>
      <trkpt lat="48.87366" lon="1.98421">
        <ele>126</ele>
        <time>2024-04-15T10:06:02Z</time>
      </trkpt>
      <trkpt lat="48.87379" lon="1.98433">
        <ele>126.2</ele>
        <time>2024-04-15T10:06:06Z</time>
      </trkpt>
      <trkpt lat="48.87406" lon="1.98459">
        <ele>126.8</ele>
        <time>2024-04-15T10:06:13Z</time>
      </trkpt>
      <trkpt lat="48.87417" lon="1.98469">
        <ele>127</ele>
        <time>2024-04-15T10:06:17Z</time>
      </trkpt>
      <trkpt lat="48.87418" lon="1.98471">
        <ele>127</ele>
        <time>2024-04-15T10:06:18Z</time>
      </trkpt>
      <trkpt lat="48.87424" lon="1.98466">
        <ele>127.2</ele>
        <time>2024-04-15T10:06:20Z</time>
      </trkpt>
      <trkpt lat="48.87427" lon="1.98457">
        <ele>127.6</ele>
        <time>2024-04-15T10:06:25Z</time>
      </trkpt>
      <trkpt lat="48.87427" lon="1.98454">
        <ele>127.8</ele>
        <time>2024-04-15T10:06:27Z</time>
      </trkpt>
      <trkpt lat="48.87424" lon="1.98447">
        <ele>128.2</ele>
        <time>2024-04-15T10:06:31Z</time>
      </trkpt>
      <trkpt lat="48.87414" lon="1.98466">
        <ele>128.6</ele>
        <time>2024-04-15T10:06:37Z</time>
      </trkpt>
      <trkpt lat="48.87413" lon="1.98466">
        <ele>129</ele>
        <time>2024-04-15T10:06:44Z</time>
      </trkpt>
      <trkpt lat="48.87413" lon="1.98466">
        <ele>129.2</ele>
        <time>2024-04-15T10:06:50Z</time>
      </trkpt>
      <trkpt lat="48.87413" lon="1.98466">
        <ele>129.6</ele>
        <time>2024-04-15T10:06:55Z</time>
        <extensions>
          <visugpx:TrkExtension xmlns:visugpx="https://www.visugpx.com/editgpx/">
            <visugpx:node>1</visugpx:node>
            </visugpx:TrkExtension>
        </extensions>
      </trkpt>
    </trkseg>
  </trk>
</gpx>